[[{"header":{"parameterUnit":"m.s-1","parameterCategory":1,"la1":30.6,"la2":28.766,"lo1":-90.7593,"lo2":-88.6598,"dy":0.0162,"dx":0.0183,"nx":116,"ny":114,"refTime":"2023-06-30T00:00:00:Z","depth":0,"parameterNumber":2,"parameterNumberName":"U-component_of_WINDS"},"data":[0.0,0.0,0.0,0.0,0.0,0.0,0.0,0.0,0.0,0.0,0.0,0.0,0.0,0.0,0.0,0.0,0.0,0.0,0.0,0.0,0.0,0.0,0.0,0.0,0.0,0.0,0.0,0.0,0.0,0.0,0.0,0.0,0.0,0.0,0.0,0.0,0.0,0.0,0.0,0.0,0.0,0.0,0.0,0.0,0.0,0.0,0.0,0.0,0.0,0.0,0.0,0.0,0.0,0.0,0.0,0.0,0.0,0.0,0.0,0.0,0.0,0.0,0.0,0.0,0.0,0.0,0.0,0.0,0.0,0.0,0.0,0.0,0.0,0.0,0.0,0.0,0.0,0.0,0.0,0.0,0.0,0.0,0.0,0.0,0.0,0.0,0.0,0.0,0.0,0.0,0.0,0.0,0.0,0.0,0.0,0.0,0.0,0.0,0.0,0.0,0.0,0.0,0.0,0.0,0.0,0.0,0.0,0.0,0.0,0.0,0.0,0.0,0.0,0.0,0.0,0.0,0.0,0.0,0.0,0.0,0.0,0.0,0.0,0.0,0.0,0.0,0.0,0.0,0.0,0.0,0.0,0.0,0.0,0.0,0.0,0.0,0.0,0.0,0.0,0.0,0.0,0.0,0.0,0.0,0.0,0.0,0.0,0.0,0.0,0.0,0.0,0.0,0.0,0.0,0.0,0.0,0.0,0.0,0.0,0.0,0.0,0.0,0.0,0.0,0.0,0.0,0.0,0.0,0.0,0.0,0.0,0.0,0.0,0.0,0.0,0.0,0.0,0.0,0.0,0.0,0.0,0.0,0.0,0.0,0.0,0.0,0.0,0.0,0.0,0.0,0.0,0.0,0.0,0.0,0.0,0.0,0.0,0.0,0.0,0.0,0.0,0.0,0.0,0.0,0.0,0.0,0.0,0.0,0.0,0.0,0.0,0.0,0.0,0.0,0.0,0.0,0.0,0.0,0.0,0.0,0.0,0.0,0.0,0.0,0.0,0.0,0.0,0.0,0.0,0.0,0.0,0.0,0.0,0.0,0.0,0.0,0.0,0.0,0.0,0.0,0.0,0.0,0.0,0.0,0.0,0.0,0.0,0.0,0.0,0.0,0.0,0.0,0.0,0.0,0.0,0.0,0.0,0.0,0.0,0.0,0.0,0.0,0.0,0.0,0.0,0.0,0.0,0.0,0.0,0.0,0.0,0.0,0.0,0.0,0.0,0.0,0.0,0.0,0.0,0.0,0.0,0.0,0.0,0.0,0.0,0.0,0.0,0.0,0.0,0.0,0.0,0.0,0.0,0.0,0.0,0.0,0.0,0.0,0.0,0.0,0.0,0.0,0.0,0.0,0.0,0.0,0.0,0.0,0.0,0.0,0.0,0.0,0.0,0.0,0.0,0.0,0.0,0.0,0.0,0.0,0.0,0.0,0.0,0.0,0.0,0.0,0.0,0.0,0.0,0.0,0.0,0.0,0.0,0.0,0.0,0.0,0.0,0.0,0.0,0.0,0.0,0.0,0.0,0.0,0.0,0.0,0.0,0.0,0.0,0.0,0.0,0.0,0.0,0.0,0.0,0.0,0.0,0.0,0.0,0.0,0.0,0.0,0.0,0.0,0.0,0.0,0.0,0.0,0.0,0.0,0.0,0.0,0.0,0.0,0.0,0.0,0.0,0.0,0.0,0.0,0.0,0.0,0.0,0.0,0.0,0.0,0.0,0.0,0.0,0.0,0.0,0.0,0.0,0.0,0.0,0.0,0.0,0.0,0.0,0.0,0.0,0.0,0.0,0.0,0.0,0.0,0.0,0.0,0.0,0.0,0.0,0.0,0.0,0.0,0.0,0.0,0.0,0.0,0.0,0.0,0.0,0.0,0.0,0.0,0.0,0.0,0.0,0.0,0.0,0.0,0.0,0.0,0.0,0.0,0.0,0.0,0.0,0.0,0.0,0.0,0.0,0.0,0.0,0.0,0.0,0.0,0.0,0.0,0.0,0.0,0.0,0.0,0.0,0.0,0.0,0.0,0.0,0.0,0.0,0.0,0.0,0.0,0.0,0.0,0.0,0.0,0.0,0.0,0.0,0.0,0.0,0.0,0.0,0.0,0.0,0.0,0.0,0.0,0.0,0.0,0.0,0.0,0.0,0.0,0.0,0.0,0.0,0.0,0.0,0.0,0.0,0.0,0.0,0.0,0.0,0.0,0.0,0.0,0.0,0.0,0.0,0.0,0.0,0.0,0.0,0.0,0.0,0.0,0.0,0.0,0.0,0.0,0.0,0.0,0.0,0.0,0.0,0.0,0.0,0.0,0.0,0.0,0.0,0.0,0.0,0.0,0.0,0.0,0.0,0.0,0.0,0.0,0.0,0.0,0.0,0.0,0.0,0.0,0.0,0.0,0.0,0.0,0.0,0.0,0.0,0.0,0.0,0.0,0.0,0.0,0.0,0.0,0.0,0.0,0.0,0.0,0.0,0.0,0.0,0.0,0.0,0.0,0.0,0.0,0.0,0.0,0.0,0.0,0.0,0.0,0.0,0.0,0.0,0.0,0.0,0.0,0.0,0.0,0.0,0.0,0.0,0.0,0.0,0.0,0.0,0.0,0.0,0.0,0.0,0.0,0.0,0.0,0.0,0.0,0.0,0.0,0.0,0.0,0.0,0.0,0.0,0.0,0.0,0.0,0.0,0.0,0.0,0.0,0.0,0.0,0.0,0.0,0.0,0.0,0.0,0.0,0.0,0.0,0.0,0.0,0.0,0.0,0.0,0.0,0.0,0.0,0.0,0.0,0.0,0.0,0.0,0.0,0.0,0.0,0.0,0.0,0.0,0.0,0.0,0.0,0.0,0.0,0.0,0.0,0.0,0.0,0.0,0.0,0.0,0.0,0.0,0.0,0.0,0.0,0.0,0.0,0.0,0.0,0.0,0.0,0.0,0.0,0.0,0.0,0.0,0.0,0.0,0.0,0.0,0.0,0.0,0.0,0.0,0.0,0.0,0.0,0.0,0.0,0.0,0.0,0.0,0.0,0.0,0.0,0.0,0.0,0.0,0.0,0.0,0.0,0.0,0.0,0.0,0.0,0.0,0.0,0.0,0.0,0.0,0.0,0.0,0.0,0.0,0.0,0.0,0.0,0.0,0.0,0.0,0.0,0.0,0.0,0.0,0.0,0.0,0.0,0.0,0.0,0.0,0.0,0.0,0.0,0.0,0.0,0.0,0.0,0.0,0.0,0.0,0.0,0.0,0.0,0.0,0.0,0.0,0.0,0.0,0.0,0.0,0.0,0.0,0.0,0.0,0.0,0.0,0.0,0.0,0.0,0.0,0.0,0.0,0.0,0.0,0.0,0.0,0.0,0.0,0.0,0.0,0.0,0.0,0.0,0.0,0.0,0.0,0.0,0.0,0.0,0.0,0.0,0.0,0.0,0.0,0.0,0.0,0.0,0.0,0.0,0.0,0.0,0.0,0.0,0.0,0.0,0.0,0.0,0.0,0.0,0.0,0.0,0.0,0.0,0.0,0.0,0.0,0.0,0.0,0.0,0.0,0.0,0.0,0.0,0.0,0.0,0.0,0.0,0.0,0.0,0.0,0.0,0.0,0.0,0.0,0.0,0.0,0.0,0.0,0.0,0.0,0.0,0.0,0.0,0.0,0.0,0.0,0.0,0.0,0.0,0.0,0.0,0.0,0.0,0.0,0.0,0.0,0.0,0.0,0.0,0.0,0.0,0.0,0.0,0.0,0.0,0.0,0.0,0.0,0.0,0.0,0.0,0.0,0.0,0.0,0.0,0.0,0.0,0.0,0.0,0.0,0.0,0.0,0.0,0.0,0.0,0.0,0.0,0.0,0.0,0.0,0.0,0.0,0.0,0.0,0.0,0.0,0.0,0.0,0.0,0.0,0.0,0.0,0.0,0.0,0.0,0.0,0.0,0.0,0.0,0.0,0.0,0.0,0.0,0.0,0.0,0.0,0.0,0.0,0.0,0.0,0.0,0.0,0.0,0.0,0.0,0.0,0.0,0.0,0.0,0.0,0.0,0.0,0.0,0.0,0.0,0.0,0.0,0.0,0.0,0.0,0.0,0.0,0.0,0.0,0.0,0.0,0.0,0.0,0.0,0.0,0.0,0.0,0.0,0.0,0.0,0.0,0.0,0.0,0.0,0.0,0.0,0.0,0.0,0.0,0.0,0.0,0.0,0.0,0.0,0.0,0.0,0.0,0.0,0.0,0.0,0.0,0.0,0.0,0.0,0.0,0.0,0.0,0.0,0.0,0.0,0.0,0.0,0.0,0.0,0.0,0.0,0.0,0.0,0.0,0.0,0.0,0.0,0.0,0.0,0.0,0.0,0.0,0.0,0.0,0.0,0.0,0.0,0.0,0.0,0.0,0.0,0.0,0.0,0.0,0.0,0.0,0.0,0.0,0.0,0.0,0.0,0.0,0.0,0.0,0.0,0.0,0.0,0.0,0.0,0.0,0.0,0.0,0.0,0.0,0.0,0.0,0.0,0.0,0.0,0.0,0.0,0.0,0.0,0.0,0.0,0.0,0.0,0.0,0.0,0.0,0.0,0.0,0.0,0.0,0.0,0.0,0.0,0.0,0.0,0.0,0.0,0.0,0.0,0.0,0.0,0.0,0.0,0.0,0.0,0.0,0.0,0.0,0.0,0.0,0.0,0.0,0.0,0.0,0.0,0.0,0.0,0.0,0.0,0.0,0.0,0.0,0.0,0.0,0.0,0.0,0.0,0.0,0.0,0.0,0.0,0.0,0.0,0.0,0.0,0.0,0.0,0.0,0.0,0.0,0.0,0.0,0.0,0.0,0.0,0.0,0.0,0.0,0.0,0.0,0.0,0.0,0.0,0.0,0.0,0.0,0.0,0.0,0.0,0.0,0.0,0.0,0.0,0.0,0.0,0.0,0.0,0.0,0.0,0.0,0.0,0.0,0.0,0.0,0.0,0.0,0.0,0.0,0.0,0.0,0.0,0.0,0.0,0.0,0.0,0.0,0.0,0.0,0.0,0.0,0.0,0.0,0.0,0.0,0.0,0.0,0.0,0.0,0.0,0.0,0.0,0.0,0.0,0.0,0.0,0.0,0.0,0.0,0.0,0.0,0.0,0.0,0.0,0.0,0.0,0.0,0.0,0.0,0.0,0.0,0.0,0.0,0.0,0.0,0.0,0.0,0.0,0.0,0.0,0.0,0.0,0.0,0.0,0.0,0.0,0.0,0.0,0.0,0.0,0.0,0.0,0.0,0.0,0.0,0.0,0.0,0.0,0.0,0.0,0.0,0.0,0.0,0.0,0.0,0.0,0.0,0.0,0.0,0.0,0.0,0.0,0.0,0.0,0.0,0.0,0.0,0.0,0.0,0.0,0.0,0.0,0.0,0.0,0.0,0.0,0.0,0.0,0.0,0.0,0.0,0.0,0.0,0.0,0.0,0.0,0.0,0.0,0.0,0.0,0.0,0.0,0.0,0.0,0.0,0.0,0.0,0.0,0.0,0.0,0.0,0.0,0.0,0.0,0.0,0.0,0.0,0.0,0.0,0.0,0.0,0.0,0.0,0.0,0.0,0.0,0.0,0.0,0.0,0.0,0.0,0.0,0.0,0.0,0.0,0.0,0.0,0.0,0.0,0.0,0.0,0.0,0.0,0.0,0.0,0.0,0.0,0.0,0.0,0.0,0.0,0.0,0.0,0.0,0.0,0.0,0.0,0.0,0.0,0.0,0.0,0.0,0.0,0.0,0.0,0.0,0.0,0.0,0.0,0.0,0.0,0.0,0.0,0.0,0.0,0.0,0.0,0.0,0.0,0.0,0.0,0.0,0.0,0.0,0.0,0.0,0.0,0.0,0.0,0.0,0.0,0.0,0.0,0.0,0.0,0.0,0.0,0.0,0.0,0.0,0.0,0.0,0.0,0.0,0.0,0.0,0.0,0.0,0.0,0.0,0.0,0.0,0.0,0.0,0.0,0.0,0.0,0.0,0.0,0.0,0.0,0.0,0.0,0.0,0.0,0.0,0.0,0.0,0.0,0.0,0.0,0.0,0.0,0.0,0.0,0.0,0.0,0.0,0.0,0.0,0.0,0.0,0.0,0.0,0.0,0.0,0.0,0.0,-3.8875,-3.7956,0.0,0.0,0.0,0.0,0.0,0.0,0.0,0.0,0.0,0.0,0.0,0.0,0.0,0.0,0.0,0.0,0.0,0.0,0.0,0.0,0.0,0.0,0.0,0.0,0.0,0.0,0.0,0.0,0.0,0.0,0.0,0.0,0.0,0.0,0.0,0.0,0.0,0.0,-3.3822,-3.4453,-3.5261,-3.5248,-3.4751,-3.3948,0.0,0.0,0.0,0.0,0.0,0.0,0.0,0.0,0.0,0.0,0.0,0.0,0.0,0.0,0.0,0.0,0.0,0.0,0.0,0.0,0.0,0.0,0.0,0.0,0.0,0.0,0.0,0.0,0.0,0.0,0.0,0.0,0.0,0.0,0.0,0.0,0.0,0.0,0.0,0.0,0.0,0.0,0.0,0.0,0.0,0.0,0.0,0.0,0.0,0.0,0.0,0.0,0.0,0.0,0.0,0.0,0.0,0.0,0.0,0.0,0.0,0.0,0.0,0.0,0.0,0.0,0.0,0.0,0.0,0.0,-4.1431,-4.0067,0.0,0.0,0.0,0.0,0.0,0.0,0.0,0.0,0.0,0.0,0.0,0.0,0.0,0.0,0.0,0.0,0.0,0.0,0.0,0.0,0.0,0.0,0.0,0.0,0.0,0.0,0.0,0.0,0.0,0.0,0.0,0.0,0.0,0.0,0.0,0.0,0.0,0.0,-3.4941,-3.6092,-3.7529,-3.745,-3.6655,-3.5295,-3.5783,0.0,0.0,0.0,0.0,0.0,0.0,0.0,0.0,0.0,0.0,0.0,0.0,0.0,0.0,0.0,0.0,0.0,0.0,0.0,0.0,0.0,0.0,0.0,0.0,0.0,0.0,0.0,0.0,0.0,0.0,0.0,0.0,0.0,0.0,0.0,0.0,0.0,0.0,0.0,0.0,0.0,0.0,0.0,0.0,0.0,0.0,0.0,0.0,0.0,0.0,0.0,0.0,0.0,0.0,0.0,0.0,0.0,0.0,0.0,0.0,0.0,0.0,0.0,-4.6428,-4.6822,-4.6953,-4.6816,-4.6671,-4.6396,-4.4067,-4.2587,-4.1818,-4.1422,0.0,0.0,0.0,0.0,0.0,0.0,0.0,0.0,0.0,0.0,0.0,0.0,0.0,0.0,0.0,0.0,0.0,0.0,0.0,0.0,0.0,0.0,-3.1777,-3.1888,-3.2547,0.0,0.0,0.0,0.0,0.0,0.0,0.0,0.0,-3.5475,-3.5866,-3.6696,-3.7567,-3.8158,-3.8437,-3.8352,-3.8216,-3.7944,-3.7172,-3.6794,-3.6671,0.0,0.0,0.0,0.0,0.0,0.0,0.0,0.0,0.0,0.0,0.0,0.0,0.0,0.0,0.0,0.0,0.0,0.0,0.0,0.0,0.0,0.0,0.0,0.0,0.0,0.0,0.0,0.0,0.0,0.0,0.0,0.0,0.0,0.0,0.0,0.0,0.0,0.0,0.0,0.0,0.0,-3.7445,-3.7674,0.0,0.0,0.0,0.0,0.0,0.0,0.0,0.0,0.0,0.0,0.0,0.0,0.0,-4.6153,-4.639,-4.6651,-4.7039,-4.7483,-4.8201,-4.8894,-4.9509,-4.9436,-4.8956,-4.8126,-4.6967,0.0,-4.515,-4.3667,0.0,0.0,0.0,0.0,0.0,0.0,0.0,0.0,0.0,0.0,0.0,0.0,0.0,0.0,0.0,0.0,0.0,0.0,0.0,0.0,0.0,0.0,-3.2038,-3.248,-3.3249,0.0,0.0,0.0,0.0,0.0,0.0,0.0,-3.6411,-3.6457,-3.6957,-3.7935,-3.8315,-3.8773,-3.9275,-3.9236,-3.9492,-3.9921,-3.8944,-3.8185,-3.7602,-3.7083,0.0,0.0,0.0,0.0,0.0,0.0,0.0,0.0,0.0,0.0,0.0,0.0,0.0,0.0,0.0,0.0,0.0,0.0,0.0,0.0,0.0,0.0,0.0,0.0,0.0,0.0,0.0,0.0,0.0,0.0,0.0,0.0,0.0,0.0,0.0,0.0,0.0,0.0,0.0,-3.811,-3.9352,-3.9895,-4.0317,-4.0567,0.0,0.0,0.0,0.0,0.0,0.0,0.0,0.0,0.0,-4.7243,-4.7754,-4.8081,-4.8302,-4.9142,-4.9681,-4.9884,-5.0203,-5.0505,-5.0786,-5.0694,-5.0139,-4.927,-4.877,-4.8069,-4.7131,-4.548,-4.482,-4.4729,0.0,0.0,0.0,0.0,-4.3667,-4.3667,0.0,0.0,0.0,0.0,0.0,0.0,0.0,0.0,0.0,0.0,0.0,0.0,-3.0414,-3.1496,-3.2323,-3.2915,0.0,0.0,0.0,0.0,0.0,0.0,0.0,-3.5988,-3.6855,-3.7385,-3.805,-3.8812,-3.9031,-3.9478,-4.0125,-4.0137,-4.0478,-4.1066,-4.0347,-3.9473,-3.851,-3.8137,-3.7498,-3.666,0.0,0.0,0.0,0.0,0.0,0.0,0.0,0.0,0.0,0.0,0.0,0.0,0.0,0.0,0.0,0.0,0.0,0.0,0.0,0.0,0.0,0.0,0.0,0.0,0.0,0.0,0.0,0.0,0.0,0.0,0.0,0.0,0.0,0.0,0.0,0.0,0.0,-3.9722,-4.0994,-4.1911,-4.2497,-4.2814,0.0,0.0,0.0,0.0,0.0,0.0,-4.5532,-4.5994,-4.6935,-4.8513,-4.9698,-5.0244,-5.0084,-5.1244,-5.184,-5.1891,-5.1838,-5.1897,-5.2048,-5.1695,-5.1046,-5.0213,-4.9897,-4.9212,-4.8252,-4.6801,-4.6214,-4.6195,-4.5975,-4.5902,-4.5902,-4.5902,-4.5902,-4.5902,0.0,0.0,0.0,0.0,0.0,0.0,0.0,0.0,0.0,0.0,0.0,-2.8662,-3.0404,-3.1948,-3.2859,-3.2897,-3.4342,-3.5258,0.0,0.0,0.0,-3.5393,-3.5467,-3.5906,-3.6781,-3.857,-3.9539,-3.9649,-4.0464,-4.0922,-4.1037,-4.1023,-4.1055,-4.1095,-4.0983,-4.0373,-3.9373,-3.8408,-3.7793,-3.7433,-3.7232,0.0,0.0,0.0,0.0,0.0,0.0,0.0,0.0,0.0,0.0,0.0,0.0,0.0,0.0,0.0,0.0,0.0,0.0,0.0,0.0,0.0,0.0,0.0,0.0,0.0,0.0,0.0,0.0,0.0,0.0,0.0,0.0,0.0,0.0,0.0,0.0,0.0,0.0,-4.2744,-4.2878,0.0,0.0,0.0,0.0,-4.5173,-4.6549,-4.7449,-4.7545,-4.8948,-4.9756,-4.9817,-5.1344,-5.2096,-5.198,-5.1923,-5.2254,-5.2924,-5.273,-5.3069,-5.3833,-5.2809,-5.1898,-5.1083,-5.025,-4.9362,-4.842,-4.7425,-4.7039,-4.6947,-4.6195,-4.5902,-4.5902,-4.5902,-4.5902,-4.5902,0.0,0.0,0.0,0.0,0.0,0.0,0.0,0.0,0.0,-2.7951,-2.8524,-2.9461,-3.1123,-3.2266,-3.3102,-3.3639,-3.4675,-3.5285,-3.5237,0.0,0.0,-3.5273,-3.5829,-3.686,-3.838,-3.9656,-4.0355,-4.0466,-4.0828,-4.1029,-4.1103,-4.1098,-4.1094,-4.1097,-4.1035,-4.0747,-4.03,-3.9816,-3.9095,-3.825,-3.8007,-3.7312,0.0,0.0,0.0,0.0,0.0,0.0,0.0,0.0,0.0,0.0,0.0,0.0,0.0,0.0,0.0,0.0,0.0,0.0,0.0,0.0,0.0,0.0,0.0,0.0,0.0,0.0,0.0,0.0,0.0,0.0,0.0,0.0,0.0,0.0,0.0,0.0,0.0,-4.3688,-4.4266,0.0,-4.5333,-4.5859,-4.6383,-4.6927,-4.778,-4.8583,-4.9272,-5.0444,-5.1241,-5.1573,-5.255,-5.3017,-5.2944,-5.3357,-5.3656,-5.384,-5.3751,-5.383,-5.3982,-5.3609,-5.2605,-5.1176,-5.088,-4.9917,-4.8532,-4.82,-4.7997,-4.7828,-4.7572,-4.7443,-4.7443,-4.7443,-4.7443,-4.7443,0.0,0.0,0.0,0.0,0.0,0.0,0.0,0.0,0.0,-2.8387,-2.8989,-2.9901,-3.1516,-3.2409,-3.3211,-3.4019,-3.4814,-3.5239,-3.5208,0.0,0.0,-3.556,-3.6716,-3.7961,-3.9275,-4.021,-4.0732,-4.0876,-4.0654,-4.0574,-4.0632,-4.0644,-4.0664,-4.067,-4.0901,-4.0894,-4.0729,-4.0484,-3.9878,-3.9043,-3.8698,-3.7966,-3.6974,0.0,0.0,0.0,0.0,0.0,0.0,0.0,0.0,0.0,0.0,0.0,0.0,0.0,0.0,0.0,0.0,0.0,0.0,0.0,0.0,0.0,0.0,0.0,0.0,0.0,0.0,0.0,0.0,0.0,0.0,0.0,0.0,0.0,0.0,-4.2554,-4.3752,-4.4624,-4.5463,-4.6185,-4.6743,-4.7232,-4.7737,-4.826,-4.8876,-4.9652,-5.0624,-5.1535,-5.2315,-5.2952,-5.3642,-5.3959,-5.3871,-5.4339,-5.4508,-5.4357,-5.4324,-5.4201,-5.4037,-5.4,-5.3014,-5.1269,-5.1269,-5.0268,-4.866,-4.866,-4.8569,-4.8401,-4.8382,-4.8343,-4.8306,-4.8306,-4.8306,-4.8306,0.0,0.0,0.0,0.0,0.0,0.0,0.0,0.0,0.0,-2.9186,-2.9377,-2.9959,-3.1573,-3.2423,-3.3234,-3.4076,-3.4786,-3.52,-3.52,-3.5138,0.0,-3.6301,-3.804,-3.9099,-3.9327,-4.0167,-4.0662,-4.0794,-4.0053,-3.9708,-3.9708,-3.9735,-3.9764,-3.9833,-4.0618,-4.0822,-4.0578,-4.0293,-4.0024,-3.975,-3.9301,-3.8799,-3.8243,0.0,0.0,0.0,0.0,0.0,0.0,0.0,0.0,0.0,0.0,0.0,0.0,0.0,0.0,0.0,0.0,0.0,0.0,0.0,0.0,0.0,0.0,0.0,0.0,0.0,0.0,0.0,0.0,0.0,0.0,0.0,0.0,0.0,-4.2766,-4.3752,-4.4624,-4.5498,-4.6374,-4.6886,-4.6839,-4.8327,-4.9266,-4.9141,-4.9934,-5.0761,-5.1601,-5.2323,-5.3085,-5.3914,-5.4643,-5.4946,-5.4799,-5.4739,-5.4622,-5.4505,-5.4357,-5.4217,-5.4072,-5.4,-5.3014,-5.1361,-5.1361,-5.0378,-4.8804,-4.8804,-4.8732,-4.8587,-4.8532,-4.8419,-4.8306,-4.8306,-4.8306,-4.8306,0.0,0.0,0.0,0.0,0.0,0.0,0.0,0.0,0.0,-2.9345,-2.9885,-3.0854,-3.2466,-3.28,-3.346,-3.4855,-3.5108,-3.5179,-3.5138,0.0,0.0,-3.711,-3.8346,-3.9324,-4.0015,-4.04,-4.064,-4.0725,-3.999,-3.968,-3.9761,-3.9136,-3.918,-3.9733,-3.9909,-4.0155,-4.0419,-3.9958,-3.9724,-3.9662,-3.9564,-3.9509,-3.939,0.0,0.0,0.0,0.0,0.0,0.0,0.0,0.0,0.0,0.0,0.0,0.0,0.0,0.0,0.0,0.0,0.0,0.0,0.0,0.0,0.0,0.0,0.0,0.0,0.0,0.0,0.0,0.0,0.0,0.0,0.0,-4.1245,-4.2558,-4.3011,-4.3769,-4.4624,-4.5498,-4.6374,-4.7115,-4.7702,-4.8692,-4.9546,-5.0139,-5.0323,-5.1033,-5.2463,-5.2653,-5.3359,-5.4795,-5.4938,-5.4975,-5.4871,-5.4799,-5.467,-5.4505,-5.4455,-5.4035,-5.33,-5.3231,-5.2247,-5.0595,-5.0487,-4.9857,-4.8874,-4.8874,-4.8821,-4.8715,-4.855,-4.8494,-4.8438,-4.8343,-4.8306,-4.8306,0.0,0.0,0.0,0.0,0.0,0.0,0.0,0.0,0.0,0.0,-3.0331,-3.1221,-3.2866,-3.2972,-3.359,-3.5203,-3.5231,-3.5151,-3.5101,0.0,-3.6445,-3.7451,-3.8756,-3.9719,-4.0288,-4.0468,-4.0439,-4.021,-3.9461,-3.8949,-3.8705,-3.8193,-3.8198,-3.8629,-3.9201,-3.9503,-3.96,-3.9331,-3.9161,-3.9059,-3.9012,-3.9118,-3.9294,-3.8992,-3.8534,-3.8014,-3.764,-3.714,-3.6534,-3.5803,0.0,0.0,0.0,0.0,0.0,0.0,0.0,0.0,0.0,0.0,0.0,0.0,0.0,0.0,0.0,0.0,0.0,0.0,0.0,0.0,0.0,0.0,0.0,0.0,-4.1958,-4.3242,-4.3623,-4.4375,-4.5068,-4.5569,-4.6724,-4.7659,-4.8094,-4.9202,-5.0086,-5.0565,-5.054,-5.1185,-5.2824,-5.2829,-5.3531,-5.5159,-5.5094,-5.4843,-5.4434,-5.4315,-5.4003,-5.3537,-5.3486,-5.3109,-5.251,-5.2459,-5.168,-5.0345,-5.0223,-4.9723,-4.8979,-4.8926,-4.8874,0.0,0.0,0.0,0.0,0.0,-4.8306,-4.8306,0.0,0.0,0.0,0.0,0.0,0.0,0.0,0.0,0.0,0.0,0.0,-3.1248,-3.2919,-3.3045,-3.3654,-3.5259,-3.5231,-3.5107,0.0,-3.654,-3.744,-3.7498,-3.9163,-4.0167,-4.0298,-4.0329,-4.007,-3.9495,-3.8661,-3.7881,-3.7201,-3.7089,-3.7045,-3.7105,-3.8421,-3.8756,-3.8369,-3.8481,-3.8342,-3.8066,-3.7828,-3.8008,-3.8425,-3.8367,-3.8204,-3.8088,-3.8408,-3.8237,-3.7752,-3.7132,0.0,0.0,0.0,0.0,0.0,0.0,0.0,0.0,0.0,0.0,0.0,0.0,0.0,0.0,0.0,0.0,0.0,0.0,0.0,0.0,0.0,0.0,0.0,0.0,-4.2179,-4.3586,-4.4511,-4.5252,-4.5715,-4.5708,-4.7155,-4.818,-4.8206,-4.9642,-5.0587,-5.0604,-5.0603,-5.1242,-5.2694,-5.2843,0.0,0.0,0.0,-5.4547,-5.3665,-5.347,-5.2991,-5.2217,-5.2087,-5.1888,-5.1684,-5.1668,-5.1168,-5.0279,-5.0215,-4.9772,-4.9084,-4.8979,-4.8909,-4.8891,-4.8822,-4.8697,-4.8494,-4.8363,-4.8306,-4.8306,0.0,0.0,0.0,0.0,0.0,0.0,0.0,0.0,0.0,-3.0682,-3.0699,-3.1308,-3.2919,-3.3048,-3.3641,-3.5259,-3.5304,-3.5185,-3.5029,-3.652,-3.7401,-3.7411,-3.9153,-4.0147,-4.0215,-3.9701,-3.9473,-3.9499,-3.8067,-3.7294,-3.7174,-3.6421,-3.6317,-3.6797,-3.7394,-3.7645,-3.7599,-3.7404,-3.7108,-3.6728,-3.6315,-3.6845,-3.7985,-3.8467,-3.823,-3.777,-3.843,-3.8465,-3.8148,-3.7748,-3.763,-3.7426,-3.602,-3.5561,0.0,0.0,0.0,0.0,0.0,0.0,0.0,0.0,0.0,0.0,0.0,0.0,0.0,0.0,0.0,0.0,0.0,0.0,0.0,-4.2345,-4.3512,-4.453,-4.5425,-4.5687,-4.5757,-4.5715,-4.6626,-4.7524,-4.8219,-4.9167,-4.9998,-5.0635,-5.0634,-5.1015,-5.1954,-5.2583,-5.3042,-5.3331,-5.3907,-5.3777,-5.2835,-5.274,-5.2551,-5.2288,0.0,0.0,-5.098,-5.089,-5.034,-4.9501,-4.9438,-4.928,-4.9101,-4.9084,-4.8996,-4.8891,-4.8822,-4.8697,-4.8494,-4.8457,-4.8382,-4.8214,0.0,0.0,0.0,0.0,0.0,0.0,0.0,0.0,0.0,0.0,-3.0701,-3.1162,-3.2362,-3.2796,-3.349,-3.4692,-3.5029,0.0,-3.5011,-3.651,-3.7401,-3.7401,-3.9124,-3.9947,-3.9613,-3.9372,-3.8903,-3.8197,-3.7459,-3.6889,-3.6484,-3.5951,-3.5739,-3.5839,-3.6491,-3.6477,-3.5962,-3.5972,-3.5445,-3.452,-3.4159,-3.4319,-3.5017,-3.6994,-3.7636,-3.7572,-3.8477,-3.8471,-3.8024,-3.8178,-3.7892,-3.7329,-3.6617,-3.6369,-3.619,0.0,0.0,0.0,0.0,0.0,0.0,0.0,0.0,0.0,0.0,0.0,0.0,0.0,0.0,-3.9246,-3.9714,0.0,-4.2287,-4.3597,-4.4216,-4.4858,-4.5729,-4.5854,-4.5834,-4.5757,-4.6515,-4.7376,-4.8229,-4.9054,-4.9877,-5.068,-5.0683,-5.099,-5.1816,-5.2173,-5.2518,-5.29,-5.3212,-5.2965,-5.2075,-5.1939,-5.1621,-5.1093,-5.1026,-5.0745,-5.0256,-5.0153,-4.9847,-4.9434,-4.9308,-4.9228,-4.9181,-4.9135,-4.9032,-4.8909,-4.8856,-4.8769,-4.8643,-4.855,-4.8457,-4.8271,0.0,0.0,0.0,0.0,0.0,0.0,0.0,0.0,0.0,0.0,-3.0698,-3.1013,-3.1805,-3.2561,-3.3404,0.0,0.0,-3.5098,-3.5019,-3.6378,-3.7183,-3.7183,-3.8754,-3.9347,-3.8781,-3.8789,-3.8189,-3.691,-3.6877,-3.6475,-3.5784,-3.5599,-3.5231,-3.4798,-3.5645,-3.5366,-3.4228,-3.4445,-3.368,-3.2242,-3.1915,-3.1563,-3.1559,-3.4523,-3.6091,-3.6863,-3.8003,-3.8046,-3.7689,-3.8219,-3.7801,-3.7021,-3.702,-3.6987,-3.6827,-3.6176,-3.6001,0.0,0.0,0.0,0.0,0.0,0.0,0.0,0.0,-3.8076,-3.8337,-3.8473,-3.9827,-4.1,-4.1027,-4.2367,-4.3699,-4.4411,-4.4704,-4.5105,-4.5809,-4.5893,-4.5873,-4.5834,-4.6602,-4.7432,-4.8245,-4.91,-4.9953,-5.0761,-5.0766,-5.1,-5.1635,-5.1758,-5.2011,-5.2437,-5.2547,-5.215,-5.128,-5.1154,-5.0702,-4.9939,-4.9857,-4.9792,-4.9736,-4.9648,-4.9604,-4.9593,-4.9387,-4.9308,-4.9292,-4.9166,-4.9049,-4.8926,-4.8926,-4.8892,-4.8804,-4.8624,-4.8513,-4.8347,0.0,0.0,0.0,0.0,0.0,0.0,0.0,0.0,0.0,0.0,0.0,0.0,0.0,0.0,0.0,0.0,-3.5239,-3.5157,-3.5088,-3.5941,-3.6416,-3.6416,-3.7367,-3.7898,-3.7937,-3.7368,-3.7044,-3.7001,-3.629,-3.5877,-3.5705,-3.5333,-3.4843,-3.4288,-3.4823,-3.4376,-3.3243,-3.304,-3.211,-3.0705,-3.0207,-2.9665,-2.9416,-3.0949,-3.2843,-3.4818,-3.6182,-3.6928,-3.7267,-3.7348,-3.7586,-3.7758,-3.7178,-3.6928,-3.6794,-3.6706,-3.6768,-3.6869,-3.686,-3.7327,-3.796,-3.8394,-3.8848,-3.9269,0.0,-4.0453,-4.1176,-4.1314,-4.2117,-4.2834,-4.2881,-4.3742,-4.4472,-4.457,-4.5241,-4.5783,-4.5886,-4.5905,-4.5905,-4.5899,-4.6649,-4.7508,-4.8299,-4.918,-5.0032,-5.0841,-5.0838,-5.0804,-5.0827,-5.1501,-5.1566,-5.0889,-5.1491,-5.1392,-5.0443,-5.0352,-5.0253,-5.0082,-4.9952,-4.9866,-4.9885,-4.975,-4.9648,-4.9593,-4.9387,-4.9308,-4.9289,-4.9211,-4.9131,-4.9084,-4.9084,-4.9015,-4.8874,-4.8804,-4.8642,-4.8292,0.0,0.0,0.0,0.0,0.0,0.0,0.0,0.0,0.0,0.0,0.0,0.0,0.0,0.0,0.0,-3.4655,-3.5091,-3.5273,-3.5166,-3.5917,-3.6348,-3.6302,-3.7166,-3.7483,-3.7114,-3.6942,-3.6678,-3.6306,-3.5933,-3.5666,-3.5502,-3.4995,-3.455,-3.4187,-3.4037,-3.3342,-3.2238,-3.1586,-3.0411,-2.8923,-2.8232,-2.7952,-2.8097,-2.9213,-3.0656,-3.2443,-3.4756,-3.5884,0.0,-3.7092,-3.7317,-3.7288,-3.721,-3.7143,-3.7085,-3.7085,-3.7163,-3.7299,-3.7613,-3.805,-3.8535,-3.8975,-3.9707,-4.0415,-4.0793,-4.1666,-4.246,-4.2591,-4.3342,-4.3979,-4.4008,-4.4744,-4.5351,-4.5363,-4.5704,-4.5955,-4.5955,-4.5953,-4.6158,-4.6657,-4.7472,-4.8133,-4.8425,-4.9257,-5.0088,-5.0902,-5.0893,-5.0852,-5.0829,-5.1057,-5.1029,-5.0615,-5.0898,-5.0853,-5.0416,-5.0314,-5.0243,-5.0219,-5.0082,-5.0005,-4.9946,-4.9857,-4.9764,-4.9648,-4.9529,-4.9434,-4.9352,-4.9292,-4.923,-4.9166,-4.9118,-4.9068,-4.8998,-4.884,-4.8733,-4.8439,0.0,0.0,0.0,0.0,0.0,0.0,0.0,0.0,0.0,0.0,0.0,0.0,0.0,0.0,-3.3436,-3.4191,-3.4976,-3.5386,-3.5266,-3.5791,-3.6065,-3.6021,-3.6682,-3.681,-3.632,-3.6485,-3.6324,-3.58,-3.5697,-3.5512,-3.5256,-3.4565,-3.4105,-3.3833,-3.3132,-3.2256,-3.1263,-3.0221,-2.8864,-2.7406,-2.6616,-2.6479,-2.6866,-2.7906,-2.9143,-3.0711,-3.3548,-3.4878,-3.548,-3.6688,-3.6981,-3.6908,-3.7239,-3.7334,-3.7334,-3.7372,-3.7485,-3.7685,-3.8118,-3.8473,-3.891,-3.9565,-4.0371,-4.1143,-4.1762,-4.2656,-4.3426,-4.3569,-4.4323,-4.4957,-4.4976,-4.5504,-4.5929,-4.5947,-4.6008,-4.6025,-4.603,-4.6226,-4.6625,-4.7241,-4.8316,-4.898,-4.8914,-4.9679,-5.0403,-5.0988,-5.0963,-5.0917,-5.0897,-5.0801,-5.072,-5.0654,-5.0625,-5.0584,-5.0534,-5.0416,-5.0348,-5.0348,-5.0219,-5.0133,-5.0082,-4.9965,-4.9843,-4.975,-4.9663,-4.9574,-4.9476,-4.9418,-4.934,-4.9244,-4.9164,-4.9133,-4.91,-4.8946,-4.8858,-4.8547,0.0,0.0,0.0,0.0,0.0,0.0,0.0,0.0,0.0,0.0,0.0,0.0,0.0,0.0,-3.3518,-3.4325,-3.5062,-3.547,-3.5405,-3.5361,-3.5324,-3.5323,-3.5362,-3.5453,-3.5633,-3.5702,-3.5758,-3.5799,-3.56,-3.5296,-3.4893,-3.4031,-3.3422,-3.3001,-3.2006,-3.109,-3.024,-2.8991,-2.765,-2.6305,-2.5592,-2.5347,-2.55,-2.6778,-2.8271,-3.0072,-3.2558,-3.3916,-3.4726,-3.5941,-3.6626,-3.7046,-3.7317,-3.7411,-3.7429,-3.754,-3.7827,-3.8152,-3.8491,-3.8826,-3.9369,-4.0547,-4.1025,-4.1487,-4.2613,-4.3632,-4.4391,-4.4536,-4.5241,-4.5879,-4.5947,-4.5972,-4.6014,-4.6085,-4.6095,-4.6105,-4.6108,-4.6813,-4.7378,-4.7397,-4.8919,-4.997,-4.9946,-5.0631,-5.1063,-5.1101,-5.1027,-5.0963,-5.0898,-5.0897,-5.0855,-5.0793,-5.0663,-5.0606,-5.0606,-5.0534,-5.05,-5.05,-5.0359,-5.029,-5.0278,-5.0012,-4.9912,-4.9898,-4.9745,-4.9692,-4.9678,-4.9623,-4.951,-4.9384,-4.9321,-4.926,-4.9197,-4.9118,-4.8963,-4.8546,0.0,0.0,0.0,0.0,0.0,0.0,0.0,0.0,0.0,0.0,0.0,0.0,0.0,0.0,0.0,0.0,-3.4313,-3.4991,-3.5502,-3.5464,-3.5425,-3.5431,-3.5483,-3.5544,-3.565,-3.5723,-3.5754,-3.5735,-3.5498,-3.5098,-3.4557,-3.4086,-3.3519,-3.2828,-3.1774,-3.0718,-2.96,-2.7916,-2.6531,-2.5394,-2.5131,-2.5382,-2.6069,-2.7707,-2.926,-3.0848,0.0,-3.4198,-3.4868,-3.5998,-3.6736,-3.7259,-3.7504,-3.7685,-3.7862,-3.8118,-3.833,-3.8563,-3.8913,-3.9178,-3.9639,-4.0806,-4.1686,-4.2546,-4.3647,-4.465,-4.5341,-4.5435,-4.5735,-4.598,-4.6046,-4.6066,-4.626,-4.6863,-4.696,-4.7159,-4.7732,-4.8083,-4.8472,-4.9055,-4.9639,-5.0204,-5.0744,-5.1014,-5.1383,-5.1929,-5.1936,-5.1895,-5.1821,-5.18,-5.1501,-5.0877,-5.0782,-5.0729,-5.0729,-5.0625,-5.0576,-5.0557,-5.0385,-5.0302,-5.029,-5.0101,-5.0031,-5.0031,-4.9898,-4.983,-4.9816,-4.9721,-4.9648,-4.9585,-4.943,-4.9352,-4.9249,-4.86,-4.8263,-4.796,0.0,0.0,0.0,0.0,0.0,0.0,0.0,0.0,0.0,0.0,0.0,0.0,0.0,0.0,0.0,0.0,0.0,-3.4816,-3.5625,-3.5612,-3.5577,-3.5566,-3.5637,-3.5689,-3.5722,-3.5799,-3.578,-3.5654,-3.5369,-3.4864,-3.418,-3.3833,-3.3258,-3.2447,-3.135,-3.0274,-2.9122,-2.7372,-2.6032,-2.5135,-2.5233,-2.5716,-2.6589,-2.8569,-3.0109,0.0,-3.3531,-3.4632,-3.5255,-3.6253,-3.6954,-3.7466,-3.7757,-3.8017,-3.8267,-3.8585,-3.8792,-3.8994,-3.9272,-3.9502,-3.994,-4.1026,-4.2097,-4.3145,-4.4198,-4.515,-4.5848,-4.5929,-4.598,-4.6042,-4.609,-4.6357,-4.674,-4.7313,-4.7668,-4.8076,-4.865,-4.8985,-4.9374,-4.9939,-5.0542,-5.1122,-5.1648,-5.1955,-5.2216,-5.2424,-5.2705,-5.2848,-5.2795,-5.2441,-5.1978,-5.1409,-5.1021,-5.0844,-5.0844,-5.0738,-5.0644,-5.0606,-5.0464,-5.0385,-5.0359,-5.0255,-5.0194,-5.017,-5.007,-4.9986,-4.9965,-4.9843,-4.9617,-4.933,-4.9148,-4.8871,-4.8491,-4.7866,-4.7567,-4.7303,0.0,0.0,0.0,0.0,0.0,0.0,0.0,0.0,0.0,0.0,0.0,0.0,0.0,0.0,0.0,0.0,0.0,0.0,-3.5749,-3.5743,-3.5702,-3.5703,-3.5763,-3.5806,-3.5816,-3.5867,-3.5809,-3.5583,-3.5257,-3.4641,-3.3778,-3.3328,-3.2681,-3.1853,-3.0795,-2.9827,-2.8894,-2.7378,-2.6195,-2.5383,-2.578,-2.6311,-2.7055,-2.9244,-3.0788,-3.2065,-3.4024,-3.5176,-3.5851,-3.6643,-3.7243,-3.7685,-3.8017,-3.8364,-3.8676,-3.896,-3.9165,-3.9363,-3.9563,-3.9815,-4.0238,-4.1265,-4.2266,-4.3278,-4.4276,-4.5226,-4.5912,-4.5986,-4.6061,-4.611,-4.6152,-4.6857,-4.743,-4.7529,-4.8234,-4.8807,-4.8904,-4.9586,-5.0073,-5.0131,-5.1593,-5.2625,-5.2664,-5.3407,-5.3526,-5.2691,-5.3343,-5.376,-5.376,-5.2873,-5.2348,-5.2309,-5.1397,-5.0906,-5.0906,-5.0844,-5.0738,-5.0616,-5.0596,-5.0576,-5.0511,-5.0435,-5.0359,-5.0302,-5.0186,-5.0106,-5.0051,-4.993,-4.939,-4.8642,-4.8491,-4.7895,-4.7109,-4.6985,-4.6873,-4.66,0.0,0.0,0.0,0.0,0.0,0.0,0.0,0.0,0.0,0.0,0.0,0.0,0.0,0.0,0.0,0.0,0.0,0.0,-3.5786,-3.5869,-3.5843,-3.5849,-3.5869,-3.5864,-3.5862,-3.5897,-3.578,-3.5527,-3.5133,-3.4528,-3.3712,-3.3351,-3.2715,-3.1853,-3.0994,-3.006,-2.9056,-2.765,-2.6616,-2.5933,-2.6379,-2.7383,-2.8816,-3.0364,-3.2026,-3.3643,-3.4844,-3.5623,-3.6172,-3.6838,-3.7541,-3.8189,-3.8528,-3.8785,-3.9027,-3.9279,-3.9471,-3.9658,-3.9911,-4.0059,-4.0396,-4.1403,-4.2409,-4.3407,-4.4353,-4.5305,-4.5975,-4.5997,-4.609,-4.6368,-4.6956,-4.7284,-4.788,-4.913,-4.952,-4.9894,-5.0579,-5.0833,-5.1203,-5.1865,-5.2333,-5.2859,-5.3522,-5.4331,-5.4727,-5.4466,-5.463,-5.4719,-5.4665,-5.3818,-5.3055,-5.2402,-5.1501,-5.1046,-5.1046,-5.0933,-5.0825,-5.0747,-5.0644,-5.0596,-5.0567,-5.0502,-5.0468,-5.0418,-4.9682,-4.9339,-4.9231,-4.8562,-4.8141,-4.7877,-4.7732,-4.754,-4.7254,-4.6509,-4.614,-4.5861,0.0,0.0,0.0,0.0,0.0,0.0,0.0,0.0,0.0,0.0,0.0,0.0,0.0,0.0,0.0,0.0,0.0,0.0,0.0,-3.5941,-3.5941,-3.5946,-3.5936,-3.593,-3.5898,-3.5871,-3.573,-3.5458,-3.5048,-3.4446,-3.3658,-3.3369,-3.287,-3.2128,-3.1469,-3.0715,-2.9956,-2.8775,-2.7919,0.0,0.0,-2.887,-3.0123,-3.1707,-3.3111,-3.4399,-3.5571,-3.6393,-3.6921,-3.7394,-3.7914,-3.8488,-3.9163,-3.9555,-3.9805,-4.0078,-4.0264,-4.0369,-4.0224,-4.0252,-4.0479,-4.1101,-4.2261,-4.3401,-4.3981,-4.5099,-4.6012,-4.6085,-4.6149,-4.6458,-4.7283,-4.7788,-4.85,-4.9825,-5.0352,-5.078,-5.1287,-5.1677,-5.2083,-5.2543,-5.328,-5.3939,-5.4418,-5.5256,-5.5758,-5.5725,-5.5682,-5.5657,-5.5625,-5.4791,-5.3913,-5.3041,-5.2136,-5.1483,-5.1101,-5.0998,-5.0917,-5.0833,-5.0764,-5.072,-5.0692,-5.0615,-5.0575,-5.0497,0.0,-4.9154,-4.9013,-4.8154,-4.7514,-4.7114,-4.7027,-4.672,-4.6234,-4.5716,-4.541,-4.518,0.0,0.0,0.0,0.0,0.0,0.0,0.0,0.0,0.0,0.0,0.0,0.0,0.0,0.0,0.0,0.0,0.0,0.0,0.0,0.0,0.0,-3.5994,-3.5996,-3.5915,-3.5725,-3.5763,-3.5612,-3.5238,-3.4945,-3.4411,-3.3663,-3.3409,-3.3002,-3.2507,-3.2039,-3.1626,-3.1195,-3.038,-2.973,-2.9327,-2.9855,-3.0502,-3.1335,0.0,0.0,-3.4788,-3.6219,-3.7164,-3.7739,-3.8,-3.8356,-3.8847,-3.9822,-4.0444,-4.0843,-4.1129,-4.1249,-4.1185,-4.0652,-4.0513,-4.0534,-4.0661,-4.2028,-4.3355,-4.3476,-4.4807,-4.6056,-4.6181,-4.6208,-4.6479,-4.7333,-4.8203,-4.909,-4.9951,-5.0829,-5.1394,-5.1394,-5.2158,-5.2717,-5.2779,-5.4219,-5.5244,-5.5357,-5.6059,-5.6507,-5.6507,-5.6446,-5.6403,-5.6397,-5.5579,-5.4649,-5.3664,-5.2838,-5.1994,-5.1114,-5.1041,-5.0978,-5.0906,-5.0905,-5.0872,-5.081,-5.0738,-5.0692,-5.0568,-4.9586,-4.9123,-4.8977,-4.7986,-4.7099,-4.6347,-4.6331,-4.5769,-4.4931,-4.4919,-4.4833,-4.4725,0.0,0.0,0.0,0.0,0.0,0.0,0.0,0.0,0.0,0.0,0.0,0.0,0.0,0.0,0.0,0.0,0.0,0.0,0.0,0.0,0.0,0.0,-3.5941,-3.5571,-3.4842,-3.5417,-3.5282,-3.4404,-3.4737,-3.4588,-3.4,-3.3408,-3.2996,-3.2745,-3.2598,-3.2366,-3.2084,-3.1929,-3.1591,-3.1239,-3.1459,-3.208,-3.3023,0.0,0.0,0.0,-3.6646,-3.7272,-3.7739,-3.8,-3.8787,-3.9745,-4.0211,-4.0994,-4.1812,-4.2139,-4.1825,-4.1408,-4.1513,-4.1058,-4.0595,-4.0688,-4.2094,-4.3476,-4.3496,-4.4889,-4.6181,-4.6208,-4.6206,-4.6479,-4.7332,-4.8212,-4.909,-4.9951,-5.0829,-5.1394,-5.1394,-5.2158,-5.2938,-5.3595,-5.459,-5.5477,-5.6196,-5.641,-5.6504,-5.6507,-5.6483,-5.645,-5.6407,-5.5565,-5.4368,-5.2781,-5.258,-5.2041,-5.1107,-5.1095,-5.1049,-5.0978,-5.0933,-5.0885,-5.0891,-5.081,-5.0784,-5.0678,-4.9083,0.0,-4.8164,-4.657,-4.5784,-4.5598,-4.5536,-4.5358,-4.5136,-4.5014,-4.4931,-4.4865,0.0,0.0,0.0,0.0,0.0,0.0,0.0,0.0,0.0,0.0,-3.3175,0.0,0.0,0.0,0.0,0.0,0.0,0.0,0.0,0.0,0.0,0.0,0.0,0.0,-3.3935,-3.4205,-3.4281,-3.4154,0.0,-3.431,-3.4235,-3.37,-3.346,-3.3459,-3.3118,-3.319,-3.3524,-3.3282,-3.3181,-3.3198,-3.3265,-3.3649,0.0,0.0,0.0,0.0,-3.6998,-3.7447,-3.7828,-3.8017,-3.8913,-4.0018,-4.0793,-4.1465,-4.2152,-4.2905,-4.2661,-4.2078,-4.1868,-4.1249,-4.0784,-4.1341,-4.2498,-4.3627,-4.4111,-4.5243,-4.6208,-4.6209,-4.6231,-4.6501,-4.7345,-4.8211,-4.9094,-4.9952,-5.083,-5.1396,-5.1396,-5.255,-5.3523,-5.3903,-5.5093,-5.6043,-5.6452,-5.6507,-5.65,-5.6504,-5.65,-5.6492,-5.645,-5.558,-5.4514,-5.322,-5.2743,-5.2075,-5.1167,-5.1119,-5.1076,-5.1049,-5.0986,-5.0948,-5.0945,-5.088,-5.0855,-5.075,-4.9009,-4.8214,-4.8016,-4.6269,-4.5514,-4.5438,-4.5379,-4.5307,-4.5235,-4.5148,-4.5045,-4.4931,0.0,0.0,0.0,0.0,0.0,0.0,0.0,-3.2241,-3.2684,-3.3555,-3.4443,-3.4715,-3.403,-3.4579,0.0,0.0,0.0,0.0,0.0,0.0,0.0,0.0,0.0,0.0,-3.3017,0.0,0.0,-3.3846,-3.3826,0.0,0.0,0.0,0.0,0.0,-3.3677,-3.3984,-3.4812,-3.4544,-3.468,0.0,0.0,-3.516,-3.5335,0.0,0.0,0.0,0.0,-3.7576,-3.7916,-3.8035,-3.8753,-3.98,-4.093,-4.1619,-4.219,-4.3156,-4.3008,-4.2469,-4.2183,-4.1563,-4.124,-4.2227,-4.3122,-4.3981,-4.4721,-4.5569,-4.619,-4.6212,-4.6253,-4.6483,-4.7129,-4.8115,-4.9057,-4.9721,-5.0717,-5.1478,-5.1652,-5.3018,-5.4068,-5.427,-5.5614,-5.6525,-5.6511,-5.6508,-5.6501,-5.65,-5.65,-5.6492,-5.6507,-5.5808,-5.4995,-5.4139,-5.3239,-5.2378,-5.1502,-5.125,-5.1119,-5.1108,-5.1042,-5.1027,-5.1012,-5.0945,-5.0932,-5.0827,-4.9059,-4.8265,0.0,-4.6341,-4.5577,-4.5495,-4.5419,-4.5369,-4.5307,-4.5224,-4.5136,-4.5026,0.0,0.0,0.0,0.0,0.0,0.0,0.0,-3.2723,-3.3598,-3.4468,-3.5344,-3.5851,-3.5775,-3.5834,0.0,0.0,0.0,0.0,0.0,0.0,0.0,0.0,0.0,0.0,0.0,0.0,0.0,-3.3018,-3.3597,0.0,0.0,0.0,0.0,0.0,0.0,-3.4754,-3.5272,-3.5651,0.0,0.0,0.0,0.0,0.0,0.0,0.0,0.0,0.0,-3.7613,-3.7916,-3.7984,-3.829,-3.8826,-3.9971,-4.1092,-4.2071,-4.2481,-4.2142,-4.1835,-4.2818,-4.2531,-4.2199,-4.3146,-4.4035,-4.472,-4.486,-4.5566,-4.6212,-4.6277,-4.6292,-4.6321,-4.6407,-4.7761,-4.8916,-4.8994,-5.0342,-5.1688,-5.2462,-5.3398,-5.4293,-5.5083,-5.6018,-5.658,-5.6506,-5.6506,-5.6497,-5.6501,-5.6501,-5.6507,-5.6507,-5.6425,-5.5976,-5.5095,-5.4177,-5.3292,-5.247,-5.1624,-5.1153,-5.1099,-5.1082,-5.1089,-5.1094,-5.1012,-5.0998,-5.0894,-4.9077,-4.8306,0.0,-4.6403,-4.5622,-4.5495,-4.5419,-4.5409,-4.5388,-4.5254,-4.5192,-4.5159,0.0,0.0,0.0,0.0,0.0,0.0,0.0,-3.2768,-3.3646,-3.4528,-3.5399,-3.5942,-3.5931,-3.5945,0.0,0.0,0.0,0.0,0.0,0.0,0.0,0.0,0.0,0.0,0.0,0.0,-3.2429,-3.2896,-3.3567,0.0,0.0,0.0,0.0,0.0,0.0,-3.4968,-3.5906,-3.6017,0.0,0.0,0.0,0.0,0.0,0.0,0.0,0.0,0.0,0.0,-3.7792,-3.7949,-3.8203,-3.8549,-3.9217,-3.9891,-4.071,-4.2094,-4.2047,-4.1805,-4.2899,-4.2654,-4.2446,-4.3928,-4.4567,-4.4997,-4.5563,-4.5981,-4.6275,-4.6292,-4.6302,-4.6291,-4.6297,-4.7725,-4.8898,-4.8898,-5.0305,-5.169,-5.2586,-5.3445,-5.4324,-5.52,-5.6073,-5.6595,-5.655,-5.6563,-5.6533,-5.65,-5.6508,-5.6498,-5.6503,-5.6508,-5.6106,-5.5232,-5.4331,-5.3442,-5.2615,-5.1716,-5.124,-5.1153,-5.1119,-5.1108,-5.1095,-5.1074,-5.1046,-5.0928,-4.9679,-4.8814,0.0,-4.6973,-4.6144,-4.5622,-4.5504,-4.5438,-4.538,-4.5348,-4.5275,-4.5181,0.0,0.0,0.0,0.0,0.0,0.0,-3.1802,-3.2703,-3.3587,-3.4458,-3.5327,-3.5868,-3.5862,-3.5868,-3.5864,-3.5872,0.0,0.0,0.0,0.0,0.0,0.0,0.0,0.0,0.0,0.0,-3.2391,-3.3233,-3.37,-3.4304,0.0,0.0,-3.4884,-3.4947,0.0,0.0,0.0,0.0,0.0,0.0,0.0,0.0,0.0,0.0,0.0,0.0,0.0,0.0,0.0,0.0,0.0,-3.8433,-3.8758,-3.9101,-3.9677,-4.1279,-4.1483,-4.1447,-4.2514,-4.2647,-4.2867,-4.4419,-4.5036,-4.5448,-4.6066,-4.6253,-4.6292,-4.6303,-4.6293,-4.6378,-4.6635,-4.7905,-4.898,-4.9234,-5.0464,-5.1792,-5.2924,-5.3608,-5.4427,-5.5559,-5.6238,-5.6605,-5.6605,-5.6596,-5.6586,-5.6533,-5.6523,-5.6514,-5.6491,-5.6498,-5.6227,-5.5595,-5.4484,-5.3619,-5.2994,-5.1856,-5.1273,-5.1234,-5.1159,-5.1125,-5.1126,-5.1121,-5.1074,-5.0981,-5.0083,-4.9168,0.0,-4.738,-4.6502,-4.5693,-4.5577,-4.5495,-4.5438,-4.5409,-4.5338,-4.5254,0.0,0.0,0.0,0.0,0.0,0.0,0.0,-3.2608,-3.3505,-3.44,-3.5255,-3.5795,-3.5795,-3.5797,-3.5803,-3.5803,0.0,0.0,0.0,0.0,0.0,0.0,0.0,0.0,0.0,0.0,-3.3255,-3.3995,-3.3995,-3.4372,-3.5092,-3.502,-3.5353,-3.5975,0.0,0.0,0.0,0.0,0.0,0.0,0.0,0.0,0.0,0.0,0.0,0.0,0.0,0.0,0.0,0.0,0.0,0.0,0.0,-3.9031,-3.9389,-3.9792,-4.012,-4.0551,-4.1624,-4.2627,-4.3612,-4.4558,-4.5508,-4.6187,-4.6201,-4.6247,-4.6303,-4.6291,-4.6302,-4.6561,-4.7439,-4.83,-4.918,-5.0058,-5.0879,-5.2011,-5.3748,-5.3982,-5.4644,-5.6378,-5.6593,-5.6593,-5.6593,-5.6606,-5.6596,-5.6606,-5.6604,-5.656,-5.6509,-5.6506,-5.6491,-5.6496,-5.48,-5.3892,-5.3888,-5.2176,-5.131,-5.1306,-5.124,-5.1189,-5.1208,-5.1126,-5.1095,-5.1055,-5.0116,-4.9168,0.0,-4.743,-4.6553,-4.5693,-4.5631,-4.5559,-4.5485,-4.5429,-4.5408,-4.5388,0.0,0.0,0.0,0.0,0.0,0.0,0.0,-3.1597,-3.2498,-3.3416,-3.4293,-3.5073,-3.5669,-3.5722,-3.5732,-3.5733,0.0,0.0,0.0,0.0,0.0,0.0,0.0,0.0,0.0,0.0,-3.3801,-3.3995,-3.4552,-3.4914,-3.5111,-3.5637,-3.5951,-3.6086,-3.6597,-3.731,0.0,0.0,0.0,0.0,0.0,0.0,-3.8223,0.0,0.0,0.0,0.0,0.0,0.0,0.0,0.0,0.0,0.0,0.0,0.0,-3.9647,-4.0011,-4.0539,-4.16,-4.2209,-4.2884,-4.4418,-4.506,-4.5469,-4.6064,-4.6251,-4.6291,-4.6299,-4.6304,-4.6561,-4.7441,-4.8301,-4.9199,-5.0058,-5.1367,-5.2695,-5.3847,-5.4511,-5.5312,-5.6464,-5.6599,-5.6597,-5.6593,-5.6591,-5.6606,-5.6598,-5.6596,-5.6593,-5.656,-5.656,-5.6274,-5.5636,-5.4495,-5.3607,-5.3015,-5.1865,-5.1304,-5.131,-5.1273,-5.1249,-5.1189,-5.1173,-5.1132,-5.1076,-5.079,-4.9819,0.0,-4.8064,-4.7067,-4.5762,-4.569,-4.5631,-4.5559,-4.5438,-4.54,-4.5388,0.0,0.0,0.0,0.0,0.0,0.0,0.0,-3.1083,-3.1879,-3.2487,-3.3599,-3.4538,-3.5106,-3.5474,-3.5662,-3.5665,0.0,0.0,0.0,0.0,0.0,0.0,0.0,0.0,0.0,-3.4582,-3.4523,-3.445,-3.4947,-3.5327,-3.5568,-3.6074,-3.6567,-3.7062,-3.7538,-3.8093,0.0,0.0,0.0,0.0,0.0,0.0,-3.8352,0.0,0.0,0.0,0.0,0.0,0.0,0.0,0.0,0.0,0.0,0.0,0.0,0.0,-3.9908,-4.0384,-4.117,-4.1738,-4.2388,-4.3529,-4.4359,-4.5046,-4.5599,-4.6025,-4.6297,-4.6301,-4.6306,-4.6679,-4.7871,-4.8535,-4.9277,-5.0469,-5.1796,-5.3007,-5.3885,-5.4745,-5.5624,-5.6503,-5.6601,-5.66,-5.6596,-5.6596,-5.6594,-5.6606,-5.6606,-5.6603,-5.6598,-5.6282,-5.5689,-5.4774,-5.4228,-5.3507,-5.2616,-5.1748,-5.1304,-5.13,-5.1295,-5.1273,-5.124,-5.12,-5.1167,-5.1094,-5.1095,-5.028,0.0,-4.8534,-4.755,-4.6244,-4.5846,-4.5682,-4.5631,-4.5495,-4.5419,-4.538,0.0,0.0,0.0,0.0,0.0,0.0,0.0,0.0,0.0,0.0,0.0,-3.4147,-3.4274,-3.5071,0.0,0.0,0.0,0.0,0.0,0.0,0.0,0.0,0.0,0.0,-3.5308,-3.5308,-3.5269,-3.5209,-3.5255,-3.5632,-3.6301,-3.6426,-3.7221,-3.8612,-3.8595,-3.8926,0.0,0.0,0.0,0.0,0.0,0.0,0.0,0.0,0.0,0.0,0.0,0.0,0.0,0.0,0.0,0.0,0.0,0.0,0.0,0.0,0.0,0.0,0.0,-4.1242,-4.2031,-4.2174,-4.3463,-4.4746,-4.488,-4.5579,0.0,-4.6282,-4.6346,-4.6914,-4.8594,-4.8945,-4.9531,-5.1229,-5.2224,-5.3102,-5.3977,-5.4835,-5.5696,-5.6501,-5.6601,-5.6601,-5.66,-5.66,-5.6598,-5.6594,-5.6593,-5.6573,-5.6515,-5.5748,-5.4865,-5.3946,-5.391,-5.3457,-5.2526,-5.1704,-5.1303,-5.13,-5.1304,-5.1291,-5.1306,-5.124,-5.1178,0.0,-5.1094,0.0,0.0,-4.8836,-4.7942,-4.7005,-4.6078,-4.5703,-4.5673,-4.554,-4.5457,-4.54,0.0,0.0,0.0,0.0,0.0,0.0,0.0,0.0,0.0,0.0,0.0,-3.3474,-3.4148,-3.4963,0.0,0.0,0.0,0.0,0.0,0.0,0.0,0.0,0.0,0.0,-3.53,-3.5293,-3.5269,-3.5209,-3.5774,-3.6129,-3.632,-3.7555,-3.8329,-3.8696,-3.9203,-3.9449,0.0,0.0,0.0,0.0,0.0,0.0,0.0,0.0,0.0,0.0,-3.6222,-3.5734,0.0,0.0,0.0,0.0,0.0,0.0,0.0,0.0,-3.8724,-3.9164,-4.0096,0.0,-4.1224,-4.199,-4.2556,-4.3253,0.0,-4.5111,-4.5481,-4.6165,-4.6834,-4.7617,-4.8691,-4.9432,-5.0448,-5.2124,-5.3138,-5.3997,-5.4874,-5.5734,-5.6378,-5.6575,-5.6598,-5.66,-5.6601,-5.6601,-5.6601,-5.6598,-5.6598,-5.6304,-5.5636,-5.5419,-5.4596,-5.3048,-5.3004,-5.2583,-5.1681,-5.1472,-5.1343,-5.1307,-5.13,-5.1304,-5.131,-5.1278,-5.1249,-5.1178,-5.1125,0.0,-4.9718,-4.8845,-4.7977,-4.7085,-4.6151,-4.575,-4.5684,-4.5612,-4.5522,-4.5467,0.0,0.0,0.0,0.0,0.0,0.0,0.0,0.0,0.0,0.0,0.0,0.0,0.0,0.0,0.0,0.0,0.0,0.0,0.0,0.0,0.0,0.0,0.0,-3.5289,-3.5312,-3.5272,-3.5248,-3.5209,-3.5936,-3.6501,-3.691,-3.8173,-3.8938,-3.9267,-3.9581,-3.9618,0.0,0.0,0.0,0.0,-3.8974,0.0,0.0,0.0,0.0,0.0,-3.554,-3.4844,0.0,-3.4316,-3.4316,-3.4451,0.0,0.0,0.0,0.0,-3.8009,-3.8719,-3.9489,-4.0173,-4.0803,-4.1412,-4.2205,-4.3111,-4.4086,-4.4969,-4.5732,-4.6204,-4.6991,-4.7871,-4.8748,-4.9587,-5.0717,-5.241,-5.3426,-5.444,-5.5725,-5.6292,-5.6607,-5.6607,-5.6594,-5.6597,-5.6597,-5.6599,-5.6601,-5.6601,-5.623,-5.58,-5.5329,-5.4547,-5.3665,-5.2726,-5.2313,-5.1872,-5.1399,-5.1391,-5.1378,-5.1343,-5.1317,-5.1303,-5.13,-5.13,-5.1273,-5.1245,-5.1164,0.0,-5.0305,-4.9065,-4.8251,-4.7668,-4.6322,-4.5788,-4.5743,-4.5673,-4.5594,-4.5522,0.0,0.0,0.0,0.0,0.0,0.0,0.0,0.0,0.0,0.0,0.0,0.0,0.0,0.0,0.0,0.0,0.0,0.0,0.0,0.0,0.0,0.0,0.0,-3.5288,-3.5261,-3.5206,-3.5189,-3.5193,-3.5928,-3.6748,-3.7633,-3.8431,-3.9187,-3.9878,-3.9758,-3.9654,0.0,-3.9508,-3.9367,-3.9161,-3.9115,0.0,0.0,0.0,0.0,0.0,0.0,0.0,0.0,-3.3042,-3.3011,-3.3152,-3.4037,0.0,0.0,0.0,0.0,0.0,-3.8776,-3.9624,-4.0421,-4.0734,-4.2063,-4.3374,-4.3565,-4.4903,-4.6178,-4.6437,-4.7187,-4.8064,-4.8923,-4.974,-5.0868,-5.2617,-5.3728,-5.4896,-5.6387,-5.6589,-5.6575,-5.6575,-5.6585,-5.657,-5.657,-5.6475,-5.64,-5.6403,-5.5583,-5.5037,-5.4902,-5.3496,-5.2636,-5.2518,-5.1792,-5.1393,-5.1406,-5.1406,-5.1396,-5.1397,-5.1346,-5.1317,-5.1291,-5.1296,-5.1295,-5.1306,0.0,0.0,-5.0794,-4.9237,-4.849,-4.8153,-4.6466,-4.5812,-4.5788,-4.5722,-4.5665,-4.5586,0.0,0.0,0.0,0.0,0.0,0.0,0.0,0.0,0.0,0.0,0.0,0.0,0.0,0.0,0.0,0.0,0.0,0.0,0.0,0.0,0.0,-3.5136,-3.5181,-3.5181,-3.5127,-3.511,-3.5147,-3.5189,-3.5938,-3.6786,-3.7699,-3.8441,-3.9166,-3.9815,-3.9792,-3.9743,-3.9662,-3.9564,-3.9477,-3.9412,-3.9202,0.0,0.0,0.0,0.0,0.0,0.0,0.0,0.0,-3.3135,-3.3057,-3.3062,-3.3376,0.0,0.0,0.0,0.0,0.0,-3.8205,-3.8956,-3.9488,-4.0537,-4.165,-4.2689,-4.3428,-4.4432,-4.5611,-4.7101,-4.8086,-4.8943,-4.9779,-5.0614,-5.1779,-5.3526,-5.5096,-5.6216,-5.6475,-5.6514,-5.6514,-5.6514,-5.6519,-5.6513,-5.6513,-5.5903,-5.55,-5.5501,-5.4681,-5.388,-5.3139,-5.2849,-5.2363,-5.1621,-5.1464,-5.1402,-5.1394,-5.1408,-5.1396,-5.1394,-5.1394,-5.1361,-5.1294,-5.1307,-5.1304,-5.131,0.0,-5.0821,-5.0012,-4.9013,-4.8163,-4.7384,-4.63,-4.5847,-4.5786,-4.5723,-4.5687,-4.5648,0.0,0.0,0.0,0.0,0.0,0.0,0.0,0.0,0.0,0.0,0.0,0.0,0.0,0.0,0.0,0.0,0.0,0.0,0.0,0.0,0.0,-3.5057,-3.5075,-3.5092,-3.5092,-3.5066,-3.5092,-3.52,-3.5929,-3.6786,-3.7727,-3.8907,-3.9604,-3.9892,-3.9826,-3.977,-3.975,-3.9656,-3.9583,-3.9489,0.0,0.0,0.0,0.0,0.0,0.0,0.0,0.0,0.0,0.0,-3.3024,-3.2963,-3.3091,0.0,0.0,0.0,0.0,0.0,-3.7424,-3.8404,-3.9257,-4.037,-4.1776,-4.3013,-4.3487,-4.4658,-4.6017,-4.7336,-4.8281,-4.9155,-4.9953,-5.0801,-5.1956,-5.366,-5.4998,-5.5964,-5.6426,-5.6501,-5.6501,-5.6501,-5.6088,-5.5803,-5.5803,-5.5062,-5.4605,-5.4591,-5.3794,-5.3113,-5.2726,-5.2241,-5.1814,-5.1406,-5.1406,-5.1406,-5.1402,-5.1401,-5.1394,-5.1396,-5.1406,-5.1372,-5.1358,-5.132,-5.1303,-5.1265,0.0,-5.0343,-4.9849,-4.8506,-4.7692,-4.7212,-4.6317,-4.5899,-4.584,-4.5746,-4.5687,-4.5631,0.0,0.0,0.0,0.0,0.0,0.0,0.0,0.0,0.0,0.0,0.0,0.0,0.0,0.0,0.0,0.0,0.0,0.0,0.0,0.0,-3.503,-3.4983,-3.4983,-3.5001,-3.5057,-3.5001,-3.5029,-3.5183,-3.5738,-3.6595,-3.7727,-3.9307,-4.0017,-3.9996,-3.9881,-3.9826,-3.9792,-3.9738,-3.9656,-3.9545,0.0,0.0,0.0,0.0,0.0,0.0,0.0,0.0,0.0,0.0,0.0,0.0,0.0,0.0,0.0,-3.3587,-3.4331,-3.5361,-3.6784,-3.7896,-3.8934,-4.0192,-4.1964,-4.3437,-4.3564,-4.4941,-4.6521,-4.7649,-4.8418,-4.9209,-5.0222,-5.1121,-5.211,-5.3381,-5.433,-5.5126,-5.5782,-5.5876,-5.5872,-5.5872,-5.5298,-5.4895,-5.4895,-5.4173,-5.3701,-5.3691,-5.2897,-5.2399,-5.2408,-5.1765,-5.1397,-5.1402,-5.1403,-5.1405,-5.1406,-5.1405,-5.1402,-5.1409,-5.1394,-5.1403,-5.1399,-5.1355,-5.1206,-5.0986,-5.0307,-4.978,-4.9309,-4.7961,-4.7262,-4.6954,-4.6266,-4.5962,-4.5854,-4.5746,-4.5679,-4.5594,0.0,0.0,0.0,0.0,0.0,0.0,0.0,0.0,0.0,0.0,0.0,0.0,0.0,0.0,0.0,0.0,0.0,0.0,0.0,0.0,-3.4907,-3.4908,-3.4917,-3.4917,-3.4917,-3.4917,-3.4964,-3.512,-3.515,-3.6052,-3.7746,-3.9404,-4.0118,-3.9996,-3.9986,-3.9922,-3.9804,-3.9792,-3.9743,-3.9662,-3.9545,0.0,0.0,0.0,0.0,0.0,0.0,0.0,0.0,0.0,0.0,0.0,0.0,0.0,-3.3178,-3.3502,-3.3803,-3.4461,-3.6541,-3.7303,-3.7995,-4.0002,-4.1964,-4.3437,-4.3569,-4.4955,-4.6679,-4.8375,-4.8808,-4.9383,-5.101,-5.2021,-5.2623,-5.2682,-5.3424,-5.3989,-5.3987,-5.3984,-5.3984,-5.3984,-5.3992,-5.3997,-5.3997,-5.3273,-5.2785,-5.2785,-5.1985,-5.1483,-5.1499,-5.1431,-5.1402,-5.1391,-5.1396,-5.1402,-5.1405,-5.1406,-5.1404,-5.1409,-5.1408,-5.1398,-5.1399,-5.1396,-5.0959,-5.0185,-5.0124,-4.9172,-4.7673,-4.7478,-4.6915,-4.6173,-4.6046,-4.5923,-4.58,-4.5739,-4.5695,-4.5665,0.0,0.0,0.0,0.0,0.0,0.0,0.0,0.0,0.0,0.0,0.0,0.0,0.0,0.0,0.0,0.0,0.0,0.0,0.0,-3.4848,-3.4868,-3.4898,-3.4898,-3.4898,-3.4908,-3.4908,-3.4945,-3.5048,-3.6166,-3.705,-3.7743,-3.9376,-4.0098,-4.0057,-3.9984,-3.9911,-3.9867,-3.977,-3.9712,-3.9703,-3.9607,-3.9514,0.0,0.0,0.0,0.0,0.0,0.0,0.0,0.0,-3.3122,-3.2979,-3.2948,-3.2979,-3.3088,-3.3334,-3.3601,-3.4289,-3.6292,-3.7115,-3.787,-3.983,-4.1846,-4.3375,-4.3561,-4.4947,-4.6692,-4.8434,-4.8846,-4.9419,-5.1086,-5.1648,-5.1996,-5.2528,-5.2886,-5.3262,-5.3721,-5.3803,-5.3798,-5.3798,-5.3332,-5.3034,-5.3034,-5.2294,-5.183,-5.183,-5.1557,-5.1397,-5.1403,-5.1408,-5.1399,-5.1392,-5.14,-5.1409,-5.1397,-5.1402,-5.1132,-5.0603,-5.1144,-5.1391,-5.138,-5.0846,-5.0406,-5.0042,-4.8953,-4.8119,-4.746,-4.6897,-4.6462,-4.6156,-4.6042,-4.5933,-4.5841,-4.5793,-4.5739,-4.5687,0.0,0.0,0.0,0.0,0.0,0.0,0.0,0.0,0.0,0.0,0.0,0.0,0.0,0.0,0.0,0.0,0.0,0.0,-3.4391,-3.4636,-3.4788,-3.4868,-3.4887,-3.4907,-3.4908,-3.4898,-3.4936,-3.5001,-3.6786,-3.7679,-3.7706,-3.9347,-4.0096,-4.0067,-3.9965,-3.9922,-3.9889,-3.977,-3.9712,-3.9708,-3.965,-3.9546,0.0,0.0,0.0,0.0,0.0,0.0,0.0,0.0,-3.3168,-3.3011,-3.2932,-3.2932,-3.3013,-3.3232,-3.3477,-3.4142,-3.6152,-3.6989,-3.7769,-3.9729,-4.1739,-4.3286,-4.3484,-4.4913,-4.6688,-4.8434,-4.9274,-5.0048,-5.1185,-5.1353,-5.1499,-5.2094,-5.2173,-5.2349,-5.2893,-5.2955,-5.2944,-5.2944,-5.2425,-5.206,-5.206,-5.158,-5.128,-5.128,-5.1308,-5.1346,-5.1379,-5.1379,-5.1388,-5.1391,-5.1399,-5.1275,-5.0995,-5.0981,-5.056,-4.9726,-5.0331,-5.062,-5.0592,-4.9978,-4.956,-4.9239,-4.8033,-4.7335,-4.7047,-4.6447,-4.6189,-4.6154,-4.6047,-4.5964,-4.588,-4.5815,-4.5757,-4.5692,0.0,0.0,0.0,0.0,0.0,0.0,0.0,0.0,0.0,0.0,0.0,0.0,0.0,0.0,0.0,0.0,0.0,0.0,-3.3491,-3.4235,-3.4718,-3.4788,-3.4868,-3.4897,-3.4897,-3.4898,-3.4936,-3.5001,-3.6739,-3.7605,-3.7643,-3.9307,-4.0057,-3.9996,-3.9996,-3.9954,-3.9889,-3.9826,-3.9758,-3.9689,-3.9698,-3.9583,-3.9405,0.0,0.0,0.0,0.0,0.0,0.0,0.0,-3.3214,-3.307,-3.293,-3.29,-3.2948,-3.3216,-3.3378,-3.3966,-3.6112,-3.6876,-3.7596,-3.9671,-4.1665,-4.3159,-4.3349,-4.4848,-4.6688,-4.8435,-5.0178,-5.1375,-5.1375,-5.1312,-5.1291,-5.1291,-5.123,-5.1189,-5.1189,-5.1138,-5.1095,-5.1095,-5.1101,-5.1099,-5.108,-5.1155,-5.1186,-5.1186,-5.1191,-5.121,-5.1277,-5.13,-5.1319,-5.1391,-5.1394,-5.0979,-5.0106,-5.0088,-4.9687,-4.89,-4.8884,-4.8887,-4.8898,-4.8814,-4.8341,-4.7598,-4.7522,-4.6999,-4.6206,-4.6192,-4.6153,-4.6093,-4.6022,-4.5964,-4.588,-4.5834,-4.5757,-4.57,0.0,0.0,0.0,0.0,0.0,0.0,0.0,0.0,0.0,0.0,0.0,0.0,0.0,0.0,0.0,0.0,0.0,0.0,-3.3312,-3.3585,-3.4022,-3.4699,-3.4747,-3.4778,-3.4838,-3.4829,-3.4879,-3.5001,-3.6711,-3.7547,-3.7633,-3.9277,-3.9986,-3.9922,-3.987,-3.9815,-3.9766,-3.9738,-3.9722,-3.9686,-3.9596,-3.9495,-3.9391,0.0,0.0,0.0,0.0,0.0,0.0,0.0,0.0,0.0,-3.293,-3.29,-3.2932,-3.3104,-3.3316,-3.3941,-3.5929,-3.6795,-3.7581,-3.9502,-4.153,-4.3088,-4.3346,-4.4845,-4.6538,-4.7714,-4.8829,-4.9572,-4.9561,-4.9519,-4.9666,-5.0291,-5.0324,-5.0476,-5.1054,-5.1108,-5.1095,-5.1095,-5.1101,-5.0856,-5.0242,-5.0207,-4.9984,-4.9404,-4.9367,-4.9664,-5.0339,-5.0382,-5.0659,-5.1233,-5.072,-5.029,-5.003,-4.9469,-4.8769,-4.7928,-4.791,-4.8256,-4.8886,-4.8239,-4.7824,-4.756,-4.6931,-4.6511,-4.6277,-4.6215,-4.6153,-4.6093,-4.608,-4.6032,-4.596,-4.5899,-4.5834,-4.5764,0.0,0.0,0.0,0.0,0.0,0.0,0.0,0.0,0.0,0.0,0.0,0.0,0.0,0.0,0.0,0.0,0.0,0.0,0.0,-3.3109,-3.3695,-3.4586,-3.4666,-3.4737,-3.4798,-3.4798,-3.4839,-3.4917,-3.6243,-3.7087,-3.7516,-3.8793,-3.9556,-3.9823,-3.9781,-3.9735,-3.9689,-3.9637,-3.9619,-3.9607,-3.9502,-3.9399,-3.9277,0.0,0.0,0.0,0.0,0.0,0.0,0.0,0.0,0.0,-3.293,-3.29,-3.2932,-3.3055,-3.3271,-3.3898,-3.5864,-3.6706,-3.7483,-3.9426,-4.1437,-4.322,-4.4245,-4.5639,-4.6884,-4.748,-4.8242,-4.8794,-4.88,-4.8752,-4.885,-4.9367,-4.9418,-4.9547,-4.9996,-5.0073,-5.0072,-5.0072,-5.0072,-4.9859,-4.9336,-4.9272,-4.9071,-4.8604,-4.8569,-4.883,-4.9411,-4.9435,-4.9673,-5.0199,-4.9744,-4.9336,-4.9001,-4.8539,-4.7842,-4.6989,-4.7018,-4.7326,-4.7847,-4.7324,-4.7087,-4.7044,-4.6528,-4.6278,-4.6258,-4.6215,-4.6176,-4.6149,-4.6122,-4.5862,-4.5523,-4.5458,-4.517,-4.4806,0.0,0.0,0.0,0.0,0.0,0.0,0.0,0.0,0.0,0.0,-2.8905,0.0,0.0,0.0,0.0,0.0,0.0,0.0,0.0,0.0,-3.3559,-3.4458,-3.4623,-3.4727,-3.4778,-3.4778,-3.4768,-3.4768,-3.56,-3.6421,-3.7203,-3.8014,-3.8758,-3.9451,-3.9451,-3.9451,-3.9439,-3.9313,-3.9264,-3.9252,-3.9182,-3.9091,-3.8899,-3.8173,0.0,0.0,0.0,0.0,0.0,0.0,0.0,0.0,-3.293,-3.29,-3.2932,-3.3055,-3.3241,-3.3844,-3.5854,-3.6642,-3.7389,-3.938,-4.1428,-4.3493,-4.5599,-4.6752,-4.7392,-4.7461,-4.8068,-4.8562,-4.8566,-4.8507,-4.8477,-4.8487,-4.8477,-4.8483,-4.8509,-4.8482,-4.8474,-4.8474,-4.8474,-4.8454,-4.8377,-4.8353,-4.8335,-4.8264,-4.8244,-4.8315,-4.8472,-4.8472,-4.8538,-4.8672,-4.8618,-4.8213,-4.749,-4.7416,-4.6969,-4.6203,-4.6267,-4.6296,-4.63,-4.6306,-4.6308,-4.6308,-4.6295,-4.6251,-4.6206,-4.6192,-4.6148,-4.6068,-4.6009,-4.5444,-4.4671,-4.461,-4.4047,-4.3305,0.0,0.0,0.0,0.0,0.0,0.0,0.0,0.0,0.0,0.0,0.0,0.0,0.0,0.0,0.0,0.0,0.0,0.0,0.0,0.0,-3.2903,-3.442,-3.4591,-3.4634,-3.4645,-3.4583,-3.4561,-3.4561,-3.5528,-3.6101,-3.6308,-3.7157,-3.7585,-3.7652,-3.7652,-3.7606,-3.7491,-3.7467,-3.7455,-3.7442,-3.7393,-3.7342,-3.7298,-3.7007,-3.6353,0.0,0.0,0.0,0.0,0.0,0.0,0.0,-3.293,-3.29,-3.2932,-3.3055,-3.3241,-3.3844,-3.5797,-3.6615,-3.7365,-3.9324,-4.153,-4.3718,-4.5595,-4.6252,-4.65,-4.6562,-4.6689,-4.6759,-4.6757,-4.6699,-4.6863,-4.7476,-4.7542,-4.7727,-4.8405,-4.8406,-4.8342,-4.8342,-4.833,-4.8063,-4.7388,-4.7318,-4.7071,-4.6424,-4.6375,-4.6719,-4.7456,-4.7501,-4.7817,-4.8514,-4.7933,-4.7514,-4.7335,-4.6716,-4.6325,0.0,-4.6216,-4.6259,-4.631,-4.6301,-4.6308,-4.6304,-4.6295,-4.6257,-4.6206,-4.6203,-4.5806,-4.5173,-4.5114,-4.4558,-4.3763,-4.371,-4.3554,-4.3349,0.0,0.0,0.0,0.0,0.0,0.0,0.0,0.0,0.0,0.0,0.0,0.0,0.0,0.0,0.0,0.0,0.0,0.0,0.0,0.0,-3.2653,-3.4375,-3.4484,-3.4506,-3.4506,-3.4473,-3.4461,-3.4461,-3.4993,-3.545,-3.5882,-3.6314,-3.6693,-3.7009,-3.7009,-3.6974,-3.6913,-3.6864,-3.6852,-3.6852,-3.6776,-3.6725,-3.6649,-3.6194,-3.5695,-3.5182,-3.4628,0.0,0.0,0.0,0.0,0.0,0.0,0.0,-3.2932,-3.3055,-3.3241,-3.3811,-3.5783,-3.6576,-3.7459,-3.9981,-4.1626,-4.3111,-4.4967,-4.5487,-4.5726,-4.6207,-4.6266,-4.6241,-4.6214,-4.6141,-4.6234,-4.661,-4.6618,-4.6739,-4.7149,-4.7144,-4.7094,-4.7051,-4.7047,-4.6885,-4.6422,-4.6383,-4.6198,-4.5777,-4.5761,-4.5977,-4.6503,-4.6538,-4.6758,-4.7243,-4.6847,-4.6649,-4.6676,-4.626,-4.587,-4.5527,-4.5565,-4.539,-4.5084,-4.5928,-4.6308,-4.6287,-4.5851,-4.5661,-4.5592,-4.5175,-4.4721,-4.4269,-4.4238,-4.3692,-4.2911,-4.2809,-4.2518,-4.2147,0.0,0.0,0.0,0.0,0.0,0.0,0.0,0.0,0.0,0.0,0.0,0.0,0.0,0.0,0.0,0.0,0.0,0.0,0.0,0.0,0.0,-3.4318,-3.4386,-3.4386,-3.4386,-3.4386,-3.4374,-3.4374,-3.4363,-3.4736,-3.5445,-3.5469,-3.5824,-3.644,-3.644,-3.644,-3.6428,-3.6373,-3.6348,-3.6354,-3.6272,-3.622,-3.6094,-3.5401,-3.5069,-3.4843,-3.3996,-3.3605,-3.3415,-3.3049,0.0,0.0,0.0,0.0,-3.2751,-3.3019,-3.3256,-3.3807,-3.5585,-3.6576,-3.7788,-4.0767,-4.1687,-4.2318,-4.4081,-4.4569,-4.4892,-4.5691,-4.6093,-4.6288,-4.6219,-4.6151,-4.6087,-4.6012,-4.5933,-4.5874,-4.5803,-4.5781,-4.5758,-4.5719,-4.5692,-4.5684,-4.5684,-4.5684,-4.5684,-4.5684,-4.5692,-4.5708,-4.5785,-4.5783,-4.5819,-4.5854,-4.5738,-4.5704,-4.5756,-4.5612,-4.5215,-4.4587,-4.4639,-4.4337,-4.3738,-4.5181,-4.5855,-4.5801,-4.5094,-4.4788,-4.4727,-4.4009,-4.3577,-4.3387,-4.3386,-4.2844,-4.2054,-4.1921,-4.1413,-4.0771,0.0,0.0,0.0,0.0,0.0,0.0,0.0,0.0,0.0,0.0,-2.8675,-2.8755,0.0,0.0,0.0,0.0,0.0,0.0,0.0,0.0,0.0,-3.4267,-3.4363,-3.4386,-3.4386,-3.434,-3.4305,-3.4305,-3.4257,-3.4277,-3.4401,-3.4526,-3.4605,-3.4652,-3.4652,-3.4616,-3.4568,-3.4556,-3.4544,-3.4544,-3.447,-3.4445,-3.4401,-3.4194,-3.4047,-3.3954,-3.3693,-3.352,-3.327,-3.2436,-3.2062,0.0,0.0,0.0,-3.2112,-3.2855,-3.3268,-3.3734,-3.4885,-3.6651,-3.872,-4.0949,-4.162,-4.2058,-4.328,-4.3677,-4.3833,-4.4004,-4.5254,-4.6276,-4.621,-4.6157,-4.6087,-4.6012,-4.5933,-4.5874,-4.5803,-4.5758,-4.5719,-4.5698,-4.5657,-4.5612,-4.5612,-4.5612,-4.5612,-4.5612,-4.5665,-4.569,-4.5717,-4.5719,-4.5723,-4.5731,-4.5102,-4.4769,-4.4782,-4.411,-4.3721,-4.3666,-4.3751,-4.3718,-4.3624,-4.3911,-4.4053,-4.4043,-4.3922,-4.3873,-4.3855,-4.3758,-4.3251,-4.2548,-4.2498,-4.1949,-4.1159,-4.1024,-4.0904,-4.0771,0.0,0.0,0.0,0.0,0.0,0.0,0.0,0.0,0.0,0.0,0.0,-2.8718,0.0,0.0,0.0,0.0,0.0,0.0,0.0,0.0,0.0,-3.3431,-3.3919,-3.4173,-3.4173,-3.4148,-3.4136,-3.4136,-3.4099,-3.4086,-3.4086,-3.4148,-3.4185,-3.4185,-3.4185,-3.4148,-3.4086,-3.4086,-3.4086,-3.4086,-3.4061,-3.4023,-3.3972,-3.3868,-3.3788,-3.3726,-3.3591,-3.3452,-3.3268,-3.2784,-3.2537,-3.2411,-3.238,0.0,0.0,0.0,-3.3301,-3.3759,-3.4947,-3.6453,-3.8033,-3.9545,-4.0132,-4.0718,-4.226,-4.2748,-4.302,-4.3531,-4.4289,-4.4979,-4.5436,-4.5465,-4.5578,-4.5998,-4.5964,-4.5874,-4.5803,-4.5731,-4.5684,-4.5648,-4.5622,-4.5594,-4.5594,-4.5568,-4.5358,-4.4916,-4.4849,-4.4638,-4.4166,-4.4196,-4.4237,-4.4237,-4.3959,-4.3824,-4.3872,-4.3518,-4.3158,-4.2777,-4.2338,-4.2149,-4.2156,-4.2219,-4.2776,-4.367,-4.3183,-4.298,-4.2928,-4.2434,-4.2025,-4.1658,-4.1597,-4.1338,-4.0988,-4.0883,-4.0833,-4.0796,0.0,0.0,0.0,0.0,0.0,0.0,0.0,0.0,0.0,0.0,0.0,0.0,0.0,0.0,0.0,0.0,0.0,0.0,0.0,0.0,0.0,-3.2761,-3.337,-3.3795,-3.3998,-3.3998,-3.3998,-3.3998,-3.3998,-3.3906,-3.3702,-3.3702,-3.3598,-3.3469,-3.3889,-3.4049,-3.3998,-3.3998,-3.3998,-3.3998,-3.3985,-3.3934,-3.3855,-3.3807,-3.3726,-3.3647,-3.3534,-3.3393,-3.3211,-3.2916,-3.2722,-3.2596,-3.2596,-3.2519,0.0,0.0,0.0,-3.3597,-3.5073,-3.6109,-3.7027,-3.8093,-3.8762,-3.953,-4.0997,-4.165,-4.2144,-4.2822,-4.3004,-4.33,-4.4177,-4.4643,-4.5152,-4.5963,-4.6,-4.5906,-4.5817,-4.5739,-4.5676,-4.564,-4.5622,-4.5594,-4.5594,-4.5358,-4.4938,-4.4342,-4.4028,-4.3579,-4.2936,-4.2988,-4.3049,-4.3049,-4.2911,-4.2871,-4.2909,-4.2737,-4.2361,-4.1845,-4.125,-4.0984,-4.1007,-4.1069,-4.1805,-4.2998,-4.2344,-4.2067,-4.2018,-4.1371,-4.1096,-4.1098,-4.1026,-4.0999,-4.0988,-4.0926,-4.0854,-4.0796,0.0,0.0,0.0,0.0,0.0,0.0,0.0,0.0,0.0,0.0,0.0,0.0,-2.8682,-2.8706,-2.8755,-2.8893,-2.8917,0.0,0.0,0.0,0.0,-3.2724,-3.2835,0.0,-3.3979,-3.3998,-3.3998,-3.3998,-3.3998,-3.361,-3.2853,-3.2853,-3.2422,-3.1691,-3.3302,-3.3998,-3.3998,-3.3998,-3.3998,-3.3998,-3.3934,-3.3855,-3.3807,-3.3726,-3.3615,-3.3506,-3.3491,-3.3331,-3.2993,-3.2304,-3.193,-3.176,-3.176,-3.1366,-3.1071,0.0,0.0,0.0,-3.4894,-3.562,-3.6125,-3.7198,-3.8251,-3.9106,-3.947,-4.0275,-4.103,-4.1195,-4.1226,-4.1502,-4.2378,-4.3833,-4.5166,-4.597,-4.6032,-4.5943,-4.5821,-4.5734,-4.5711,-4.5701,-4.564,-4.5594,-4.5594,-4.4858,-4.4342,-4.4304,-4.3481,-4.2955,-4.2898,-4.2898,-4.2907,-4.2907,-4.2236,-4.1881,-4.1881,-4.1189,-4.0846,-4.087,-4.0888,-4.0948,-4.099,-4.1064,-4.1159,-4.1229,-4.1189,-4.1171,-4.1165,-4.1114,-4.1095,-4.1091,-4.1022,-4.1009,-4.0988,-4.0926,-4.0854,-4.0801,0.0,0.0,0.0,0.0,0.0,0.0,0.0,0.0,0.0,0.0,0.0,0.0,0.0,-2.8669,-2.8749,-2.8834,-2.8905,0.0,0.0,0.0,0.0,-3.1109,-3.2108,-3.2807,-3.3101,-3.3611,-3.3868,-3.3868,-3.3353,-3.2954,-3.266,-3.2139,-3.1722,-3.1452,-3.2115,-3.2373,-3.2323,-3.2323,-3.261,-3.3036,-3.301,-3.3268,-3.3657,-3.3605,-3.3534,-3.3477,-3.3452,-3.3349,-3.3178,-3.2826,-3.2627,-3.2534,-3.2534,-3.2417,-3.2283,-3.2256,-3.2024,-3.2063,-3.3426,-3.3957,-3.4513,-3.6111,-3.692,-3.7518,-3.8269,-3.928,-4.0082,-4.0185,-4.0679,-4.1364,-4.2244,-4.3303,-4.4337,-4.5188,-4.5716,-4.5958,-4.5886,-4.5814,-4.5746,-4.5709,-4.5684,-4.5648,-4.5594,-4.4765,-4.4009,-4.3434,-4.2517,-4.1781,-4.1265,-4.1235,-4.1234,-4.1234,-4.1053,-4.0992,-4.1027,-4.0809,-4.0706,-4.073,-4.0849,-4.0911,-4.0933,-4.1,-4.1067,-4.1101,-4.1098,-4.1091,-4.1092,-4.1099,-4.1104,-4.1095,-4.1064,-4.1049,-4.0995,-4.0964,-4.0883,-4.0801,0.0,0.0,0.0,0.0,0.0,0.0,0.0,0.0,0.0,-2.8411,0.0,0.0,0.0,0.0,-2.8712,-2.8785,-2.8893,-2.8982,-2.9005,-2.95,-2.9922,-3.0191,-3.1476,-3.232,-3.2583,-3.3385,-3.3678,-3.3403,-3.2858,-3.2326,-3.1775,-3.1256,-3.0852,-3.0595,-3.0643,-3.0937,-3.1397,-3.139,-3.1816,-3.2496,-3.2469,-3.2922,-3.3599,-3.3815,-3.3895,-3.3902,-3.4114,-3.4163,-3.405,-3.3684,-3.3499,-3.34,-3.3131,-3.2711,-3.231,-3.2069,-3.1475,-3.1127,-3.217,-3.282,-3.3499,-3.4802,-3.5761,-3.6564,-3.729,-3.8312,-3.9198,-3.9582,-4.0185,-4.0905,-4.1802,-4.2634,-4.3474,-4.4328,-4.5094,-4.558,-4.5501,-4.5674,-4.5778,-4.5735,-4.5706,-4.5569,-4.5235,-4.436,-4.3444,-4.2572,-4.1628,0.0,-4.032,-4.03,-4.0174,-3.9905,-3.9714,-3.9653,-3.9738,-3.9785,-3.9998,-4.0294,-4.0416,-4.0611,-4.0896,-4.0979,-4.1025,-4.1076,-4.1081,-4.1104,-4.1094,-4.1108,-4.1098,-4.1106,-4.1103,-4.107,-4.0993,-4.1003,-4.0921,-4.0837,0.0,0.0,0.0,0.0,0.0,0.0,0.0,0.0,-2.8465,-2.8465,0.0,0.0,0.0,0.0,0.0,-2.8822,-2.8894,-2.8947,-2.8994,-2.8994,-2.9354,-3.0136,0.0,0.0,-3.2546,-3.3348,-3.3385,-3.2601,-3.2583,-3.1739,-3.021,-3.0173,-2.9739,-2.9005,-2.9005,-2.9879,-3.1311,-3.1266,-3.1722,-3.2464,-3.2392,-3.2816,-3.3568,-3.4385,-3.4667,-3.4715,-3.5514,-3.5754,-3.558,-3.479,-3.4438,-3.4161,-3.3353,-3.21,-3.097,-3.1151,-3.0666,-3.032,0.0,0.0,0.0,-3.3358,-3.4813,-3.6287,-3.6508,-3.7346,-3.834,-3.9311,-3.9583,-3.9942,-4.0886,-4.1753,-4.2594,-4.3392,-4.4221,-4.4753,-4.4705,-4.5317,-4.5775,-4.5807,-4.5723,-4.5335,-4.4487,-4.3528,-4.2605,-4.1766,-4.0832,-4.0289,-4.0272,-4.0244,-3.987,-3.9091,-3.8301,-3.7924,-3.8007,-3.8066,-3.8563,-3.9462,-3.9525,-4.0009,-4.083,-4.0922,-4.0958,-4.0977,-4.1053,-4.1103,-4.1094,-4.1094,-4.111,-4.1109,-4.1097,-4.1052,-4.1007,-4.1011,-4.095,-4.0897,0.0,0.0,0.0,0.0,0.0,0.0,-3.013,-3.0102,-3.0136,0.0,0.0,0.0,-3.0333,-3.0373,-3.0194,-2.9633,-2.9654,-2.9491,-2.8965,-2.8929,-2.9062,-2.9317,-3.0099,-3.0907,-3.1715,-3.2522,-3.2821,-3.2601,-3.2027,-3.1201,-3.0191,-2.9592,-2.9207,-2.9005,-2.9005,-2.9244,-2.9666,-2.9588,-3.0331,-3.1558,-3.1492,-3.2246,-3.3513,-3.4329,-3.4622,-3.4715,-3.5514,-3.5804,-3.5718,-3.5453,-3.497,-3.4292,-3.3499,-3.2603,-3.1749,-3.1279,-3.0607,-3.0124,-3.0479,0.0,0.0,0.0,0.0,0.0,-3.5337,-3.6339,-3.7186,-3.7575,-3.8194,-3.896,-3.9903,-4.0322,-4.0797,-4.1658,-4.2999,-4.4136,-4.4681,-4.4919,-4.5212,-4.579,-4.5304,-4.4788,-4.4488,-4.3038,-4.2022,0.0,-4.0848,-4.0058,-3.9447,-3.8781,-3.8359,-3.8243,-3.803,-3.7924,-3.8007,-3.8066,-3.8228,-3.8485,-3.8593,-3.8792,-3.9044,-3.9731,-4.0091,-4.0162,-4.082,-4.1101,-4.1102,-4.1093,-4.1092,-4.1102,-4.1103,-4.1096,-4.1064,-4.1015,-4.095,-4.0897,0.0,0.0,0.0,0.0,0.0,-3.1363,-3.096,-3.0835,-3.0801,0.0,0.0,0.0,-3.0998,-3.1025,-3.0871,-3.0443,-3.0428,-3.0146,-2.9418,-2.9387,-2.9265,-2.897,-2.9764,-3.0577,-3.1378,-3.2192,-3.2436,-3.21,-3.1623,-3.0815,-2.9684,-2.9225,-2.9005,-2.9005,-2.9005,-2.9005,-2.8994,-2.8929,-2.9814,-3.1237,-3.1177,-3.206,-3.3564,-3.4706,-3.5111,-3.5243,-3.6399,-3.6798,-3.6727,-3.6367,-3.5485,-3.4403,-3.359,-3.2821,-3.2121,-3.1724,-3.0841,-3.0032,-3.0155,-3.0584,-3.1277,-3.237,0.0,0.0,-3.4868,-3.557,-3.6214,-3.671,-3.7304,-3.7995,-3.8937,-3.9469,-3.9923,-4.0479,-4.1678,-4.2838,-4.3634,-4.4004,-4.4375,-4.484,-4.4426,-4.3931,-4.3511,-4.2493,-4.1717,-4.1277,-4.0397,-3.9514,-3.8657,-3.7751,-3.728,-3.7367,-3.703,-3.6876,-3.6901,-3.7018,-3.7238,-3.7566,-3.7691,-3.7948,-3.8317,-3.8902,-3.9178,-3.9244,-3.9772,-4.0014,-4.0052,-4.0444,-4.0801,-4.1108,-4.1094,-4.109,-4.1098,-4.1009,-4.0967,-4.0898,0.0,0.0,0.0,-3.2473,-3.2026,-3.1647,-3.1724,-3.1351,-3.1053,0.0,-3.1177,-3.127,-3.127,-3.127,-3.1247,-3.1229,-3.1229,-3.0906,-3.0165,-3.0178,-2.9905,-2.9186,-2.9893,-3.0681,-3.1488,-3.2221,-3.2239,-3.1518,-3.1427,-3.0589,-2.911,-2.9019,-2.8982,-2.8982,-2.8994,-2.8994,-2.8994,-2.902,-2.9923,-3.1302,-3.1224,-3.2179,-3.3815,-3.5327,-3.5916,-3.6127,-3.7665,-3.8209,-3.8064,-3.7176,-3.591,-3.4588,-3.3683,-3.2904,-3.2321,-3.2291,-3.1319,-3.0275,-3.0296,-3.0984,-3.1726,-3.1968,-3.3267,0.0,-3.4831,-3.5037,-3.5444,-3.6349,-3.6646,-3.7022,-3.7971,-3.8821,-3.9445,-3.9618,-4.0388,-4.1269,-4.2188,-4.2916,-4.3401,-4.3494,-4.3369,-4.2945,-4.2102,-4.1841,-4.1349,-4.0457,-3.9549,-3.865,-3.7816,-3.6934,-3.6474,-3.6474,-3.5775,-3.5412,-3.54,-3.5534,-3.597,-3.6665,-3.6806,-3.7264,-3.802,-3.8194,-3.8268,-3.8275,-3.8422,-3.8508,-3.8576,-3.9519,-4.0312,-4.0974,-4.1064,-4.1103,-4.1089,-4.1026,-4.0953,-4.0883,0.0,-3.2144,-3.2284,-3.2539,-3.2465,-3.2425,-3.262,-3.2652,-3.2652,-3.2652,-3.2802,-3.2922,-3.2922,-3.2922,-3.2669,-3.2031,-3.1991,-3.166,-3.0929,-3.0888,-3.0854,-3.0755,-3.0914,-3.137,-3.2192,-3.2356,-3.2356,-3.221,-3.1553,-3.0744,-2.9795,-2.9144,-2.8834,-2.8834,-2.8893,-2.8917,-2.8965,-2.9642,-3.0509,-3.1359,-3.125,-3.2548,-3.4663,-3.5614,-3.6336,-3.6983,-3.7929,-3.8259,-3.7991,-3.6526,-3.5822,-3.5315,-3.3864,-3.3284,-3.3031,-3.2411,-3.2092,-3.1787,-3.117,-3.1268,-3.174,-3.2518,-3.3093,0.0,-3.4557,-3.4879,-3.5129,-3.5425,-3.5595,-3.5997,-3.6994,-3.7375,-3.7773,-3.8553,-3.9399,-4.0545,-4.2145,-4.2469,-4.2788,-4.3493,-4.2907,-4.2358,-4.218,-4.0842,-3.9917,-3.9715,-3.8202,-3.7187,-3.696,-3.6108,-3.5628,-3.5628,-3.553,-3.5488,-3.5483,-3.5559,-3.5672,-3.5846,-3.592,-3.6038,-3.6232,-3.7051,-3.7439,-3.7462,-3.8188,-3.8504,-3.8567,-3.9518,-3.9999,-4.0193,-4.0849,-4.1103,-4.1089,-4.1026,-4.0961,-4.0891,-3.2039,-3.2232,-3.2371,-3.2573,-3.2606,-3.2672,-3.2868,-3.3008,-3.3101,-3.3101,-3.3632,-3.4154,-3.4552,-3.4606,-3.4443,-3.4027,-3.4009,-3.3498,-3.2313,-3.2282,-3.1947,-3.1187,-3.1172,-3.1586,-3.2388,-3.2393,-3.2393,-3.2393,-3.2005,-3.1386,-3.0578,-2.9776,-2.9411,-2.9411,-2.943,-2.9466,-2.9557,-3.0387,-3.1218,-3.1977,-3.1931,-3.3067,-3.4936,-3.5725,-3.652,-3.7246,-3.8033,-3.8257,-3.7938,-3.6345,-3.5804,-3.5514,-3.3918,-3.3393,-3.3321,-3.2922,-3.2605,-3.2315,-3.1914,-3.1944,-3.2213,-3.273,-3.3294,0.0,0.0,-3.4739,-3.4908,-3.5073,-3.5174,-3.5435,-3.6041,-3.6529,-3.7027,-3.755,-3.842,-3.9331,-4.0262,-4.1152,-4.1865,-4.2303,-4.1935,-4.1461,-4.1002,-4.0127,-3.9224,-3.8327,-3.7377,-3.6652,-3.6177,-3.5734,-3.5297,-3.4873,-3.5316,-3.5335,-3.4911,-3.5363,-3.5604,-3.5604,-3.5708,-3.5751,-3.5765,-3.6301,-3.655,-3.658,-3.704,-3.7253,-3.7316,-3.8229,-3.8866,-3.9374,-4.0619,-4.1108,-4.1089,-4.1016,-4.0953,-4.0896,-3.1987,-3.2319,-3.244,-3.2573,-3.2606,-3.2672,-3.2868,-3.2993,-3.314,-3.3332,-3.421,-3.508,-3.5731,-3.5804,-3.5804,-3.5804,-3.5804,-3.5243,-3.3954,-3.3905,-3.3299,-3.1833,-3.1829,-3.2092,-3.2584,-3.2602,-3.2602,-3.2602,-3.2438,-3.2038,-3.1364,-3.0576,-3.0194,-3.0194,-3.0206,-3.0257,-3.0369,-3.1192,-3.1944,-3.2601,-3.2766,-3.3675,-3.5007,-3.5831,-3.6595,-3.7307,-3.8047,-3.8183,-3.7772,-3.6306,-3.5711,-3.5315,-3.3864,-3.3393,-3.3393,-3.3393,-3.3041,-3.2643,-3.2643,-3.2773,-3.2924,-3.3,-3.3605,-3.4221,0.0,0.0,0.0,-3.4908,-3.5001,-3.5088,-3.5304,-3.5919,-3.6452,-3.658,-3.7392,-3.8035,-3.8105,-3.9533,-4.0578,-4.0605,-4.0595,-4.0297,-3.9533,-3.9309,-3.8525,-3.6886,-3.6721,-3.6306,-3.5416,-3.5378,-3.4969,-3.4098,-3.4747,-3.4863,-3.4317,-3.5035,-3.5468,-3.5623,-3.5737,-3.5797,-3.5795,-3.5868,-3.5895,-3.5894,-3.597,-3.6007,-3.6072,-3.7117,-3.7968,-3.8749,-4.0269,-4.0955,-4.1091,-4.1019,-4.0979,-4.0904,-3.19,-3.2319,-3.244,-3.2573,0.0,0.0,-3.2868,-3.2963,-3.3342,-3.422,-3.5105,-3.5695,-3.5786,-3.5804,-3.5804,-3.5804,-3.5804,-3.5713,-3.5532,-3.553,-3.5131,-3.4244,-3.4223,-3.3915,-3.3314,-3.3281,-3.3281,-3.3281,-3.2571,-3.2172,-3.2063,-3.1247,-3.0885,-3.0898,-3.0939,-3.1005,-3.1138,-3.1994,-3.2462,-3.2656,-3.3385,-3.4197,-3.5082,-3.5958,-3.6688,-3.7384,-3.8107,-3.7881,-3.7089,-3.6199,-3.5374,-3.4588,-3.3683,-3.3393,-3.3393,-3.3393,-3.3422,-3.3459,-3.3459,-3.357,-3.3687,-3.3766,-3.3937,-3.4136,-3.4221,0.0,-3.4561,-3.4708,0.0,-3.4898,-3.5101,0.0,0.0,-3.5535,-3.6357,-3.699,-3.7052,-3.7966,-3.8663,-3.8789,-3.8808,-3.8747,-3.8641,-3.7875,-3.6998,-3.6008,-3.5927,-3.5514,-3.4584,-3.4541,-3.4134,-3.3251,-3.3335,-3.3713,-3.4385,-3.4555,-3.4977,-3.5699,-3.5769,-3.5791,-3.5799,-3.5878,-3.5894,-3.5908,-3.5975,-3.5995,-3.6127,-3.7764,-3.8515,-3.8689,-3.96,-4.042,-4.1089,-4.1029,-4.0995,-4.098,-3.1986,-3.2354,-3.244,-3.2573,0.0,0.0,0.0,-3.4087,-3.479,-3.5714,-3.6224,-3.6852,-3.7794,-3.7884,-3.8065,-3.8483,-3.8519,-3.8139,-3.725,-3.7196,-3.6635,-3.5351,-3.5297,-3.5134,-3.4806,-3.4353,-3.4099,-3.4099,-3.3284,-3.2904,-3.2886,-3.2071,-3.1691,-3.1691,-3.1719,-3.1801,-3.1946,-3.2776,-3.3204,-3.333,-3.366,-3.4009,-3.4449,-3.5789,-3.7011,-3.7982,-3.7823,-3.7505,-3.6953,-3.5651,-3.4951,-3.4507,-3.3679,-3.3393,-3.3393,-3.3393,-3.3477,-3.3605,-3.3605,-3.3698,-3.382,-3.3881,-3.3947,-3.4023,-3.4173,-3.4269,-3.4393,-3.4539,0.0,0.0,0.0,0.0,0.0,0.0,-3.5592,-3.5907,-3.6003,-3.6404,-3.7099,-3.8294,-3.8482,0.0,-3.7792,-3.6975,-3.6284,-3.589,-3.5399,-3.4935,-3.4548,-3.4035,-3.3355,-3.2495,-3.3415,-3.385,-3.3714,-3.4725,-3.5417,-3.5756,-3.5823,-3.5861,-3.5852,-3.5885,-3.5908,-3.5902,-3.5972,-3.6006,-3.6091,-3.734,-3.8144,-3.8689,-3.9493,-4.0331,-4.1089,-4.1026,-4.0995,-4.0984,-3.2091,-3.2406,-3.244,-3.2539,-3.2766,0.0,0.0,-3.5197,-3.6102,-3.6944,-3.7368,-3.8122,-3.9533,-3.9696,-3.993,-4.0438,-4.0492,-4.0021,-3.8898,-3.8826,-3.8228,-3.6852,-3.658,-3.6363,-3.6127,-3.5349,-3.4917,-3.4917,-3.4353,-3.3954,-3.3719,-3.314,-3.2741,-3.2524,-3.2524,-3.2591,-3.278,-3.335,-3.3671,-3.3807,-3.3807,-3.3949,-3.4311,-3.5477,-3.6754,-3.7827,-3.7241,-3.6833,-3.6374,-3.518,-3.4608,0.0,-3.3648,-3.3452,-3.3452,-3.3452,-3.3534,-3.3633,-3.3633,-3.3712,-3.3802,-3.3855,-3.3881,-3.3934,-3.4086,-3.4148,-3.4221,-3.4374,-3.442,0.0,0.0,0.0,-3.4471,-3.4632,0.0,-3.4478,-3.4615,-3.4876,-3.5699,-3.7435,-3.7705,-3.7517,0.0,-3.6328,-3.5971,-3.5939,0.0,-3.4512,-3.428,-3.3432,-3.2577,-3.1709,-3.3086,-3.3649,-3.3241,-3.4729,-3.5589,-3.5822,-3.5882,-3.5898,-3.5894,-3.5908,-3.5904,-3.5921,-3.5983,-3.5996,-3.608,-3.7206,-3.8026,-3.8684,-3.9737,-4.0535,-4.1078,-4.1016,-4.1007,-4.0975,-3.2196,-3.2406,-3.2422,-3.249,-3.3192,-3.409,-3.5027,-3.5968,-3.6843,-3.756,-3.851,-3.9463,-4.0275,-4.0438,-4.0474,-4.0492,-4.0492,-4.0474,-4.042,-4.042,-4.0093,-3.9315,-3.8553,-3.7756,-3.6977,-3.6164,-3.575,-3.575,-3.5731,-3.5315,-3.457,-3.4552,-3.4117,-3.3357,-3.3357,-3.3444,-3.355,-3.3587,-3.3671,-3.3807,-3.3807,-3.4343,-3.5138,-3.5069,-3.5591,-3.6376,-3.634,0.0,0.0,-3.492,-3.4333,0.0,0.0,0.0,0.0,-3.3591,-3.3629,-3.3698,-3.3698,0.0,-3.3807,-3.3788,-3.3842,-3.3895,-3.3908,-3.4011,-3.4124,-3.4197,-3.4257,-3.434,-3.4484,-3.3931,-3.3479,-3.3552,-3.2948,0.0,0.0,-3.3417,-3.4386,-3.5552,-3.581,-3.5891,0.0,-3.5975,-3.5991,0.0,-3.5193,0.0,-3.3485,-3.2615,-3.174,-3.0877,-3.1717,-3.253,-3.3295,-3.4191,-3.5061,-3.5901,-3.5898,-3.5894,-3.5908,-3.5902,-3.594,-3.5999,-3.6009,-3.6003,-3.6131,-3.7851,-3.8531,-3.8666,-4.0395,-4.1033,-4.1007,-4.0991,-4.1003,-4.0978,-3.2196,-3.2406,-3.2422,-3.249,-3.321,-3.4303,-3.5757,-3.722,-3.8205,-3.8456,-3.9283,-4.0165,-4.0975,-4.1159,-4.145,-4.1992,-4.2066,-4.1868,-4.1325,-4.1288,-4.0945,-4.0166,-3.9876,-3.9586,-3.9333,-3.8047,-3.7326,-3.7258,-3.6276,-3.5609,-3.5273,-3.5354,-3.4953,-3.419,-3.419,-3.3971,-3.3605,-3.3605,-3.3671,-3.3788,-3.386,-3.4079,-3.4444,-3.4898,-3.5607,-3.6282,-3.5656,-3.5247,0.0,-3.4298,-3.3904,-3.3657,-3.3601,-3.3605,-3.3605,-3.3605,-3.3661,0.0,0.0,0.0,-3.3807,-3.3807,0.0,-3.386,-3.3881,-3.3934,-3.3998,-3.4111,-3.4161,-3.4209,-3.434,-3.3721,-3.3234,-3.3352,-3.272,-3.226,0.0,-3.324,-3.4022,-3.4551,-3.528,-3.576,-3.5833,0.0,0.0,0.0,-3.4621,0.0,0.0,-3.2023,-3.137,-3.1654,-3.2502,-3.337,-3.4226,-3.5095,-3.5673,-3.596,-3.5965,-3.597,-3.5975,-3.5966,-3.5978,-3.6009,-3.6005,-3.6325,-3.6953,-3.8061,-3.8851,-3.9465,-4.0604,-4.1019,-4.0993,-4.1003,-4.1003,-4.0978,-3.2248,-3.2616,-3.2792,-3.2861,-3.4058,-3.5527,-3.6969,-3.8363,-3.9349,-3.9635,-4.0213,-4.0898,-4.1706,-4.1893,-4.2149,-4.2671,-4.2804,-4.2626,-4.2138,-4.2102,-4.1904,-4.1379,-4.1071,-4.089,-4.089,-3.9589,-3.8741,-3.84,-3.7442,-3.6647,-3.6037,-3.6121,-3.5754,-3.5007,-3.4733,-3.4552,-3.4426,-3.3842,-3.3835,-3.4211,-3.4005,-3.3972,-3.4092,-3.4563,-3.5058,-3.5427,0.0,-3.4591,-3.4491,-3.3918,-3.3739,-3.3726,-3.3684,-3.3671,-3.3671,-3.3671,-3.3698,-3.3739,-3.3739,-3.3766,0.0,-3.3807,-3.3807,0.0,-3.3842,0.0,-3.3934,-3.4049,-3.4086,-3.4136,-3.4245,-3.3387,-3.2706,-3.2783,-3.1882,-3.1325,0.0,-3.2673,-3.3475,-3.3937,-3.4937,-3.5629,-3.5728,-3.5799,-3.584,0.0,0.0,0.0,0.0,0.0,-3.1835,-3.2087,-3.3251,-3.4122,-3.4687,-3.5557,-3.5999,-3.599,-3.5994,-3.5995,-3.5995,-3.6006,-3.5995,-3.6004,-3.5994,-3.6484,-3.7361,-3.8167,-3.9009,-3.9874,-4.0697,-4.0993,-4.1007,-4.0992,-4.0963,-4.0922,-3.2406,-3.309,-3.3635,-3.367,-3.5683,-3.7584,-3.8459,-3.9373,-4.0216,-4.1002,-4.1244,-4.1626,-4.2394,-4.2548,-4.2589,-4.2589,-4.2707,-4.2802,-4.2856,-4.2916,-4.2936,-4.2936,-4.2155,-4.1683,-4.1647,-4.0741,-3.9894,-3.9157,-3.9121,-3.833,-3.685,-3.6866,-3.6483,-3.5768,-3.4989,-3.5115,-3.5775,-3.4243,-3.4128,-3.489,-3.426,-3.4049,-3.4099,-3.4099,-3.4023,-3.3908,-3.3895,-3.3855,-3.3788,-3.3807,-3.3807,-3.3807,-3.3807,-3.3807,-3.3807,-3.3807,-3.3807,-3.3807,-3.3807,-3.3807,-3.3807,-3.3807,0.0,0.0,0.0,0.0,-3.3908,-3.3985,-3.4049,-3.4124,-3.4185,-3.2943,-3.1897,-3.1897,-3.0534,-2.9812,-3.0715,-3.1723,-3.2721,-3.3624,-3.4715,-3.5425,-3.5564,-3.5654,-3.5715,-3.5784,0.0,-3.4255,-3.3496,0.0,-3.304,-3.2244,-3.3848,-3.4725,-3.4761,-3.5597,-3.5999,-3.6002,-3.5991,-3.5994,-3.5994,-3.6002,-3.6009,-3.5995,-3.5996,-3.6521,-3.7427,-3.818,-3.9033,-3.9941,-4.0698,-4.0995,-4.1002,-4.1002,-4.0917,-4.0807,-3.3195,-3.4284,-3.5407,-3.6006,-3.6758,-3.7584,-3.8459,-3.9836,-4.0877,-4.1074,-4.1667,-4.2134,-4.2328,-4.2465,-4.2544,-4.2544,-4.2607,-4.2901,-4.3494,-4.355,-4.357,-4.357,-4.3352,-4.2954,-4.2361,-4.1513,-4.0684,-3.9855,-3.9337,-3.8582,-3.7628,-3.7661,-3.7023,-3.5786,-3.5569,-3.5009,-3.4189,-3.3788,-3.3849,-3.4242,-3.4077,-3.4074,-3.4173,0.0,-3.4124,-3.4036,-3.3934,-3.3881,-3.3855,-3.382,-3.3807,-3.3807,-3.3807,-3.3807,-3.3807,-3.3807,-3.3807,-3.3807,-3.3807,-3.3807,-3.3807,-3.3807,-3.3807,-3.3807,0.0,0.0,0.0,0.0,0.0,0.0,0.0,-3.2901,-3.1823,-3.1823,-3.0472,-2.9557,-2.9955,-3.1261,-3.2317,-3.2708,-3.416,-3.5171,-3.5348,-3.5483,-3.5582,-3.5659,-3.4951,-3.4468,-3.4308,0.0,0.0,-3.4022,-3.4467,-3.5018,-3.5664,-3.5897,-3.5992,-3.5991,-3.6008,-3.6007,-3.6007,-3.5992,-3.5995,-3.5996,-3.5995,-3.6828,-3.8219,-3.8417,-3.9368,-4.0718,-4.0924,-4.0971,-4.0927,-4.0927,-4.0863,-4.0807,-3.4003,-3.5267,-3.6566,-3.7338,-3.8164,-3.8941,-3.9483,-4.0742,-4.1609,-4.1609,-4.2022,-4.2308,-4.2308,-4.2366,-4.2425,-4.2425,-4.2488,-4.2889,-4.366,-4.3755,-4.3958,-4.4317,-4.3914,-4.3499,-4.305,-4.2221,-4.1373,-4.0547,-3.9798,-3.9102,-3.842,-3.8095,-3.7369,-3.6309,-3.5965,-3.5372,-3.4641,-3.4351,-3.4119,-3.3998,-3.3998,-3.4086,0.0,-3.4197,-3.4173,-3.4136,-3.4023,-3.3972,-3.3934,-3.3855,-3.3842,-3.3829,-3.382,-3.3807,-3.3807,-3.3807,-3.3807,-3.3807,-3.3807,-3.3807,-3.3807,-3.3807,-3.3807,-3.3807,-3.3807,-3.3815,-3.3868,0.0,0.0,0.0,0.0,0.0,-3.1571,-3.0864,-2.9986,-2.9443,-2.9589,-3.1042,-3.2153,-3.2307,-3.3857,-3.4963,-3.5113,-3.5333,-3.5477,-3.5544,-3.5228,0.0,0.0,0.0,0.0,-3.4655,-3.503,-3.5473,-3.5988,-3.5994,-3.5996,-3.5996,-3.5996,-3.5996,-3.5995,-3.5996,-3.5995,-3.5991,-3.6006,-3.6951,-3.851,-3.849,-3.9499,-4.1002,-4.0971,-4.0922,-4.0902,-4.0876,-4.084,-4.0804,-3.5054,-3.6322,-3.7552,-3.8286,-3.9634,-4.0673,-4.0905,-4.1715,-4.2287,-4.2308,-4.2308,-4.2308,-4.2308,-4.2308,-4.2308,-4.2308,-4.2405,-4.2785,-4.3537,-4.3801,-4.4222,-4.4923,-4.4172,-4.368,-4.359,-4.2721,-4.1895,-4.1092,-4.0307,-3.9635,-3.9085,-3.8276,-3.7589,-3.6977,-3.6272,-3.5968,-3.5954,-3.5296,-3.4696,-3.4164,-3.4066,-3.4086,-3.4197,-3.4197,-3.4197,-3.4197,-3.4136,-3.4074,-3.3998,-3.3934,-3.3908,-3.3895,-3.3829,-3.3802,-3.382,-3.3788,-3.3807,-3.3807,-3.3807,-3.3807,-3.3807,-3.3807,-3.382,-3.3802,-3.3802,-3.3855,-3.3934,-3.3998,-3.4061,-3.4124,0.0,0.0,-3.1273,-2.9657,-2.939,-2.9423,-2.9492,-3.1,-3.212,-3.2193,-3.3742,0.0,-3.4879,-3.519,-3.54,-3.5463,-3.5601,0.0,0.0,0.0,0.0,-3.479,-3.5498,-3.5929,-3.5988,0.0,-3.5987,-3.5993,-3.5991,-3.5991,-3.5993,-3.5991,-3.6003,-3.5991,-3.6009,-3.695,-3.8497,-3.8505,-3.9487,-4.098,-4.0913,-4.0897,-4.0886,-4.0818,-4.0794,-4.0794,-3.7229,-3.8269,-3.9147,-3.9958,-4.0355,-4.0867,-4.1665,-4.1987,-4.2166,-4.2287,-4.2308,-4.2308,-4.2308,-4.2308,-4.2308,-4.2308,-4.2308,-4.2685,-4.3468,-4.4114,-4.4525,-4.465,-4.4503,-4.4146,-4.3539,-4.2718,-4.1895,-4.1092,-4.0307,-3.9635,-3.9085,-3.8276,-3.7589,-3.6995,-3.685,-3.6495,-3.5954,-3.5389,-3.5123,-3.5014,-3.4357,-3.4136,-3.4197,-3.4197,-3.4197,-3.4197,-3.4185,-3.4136,-3.4074,-3.4011,-3.3985,-3.3972,-3.3895,-3.3881,-3.3868,-3.382,-3.3807,-3.3807,-3.3807,-3.3807,-3.3807,-3.3807,-3.3829,-3.3881,-3.3881,-3.3934,-3.3998,-3.4074,-3.4099,-3.4124,-3.4185,0.0,0.0,-2.9657,-2.9407,-2.9429,-2.9482,-3.0951,-3.2071,-3.2193,-3.3731,-3.483,-3.4898,-3.5107,-3.5254,-3.5338,-3.5457,0.0,0.0,0.0,0.0,0.0,-3.5785,0.0,0.0,0.0,-3.5941,-3.6009,-3.5994,-3.5996,-3.5998,-3.5991,-3.6006,-3.6001,-3.5994,-3.695,-3.8503,-3.85,-3.9454,-4.0917,-4.0898,-4.0876,-4.0812,-4.08,-4.0802,-4.0803,-3.8474,-3.9375,-4.0024,-4.0432,-4.084,-4.1274,-4.1809,-4.197,-4.2118,-4.2287,-4.2308,-4.2308,-4.2308,-4.2308,-4.2308,-4.2308,-4.2308,-4.2626,-4.3465,-4.3818,-4.4193,-4.4567,-4.4228,-4.3854,-4.3518,-4.2715,-4.2111,-4.1716,-4.0503,-3.9831,-3.9643,-3.8474,-3.7589,-3.6977,-3.6656,-3.6313,-3.6014,0.0,0.0,-3.5235,-3.4426,-3.4136,-3.4197,-3.4197,-3.4197,-3.4197,-3.4197,-3.3906,-3.3592,-3.3926,-3.4049,-3.4036,-3.3972,-3.3947,-3.3947,-3.3908,-3.3895,-3.3802,-3.3397,-3.3287,-3.3176,-3.2771,-3.2686,-3.2711,-3.2711,-3.3075,-3.3432,-3.3469,-3.3524,-3.327,-3.2488,-3.1701,0.0,0.0,0.0,-2.957,-3.0043,-3.1242,-3.2239,-3.2755,-3.3994,-3.4819,-3.4849,-3.5029,-3.5176,-3.5239,-3.54,-3.5509,0.0,0.0,0.0,0.0,0.0,0.0,0.0,0.0,0.0,-3.5945,-3.5976,-3.5999,-3.5999,-3.5994,-3.599,-3.5945,-3.5953,-3.6657,-3.7881,-3.8726,-3.9792,-4.0903,-4.0856,-4.0823,-4.0794,-4.0758,-4.0759,-4.0746,-3.9424,-4.0182,-4.0731,-4.0731,-4.12,-4.1648,-4.178,-4.1923,-4.2051,-4.2225,-4.2287,-4.2308,-4.2308,-4.2308,-4.2308,-4.2308,-4.2308,-4.2555,-4.3197,-4.3411,-4.3747,-4.4335,-4.38,-4.3497,-4.3497,-4.2715,-4.2308,-4.2308,-4.0879,0.0,0.0,-3.8816,-3.7857,-3.7245,-3.6734,0.0,0.0,0.0,-3.5653,-3.5494,-3.469,-3.4303,-3.4197,-3.4197,-3.4197,-3.4179,-3.4011,-3.3528,-3.3064,-3.3468,-3.3716,-3.3852,-3.379,-3.3876,-3.3986,-3.3795,-3.3739,-3.3573,-3.2761,-3.2539,-3.2391,-3.1763,-3.1597,-3.1609,-3.1609,-3.2167,-3.2678,-3.2678,-3.2713,-3.2314,-3.0864,-3.0615,0.0,0.0,0.0,-2.9666,-3.037,-3.1243,-3.2081,-3.2789,-3.371,-3.426,-3.426,-3.4614,-3.4843,-3.4909,-3.5258,-3.5462,-3.5489,0.0,0.0,0.0,0.0,-3.5779,-3.581,0.0,-3.59,0.0,-3.5946,-3.597,-3.597,-3.597,-3.5946,-3.5897,-3.5906,-3.6492,-3.7578,-3.9017,-4.0102,-4.0862,-4.0812,-4.0782,-4.077,-4.0694,-4.0687,-4.0687,-4.0319,-4.099,-4.1499,-4.1499,-4.1552,-4.1648,-4.178,-4.1923,-4.203,-4.2121,-4.2207,-4.2308,-4.2308,-4.2308,-4.2308,-4.2308,-4.2308,-4.2323,-4.2415,-4.3108,-4.3515,-4.3586,-4.3533,-4.3497,-4.3497,-4.2715,-4.2308,-4.2308,-4.155,-4.0842,0.0,-3.9428,-3.8756,0.0,0.0,0.0,0.0,-3.7632,-3.6993,-3.6325,-3.5578,-3.4859,-3.4197,-3.4197,-3.4197,-3.4104,-3.3373,-3.3057,-3.2908,-3.2247,-3.2507,-3.3089,-3.3018,-3.3494,-3.3926,-3.3142,-3.2908,-3.2742,-3.193,-3.1696,-3.169,-3.1622,-3.1663,-3.1679,-3.1679,-3.1793,-3.1894,-3.1894,-3.1912,-3.1645,-3.0753,-3.0655,-3.0408,0.0,0.0,0.0,-2.9682,-3.0412,-3.0976,-3.1109,-3.1967,-3.2534,-3.2534,-3.3383,-3.3907,-3.3921,-3.4791,0.0,0.0,0.0,0.0,-3.5612,0.0,-3.5732,-3.5803,-3.5807,-3.585,-3.5908,-3.5911,-3.5911,-3.5911,-3.5911,-3.5911,-3.5908,-3.5908,-3.6814,-3.8363,-3.9233,-4.0081,-4.08,-4.0732,-4.072,-4.07,-4.0628,-4.0614,-4.0614,-4.0928,-4.1349,-4.1604,-4.1604,-4.1604,-4.1626,0.0,-4.1858,-4.2026,-4.2051,-4.2202,-4.2308,-4.2308,-4.2308,-4.2308,-4.2308,-4.2308,-4.2308,-4.2308,-4.259,-4.2769,-4.2769,-4.2769,-4.2769,-4.2769,-4.2448,-4.2346,-4.2425,-4.168,-4.097,0.0,0.0,0.0,0.0,0.0,-3.8481,-3.8569,-3.7882,-3.7178,-3.6436,-3.5708,-3.4921,-3.4197,-3.4197,-3.4197,-3.4086,-3.3287,-3.2704,-3.2165,-3.1348,-3.1608,-3.2265,-3.2242,-3.2453,-3.2658,-3.2289,-3.2196,-3.2029,-3.1214,-3.101,-3.088,-3.0398,-3.0309,-3.033,-3.033,-3.0713,-3.1087,-3.1087,-3.1109,-3.0889,-3.0052,-2.9926,-2.9873,0.0,0.0,0.0,-3.0244,-3.0629,-3.1043,-3.155,-3.2024,-3.2307,-3.2307,-3.273,-3.3234,-3.376,-3.4697,0.0,0.0,0.0,0.0,-3.5595,0.0,-3.5669,-3.5732,-3.5773,-3.5803,-3.5842,-3.5891,-3.5901,-3.5901,-3.5901,-3.5887,-3.5842,-3.5842,-3.6789,-3.835,-3.8636,-3.9547,-4.0751,-4.0713,-4.0681,-4.0647,-4.0605,-4.0564,-4.0534,-4.1011,-4.138,-4.1604,-4.1604,-4.1604,-4.1604,-4.1604,-4.1837,-4.2005,-4.2005,-4.2181,-4.2308,-4.2308,-4.2308,-4.2308,-4.2308,-4.2308,-4.2308,-4.2308,-4.2308,-4.2308,-4.2308,-4.2308,-4.2308,-4.2308,-4.2308,-4.2366,-4.2503,-4.1952,0.0,0.0,0.0,0.0,0.0,-3.8399,-3.8496,-3.867,-3.8143,-3.737,-3.6454,-3.5922,-3.5112,-3.4197,-3.4197,-3.4197,-3.4048,-3.3008,-3.2277,-3.1645,-3.0604,-3.0623,-3.1143,-3.1366,-3.1608,-3.1756,-3.1515,-3.144,-3.1273,-3.0474,-3.0251,-3.0103,-2.9527,-2.9396,-2.9396,-2.9396,-2.9834,-3.0254,-3.0275,-3.0307,-3.016,-2.9544,-2.9482,-2.9531,-2.9531,0.0,0.0,0.0,-3.0517,-3.0753,-3.1336,-3.1506,-3.1581,-3.159,-3.1915,-3.2484,-3.338,-3.4276,0.0,0.0,0.0,0.0,0.0,0.0,0.0,0.0,-3.5737,-3.5773,-3.5806,-3.5858,-3.5877,-3.5864,-3.5877,-3.5838,-3.5806,-3.5778,-3.6585,-3.7922,-3.8122,-3.9042,-4.0346,-4.059,-4.0626,-4.0571,-4.0565,-4.0527,-4.0468,-4.0459,-4.1095,-4.1604,-4.1604,-4.1604,-4.1604,-4.1604,-4.1837,-4.2005,-4.2005,-4.2181,-4.2308,-4.2308,-4.2308,-4.2308,-4.2308,-4.2308,-4.2308,-4.2308,-4.2308,-4.2308,0.0,-4.2308,-4.2308,-4.2308,-4.2308,-4.2366,-4.2503,-4.2568,0.0,-4.1557,0.0,-3.9037,-3.8399,-3.8399,-3.8496,-3.8707,-3.8689,-3.7842,-3.6496,-3.6477,-3.5573,-3.4197,-3.4197,-3.4197,-3.3993,-3.2388,-3.1812,-3.1552,-2.9954,-2.9415,-2.9564,-3.0363,-3.1162,-3.1645,-3.0846,-3.0604,-3.0437,-2.9619,-2.9396,-2.9396,-2.9396,-2.9396,-2.9396,-2.9396,-2.9409,-2.9441,-2.9501,-2.9511,-2.9511,-2.9492,-2.955,-2.9598,-2.9598,0.0,0.0,0.0,-2.9701,-2.9729,-2.9718,-2.98,-2.9863,-2.9914,-3.0713,-3.1588,-3.2542,0.0,0.0,0.0,0.0,0.0,-3.5509,-3.556,0.0,-3.5607,-3.5678,-3.5733,-3.5803,-3.5803,-3.5793,-3.5795,-3.5793,-3.5803,-3.5799,-3.5737,-3.6198,-3.7077,-3.7881,-3.8677,-3.9496,-4.0289,-4.0565,-4.0489,-4.0499,-4.0449,-4.0407,-3.9528,-3.9802,-4.0042,-4.0042,-4.0042,-4.0042,-4.0042,-4.0232,-4.0356,-4.0356,-4.1004,-4.1484,-4.1484,-4.1966,-4.2308,0.0,-4.2308,-4.2308,0.0,-4.2308,-4.2308,-4.2308,-4.2308,-4.2346,-4.2425,-4.2425,-4.2526,-4.2704,0.0,0.0,0.0,-3.9858,-3.9037,-3.8399,-3.8399,-3.8496,-3.8707,-3.8707,-3.7846,-3.6496,-3.6496,-3.5592,-3.4197,-3.4197,-3.4197,-3.4048,-3.3001,-3.2277,-3.1645,-3.0586,-2.9842,-2.9434,-2.9694,-2.9954,-3.0103,-2.9861,-2.9768,-2.9731,-2.9471,-2.9399,-2.9401,-2.9401,-2.9441,-2.9471,-2.9471,-2.9481,-2.9472,-2.9492,-2.954,-2.9578,-2.9578,-2.9626,-2.9683,-2.9683,-2.9692,0.0,-2.97,-2.97,-2.9718,-2.9763,-2.9834,-2.9887,-2.9904,-3.0728,0.0,0.0,0.0,0.0,0.0,0.0,0.0,0.0,-3.5522,0.0,-3.5599,-3.5626,-3.5678,-3.5733,-3.5728,-3.5722,-3.5727,-3.5722,-3.5728,-3.5733,-3.5703,-3.6176,-3.7002,-3.784,-3.8653,-3.9403,-4.0226,-4.0527,-4.0479,-4.0449,-4.0388,-4.0325,-3.8706,-3.9031,-3.9284,-3.9284,-3.9284,-3.9284,-3.9284,-3.9453,-3.9595,-3.9595,-4.0204,-4.077,-4.1074,-4.1538,0.0,-4.2272,-4.2308,-4.2308,-4.2308,-4.2308,-4.2308,-4.2308,-4.2346,-4.2425,-4.2503,-4.2526,0.0,-4.2803,-4.2841,-4.2048,-4.0492,-4.0039,-3.9309,-3.8399,-3.8399,-3.8496,-3.8707,-3.8707,-3.7846,-3.6496,-3.6496,-3.5592,-3.4197,-3.4197,-3.4197,-3.4086,-3.3287,-3.2685,-3.2072,-3.0976,-3.027,-2.9787,-2.9489,-2.9388,-2.9399,-2.9407,-2.9399,-2.9409,-2.9409,-2.9421,-2.9443,-2.9443,-2.9472,-2.9502,-2.954,-2.954,-2.955,-2.9569,-2.9617,-2.9636,-2.9636,-2.9683,-2.9701,-2.9701,-2.9729,-2.9728,-2.9745,0.0,-2.9763,-2.9825,0.0,0.0,0.0,-3.097,-3.1806,0.0,0.0,0.0,0.0,0.0,0.0,-3.546,-3.5495,0.0,-3.5608,-3.5599,-3.5632,-3.5707,-3.5694,-3.5708,-3.5708,-3.5699,-3.5703,-3.5707,-3.5667,-3.5944,-3.6509,-3.7662,-3.8395,-3.8924,-4.0065,-4.0479,-4.0449,-4.0379,-4.0335,-4.029,-3.802,-3.8638,-3.9126,0.0,-3.9126,0.0,-3.9147,-3.9315,-3.9436,-3.9456,-3.967,-4.0146,-4.0931,-4.1074,-4.1413,-4.2236,0.0,0.0,0.0,-4.2308,-4.2308,-4.2308,-4.2425,-4.2503,-4.2524,-4.2588,-4.2668,-4.2803,-4.2808,-4.2013,-4.0492,-4.0438,-3.9691,-3.8399,-3.8399,-3.8496,-3.8707,-3.8707,-3.7846,-3.6496,-3.6496,-3.5592,-3.4197,-3.4197,-3.4197,-3.4104,-3.3343,-3.3045,-3.2778,-3.1273,-3.0697,-3.0485,-2.9723,-2.9456,-2.9402,-2.9399,-2.9401,-2.9412,-2.9412,-2.9453,-2.9502,-2.9502,-2.9502,-2.954,-2.9598,-2.9607,-2.9617,-2.9683,-2.9692,-2.9692,-2.9711,-2.9719,-2.9717,-2.9717,-2.9819,-2.9883,-2.9883,-2.994,-3.0004,0.0,0.0,0.0,0.0,-3.1439,-3.2145,0.0,0.0,0.0,0.0,0.0,-3.5323,-3.5405,-3.5463,-3.5522,-3.5598,-3.5608,-3.5629,-3.5707,-3.5708,-3.5704,-3.5699,-3.5698,-3.5702,-3.5697,-3.5629,-3.5601,-3.5711,-3.7276,-3.7961,-3.8159,-3.9776,-4.0392,-4.0398,-4.0316,-4.0309,-4.0272,0.0,0.0,-3.7552,-3.7552,-3.7552,-3.7571,-3.7613,-3.7749,-3.7865,-3.7923,-3.8588,-3.9342,-4.0091,-4.0735,-4.1413,-4.2236,-4.2308,-4.2308,-4.2308,-4.2308,-4.2346,-4.2463,-4.2483,-4.2584,-4.2724,-4.2745,-4.2785,-4.2881,-4.2284,-4.1469,-4.0474,-3.993,-3.9218,-3.8399,-3.8399,-3.8496,-3.8707,-3.8707,-3.7846,-3.6496,-3.6496,-3.5592,-3.4197,-3.4197,-3.4197,-3.4179,-3.3974,-3.3522,-3.2946,-3.2555,-3.1649,-3.0639,-3.0453,-2.9973,-2.9463,-2.9431,-2.9433,-2.9472,-2.9472,-2.9531,-2.9588,-2.9588,-2.9617,-2.9655,-2.9664,-2.9683,-2.9683,-2.97,-2.9709,-2.9718,-2.9764,-2.9782,-2.9771,-2.9771,-3.0346,-3.0788,-3.0785,-3.1361,-3.1795,0.0,-3.1855,-3.1965,-3.2191,-3.2866,-3.3468,0.0,0.0,0.0,0.0,-3.5304,-3.5323,-3.5405,-3.5474,-3.5528,-3.5598,-3.5604,-3.5639,-3.5695,-3.5701,-3.5706,-3.5706,-3.5701,-3.5665,-3.5623,-3.5612,-3.5577,-3.5605,-3.6646,-3.7425,-3.802,-3.9048,-3.9813,-4.0316,-4.03,-4.0272,-4.0215,-3.6987,-3.7007,-3.7007,-3.7007,-3.7029,-3.7068,-3.7089,-3.7241,-3.7354,-3.7411,-3.8216,-3.9074,-3.9805,-4.0628,-4.1413,-4.2236,-4.2308,-4.2308,-4.2308,-4.2366,-4.2425,-4.2503,-4.2604,-4.2685,-4.2802,-4.2823,-4.2681,-4.2357,-4.1542,-4.0745,-4.0003,-3.9621,-3.907,-3.8399,-3.843,-3.8528,-3.8707,-3.8707,-3.7846,-3.6496,-3.6496,-3.5592,-3.4197,-3.4197,-3.4197,-3.4197,-3.4197,-3.3918,-3.3503,-3.3155,-3.2482,-3.1677,-3.0972,-3.0463,-3.0018,-2.9623,-2.9521,-2.955,-2.955,-2.9579,-2.9655,-2.9655,-2.9664,-2.9692,-2.9701,-2.9701,-2.9719,-2.9745,-2.9754,-2.9763,-2.978,-3.0127,-3.039,-3.039,-3.1126,-3.1701,-3.1689,-3.2106,0.0,-3.2433,-3.2477,-3.2664,-3.3105,-3.3593,-3.4064,-3.447,-3.4961,0.0,-3.5297,-3.5335,-3.5364,-3.5405,-3.546,-3.5515,-3.5554,-3.5584,-3.562,-3.5704,-3.5704,-3.5704,-3.5704,-3.5673,-3.5637,-3.5601,-3.5577,-3.5521,-3.5567,-3.6407,-3.7204,-3.799,-3.8802,-3.9585,-4.0298,-4.0263,-4.0234,-4.0196,-3.7009,-3.7009,-3.7009,-3.7046,-3.7087,-3.7127,-3.7129,-3.728,-3.7411,-3.7429,-3.8127,-3.895,-3.9805,-4.0521,-4.1288,-4.2216,-4.2308,-4.2328,-4.2328,-4.2445,-4.2503,-4.2544,-4.2704,-4.2803,-4.2822,-4.2754,-4.2375,-4.1705,-4.0782,-4.0021,-3.9404,-3.9346,-3.8993,-3.8399,-3.8478,-3.8575,-3.8707,-3.8707,-3.7846,-3.6496,-3.6496,-3.5592,-3.4197,-3.4197,-3.4197,-3.4197,-3.4197,-3.4197,-3.4098,-3.3499,-3.3205,-3.2892,-3.1584,-3.1,-3.0685,-3.001,-2.9795,-2.9776,-2.9645,-2.9739,-2.9908,-3.0039,-3.0077,-3.0049,-2.9934,-2.9906,-2.9886,-2.9827,-2.9911,-3.0005,-3.0014,-3.0719,-3.1293,-3.1293,-3.202,-3.2596,-3.2605,0.0,-3.2812,-3.2883,-3.2892,-3.3211,-3.4009,-3.4102,-3.4413,-3.5152,-3.5269,-3.5308,-3.5315,-3.5237,-3.522,-3.522,-3.5409,-3.5508,-3.5515,-3.5577,-3.5637,-3.5704,-3.5684,-3.5679,-3.5679,-3.5631,-3.5595,-3.5589,-3.5515,-3.5502,-3.5554,-3.6225,-3.7067,-3.7963,-3.8632,-3.9472,-4.028,-4.0215,-4.0196,-4.0166,-3.7069,-3.7089,-3.7108,-3.7239,-3.7259,-3.7297,-3.7337,-3.7374,-3.7448,-3.7558,-3.7702,-3.8326,-3.9734,-4.0002,-4.0681,-4.2162,-4.2387,-4.2463,-4.2463,-4.2483,-4.2584,-4.2763,-4.2783,-4.2841,-4.2881,-4.223,-4.1831,-4.1705,-4.0274,-3.9514,-3.9387,-3.8766,-3.8465,-3.8399,-3.8478,-3.8575,-3.8707,-3.8707,-3.7846,-3.6496,-3.6496,-3.5592,-3.4197,-3.4197,-3.4197,-3.4197,-3.4197,-3.4197,-3.4191,-3.4132,-3.3694,-3.3161,-3.2973,-3.1987,-3.0865,-3.0733,-3.0696,-3.0546,-2.988,-3.018,-3.0894,-3.1619,-3.1807,-3.1647,-3.1016,-3.0883,-3.0685,-3.0011,-3.0425,-3.0925,-3.097,-3.165,-3.2208,-3.2208,-3.2928,-3.3524,-3.3559,0.0,-3.4631,-3.4694,-3.4757,-3.484,-3.4971,-3.5005,-3.5084,-3.5277,-3.5285,-3.5324,-3.5372,-3.4695,-3.4332,-3.4385,-3.5115,-3.5534,-3.5591,-3.5589,-3.5637,-3.5704,-3.5643,-3.5612,-3.5631,-3.5596,-3.5572,-3.5502,-3.5496,-3.5509,-3.5507,-3.5568,-3.6504,-3.7904,-3.7978,-3.8941,-4.0291,-4.0215,-4.0166,-4.0098,-3.7184,-3.7203,-3.7222,-3.7278,-3.7334,-3.7354,-3.7411,-3.7466,-3.7522,-3.7577,-3.7969,-3.8522,-3.9236,-4.0115,-4.0958,-4.1692,-4.2237,-4.2568,-4.2665,-4.2665,-4.2704,-4.2802,-4.2823,-4.2681,-4.2266,-4.1469,-4.0854,-4.0456,-3.9348,-3.8803,-3.8785,-3.8518,-3.8415,-3.8462,-3.8559,-3.8643,-3.8707,-3.8707,-3.7846,-3.6496,-3.6496,-3.5592,-3.4197,-3.4197,-3.4197,-3.4197,-3.4197,-3.4221,-3.4257,-3.4328,-3.4143,-3.3844,-3.3468,-3.2843,-3.2151,-3.1682,-3.1231,-3.0912,-3.0978,-3.1279,-3.1703,-3.2108,-3.2232,-3.2175,-3.1872,-3.1806,-3.1683,-3.133,-3.1547,-3.182,-3.1883,-3.2593,-3.3152,-3.314,-3.389,0.0,0.0,-3.481,-3.5075,-3.5147,-3.5191,-3.5217,-3.5248,-3.5245,-3.5277,-3.5297,-3.532,-3.5158,-3.4721,-3.4358,-3.3955,-3.3506,-3.4353,-3.4802,-3.4853,-3.5353,-3.5628,-3.5659,-3.5601,-3.5595,-3.5596,-3.5566,-3.5522,-3.5509,-3.5502,-3.5501,-3.55,-3.542,-3.64,-3.7896,-3.7836,-3.8818,-4.0291,-4.0176,-4.0137,-4.0077,-3.7297,-3.7316,-3.7334,-3.7353,-3.7411,-3.7448,-3.7448,-3.754,-3.7613,-3.7613,-3.8167,-3.8631,-3.8846,-4.0032,-4.0931,-4.1289,-4.196,-4.249,-4.2783,-4.2822,-4.2822,-4.2822,-4.2681,-4.2339,-4.1705,-4.0727,-3.9967,-3.9422,-3.8673,-3.8307,-3.8322,-3.843,-3.851,-3.851,-3.8643,-3.8707,-3.8707,-3.8723,-3.7857,-3.6496,-3.6523,-3.5586,-3.4197,-3.4197,-3.4197,-3.4197,-3.4197,-3.4245,-3.4305,-3.4393,-3.445,-3.4394,-3.3848,-3.355,-3.3258,-3.2593,-3.1983,-3.1645,-3.2256,-3.2455,-3.2551,-3.2769,-3.2864,-3.2874,-3.2731,-3.2711,-3.2645,-3.2472,-3.2567,-3.2736,-3.2788,-3.3519,-3.4106,-3.4094,0.0,0.0,0.0,-3.5129,-3.5147,-3.5189,-3.5206,-3.5239,-3.5304,-3.53,-3.5316,-3.5323,-3.5372,-3.5028,-3.4159,-3.3974,-3.341,-3.2352,-3.3353,-3.4007,-3.4199,-3.4917,-3.5379,-3.5598,-3.5577,-3.5571,-3.5585,-3.5509,-3.5496,-3.5489,-3.5494,-3.5493,-3.5467,-3.5405,-3.6366,-3.7879,-3.78,-3.88,-4.0253,-4.0147,-4.0077,-4.0046,-3.7373,-3.7392,-3.7429,-3.7558,-3.7577,-3.7594,-3.7594,-3.7595,-3.7613,-3.7685,-3.7739,-3.8097,-3.8977,-3.9193,-3.984,-4.1278,-4.1572,-4.199,-4.2767,-4.2861,-4.2882,-4.2882,-4.2175,-4.1759,-4.1705,-4.0238,-3.9476,-3.9489,-3.869,-3.8338,-3.8382,-3.8478,-3.851,-3.851,-3.8643,-3.8707,-3.8707,-3.878,-3.7915,-3.6509,-3.6564,-3.5625,-3.4197,-3.4197,-3.4197,-3.4197,-3.4197,-3.4245,-3.4305,-3.4393,-3.445,-3.4487,-3.4516,-3.4001,-3.339,-3.3314,-3.33,-3.3322,-3.3378,-3.3407,-3.3597,-3.448,-3.4698,-3.45,-3.3771,-3.36,-3.3382,-3.2648,-3.314,-3.37,-3.3695,-3.4426,-3.4997,-3.4997,0.0,0.0,-3.5172,-3.5191,-3.5189,-3.5193,-3.5253,-3.5285,-3.5304,-3.5304,-3.5323,-3.5398,-3.5405,-3.5062,-3.4237,-3.343,-3.2256,-3.0635,-3.216,-3.3372,-3.4199,-3.4276,-3.4738,-3.5598,-3.5547,-3.5515,-3.5509,-3.5508,-3.5507,-3.5507,-3.55,-3.546,-3.5405,-3.535,-3.6308,-3.78,-3.7738,-3.8736,-4.0196,-4.0127,-4.0057,-3.9986,-3.7503,-3.7522,-3.7558,-3.7649,-3.7649,-3.7685,-3.7757,-3.7793,-3.7811,-3.7828,-3.7828,-3.7971,-3.833,-3.8833,-3.9392,-3.9986,-4.0582,-4.1053,-4.136,-4.147,-4.1724,-4.214,-4.185,-4.127,-4.0363,-3.9746,-3.9235,-3.8826,-3.8547,-3.843,-3.8462,-3.8559,-3.8624,-3.8624,-3.8716,-3.8747,-3.878,-3.8837,-3.7968,-3.6564,-3.6591,-3.5644,-3.4197,-3.4197,-3.4197,-3.4209,-3.4245,-3.4305,-3.4363,-3.445,-3.4506,-3.458,-3.4583,-3.4395,-3.4162,-3.4193,-3.4225,-3.4256,-3.4346,-3.4374,-3.4441,-3.4812,-3.4898,-3.4832,-3.451,-3.4481,-3.4433,-3.4109,-3.4345,-3.4627,-3.4651,-3.4946,-3.5164,-3.5151,0.0,-3.516,-3.5196,-3.5248,-3.5264,-3.5261,-3.5281,-3.532,-3.5361,-3.5357,-3.5398,-3.546,-3.546,-3.5082,-3.4244,-3.2891,-3.1621,-3.0442,-3.1543,-3.2562,-3.3447,-3.3986,-3.4686,-3.5547,-3.5554,-3.5534,-3.5508,-3.5507,-3.55,-3.55,-3.55,-3.546,-3.5386,-3.5323,-3.6281,-3.7791,-3.7729,-3.8717,-4.0196,-4.0108,-4.0057,-3.9975,-3.7667,-3.7703,-3.7721,-3.7757,-3.7757,-3.7792,-3.7881,-3.7899,-3.7899,-3.7934,-3.7933,-3.7951,-3.7986,-3.8524,-3.901,-3.9262,-3.984,-4.0292,-4.0581,-4.0669,-4.0941,-4.1397,-4.118,-4.058,-3.9558,-3.9286,-3.8917,-3.843,-3.8478,-3.8525,-3.8559,-3.8658,-3.8723,-3.8735,-3.8777,-3.8822,-3.8837,-3.8892,-3.8025,-3.6604,-3.6613,-3.5651,-3.4197,-3.4197,-3.4209,-3.4233,-3.4281,-3.4351,-3.445,-3.4484,-3.4539,-3.4612,-3.4612,-3.4604,-3.4645,-3.4687,-3.4737,-3.4778,-3.4877,-3.4907,-3.4898,-3.4898,-3.4908,-3.4917,-3.4927,-3.4974,-3.5011,-3.5038,-3.5092,-3.5147,-3.5189,-3.5198,-3.5196,-3.5201,-3.5218,-3.5226,-3.5226,-3.5266,-3.5308,-3.5308,-3.532,-3.5357,-3.5405,-3.542,-3.5453,-3.55,-3.55,-3.5122,-3.4244,-3.2865,-3.1826,-3.1249,-3.1804,-3.254,-3.34,-3.401,-3.4692,-3.5509,-3.5554,-3.5547,-3.55,-3.55,-3.55,-3.55,-3.55,-3.5453,-3.5383,-3.5611,-3.6522,-3.7793,-3.8016,-3.8956,-4.0166,-4.0127,-4.0046,-3.9943,-3.7881,-3.7899,-3.7899,-3.7899,-3.7899,-3.7899,-3.7899,-3.7899,-3.7934,-3.7984,-3.8001,-3.8053,-3.8192,-3.8209,-3.855,-3.9417,-3.9489,-3.9868,-4.0736,-4.0772,-4.0772,-4.0772,-4.0024,-3.9604,-3.9586,-3.8818,-3.843,-3.851,-3.851,-3.8575,-3.8707,-3.8707,-3.8735,-3.8807,-3.8807,-3.8851,-3.891,-3.8964,-3.8086,-3.6623,-3.6679,-3.5702,-3.4197,-3.4197,-3.4245,-3.4293,-3.4293,-3.4393,-3.4495,-3.4495,-3.4539,-3.4612,-3.4612,-3.4645,-3.4697,-3.4697,-3.4788,-3.4897,-3.4897,-3.4888,-3.4908,-3.4908,-3.4908,-3.4927,-3.4973,-3.5001,-3.5029,-3.5164,-3.52,-3.5198,-3.5201,-3.5209,-3.5209,-3.5209,-3.5261,-3.5312,-3.5312,-3.5304,-3.5308,-3.5308,-3.5364,-3.5405,-3.5405,-3.546,-3.55,-3.55,-3.55,-3.5122,-3.4244,-3.3448,-3.3004,-3.3004,-3.3014,-3.3429,-3.4293,-3.4303,-3.4692,-3.549,-3.5509,-3.5509,-3.55,-3.55,-3.55,-3.55,-3.55,-3.542,-3.5365,-3.6236,-3.7031,-3.7789,-3.8667,-3.9443,-4.0106,-4.0106,-4.0015,-3.9878,-3.7881,-3.7899,-3.7916,-3.795,-3.7967,-3.7984,-3.8089,-3.814,-3.8191,-3.8206,-3.8254,-3.8303,-3.8336,-3.8336,-3.8462,-3.8715,-3.8733,-3.8857,-3.9175,-3.9193,-3.9225,-3.931,-3.9506,-3.9363,-3.8828,-3.8588,-3.8528,-3.8643,-3.8643,-3.867,-3.8762,-3.8762,-3.8807,-3.8862,-3.8925,-3.8935,-3.8964,-3.9031,-3.8465,-3.7458,-3.6928,-3.6067,-3.5045,-3.4499,-3.4281,-3.4305,-3.4416,-3.4473,-3.4506,-3.455,-3.4572,-3.4612,-3.4655,-3.4676,-3.4727,-3.4809,-3.4868,-3.4897,-3.4898,-3.4898,-3.4908,-3.4908,-3.4936,-3.4983,-3.5001,-3.5075,-3.5147,-3.5191,-3.5206,-3.5201,-3.5261,-3.5269,-3.5277,-3.527,-3.5285,-3.5293,-3.5293,-3.5342,-3.5372,-3.5372,-3.542,-3.5467,-3.5467,-3.5493,-3.55,-3.55,-3.5489,-3.5136,-3.4313,-3.4036,-3.3631,-3.3014,-3.3589,-3.403,-3.4293,-3.4301,-3.4739,-3.5577,-3.5572,-3.5547,-3.5509,-3.5494,-3.55,-3.55,-3.55,-3.542,-3.5365,-3.6236,-3.7031,-3.7789,-3.8667,-3.9443,-4.0106,-4.0106,-4.0015,-3.9878,-3.8003,-3.8038,-3.8054,-3.8104,-3.8136,-3.8204,-3.8272,-3.8305,-3.8338,-3.8338,-3.8385,-3.8399,-3.8399,-3.8399,-3.8415,-3.843,-3.8496,-3.8546,-3.8575,-3.8575,-3.8624,-3.8735,-3.9082,-3.9054,-3.8593,-3.8575,-3.864,-3.8735,-3.8735,-3.8762,-3.8851,-3.8851,-3.8881,-3.8935,-3.8979,-3.9007,-3.905,-3.9073,-3.8637,-3.7856,-3.74,-3.6539,-3.5492,-3.5043,-3.4668,-3.4386,-3.4473,-3.4517,-3.4539,-3.4591,-3.4623,-3.4645,-3.4687,-3.4747,-3.4788,-3.4877,-3.4907,-3.4888,-3.4898,-3.4927,-3.4936,-3.4936,-3.4964,-3.5011,-3.5066,-3.5138,-3.5208,-3.5206,-3.522,-3.5261,-3.5285,-3.53,-3.5297,-3.5308,-3.5323,-3.533,-3.533,-3.5405,-3.5446,-3.5446,-3.5481,-3.5508,-3.5508,-3.5521,-3.5547,-3.5547,-3.5534,-3.5328,-3.4845,-3.4818,-3.4573,-3.4052,-3.4563,-3.485,-3.485,-3.485,-3.5096,-3.5601,-3.559,-3.556,-3.5509,-3.5501,-3.55,-3.55,-3.55,-3.542,-3.5385,-3.6619,-3.7357,-3.7827,-3.9049,-3.9748,-4.0106,-4.0106,-4.0015,-3.9878,-3.8191,-3.8274,-3.8323,-3.8323,-3.8352,-3.8399,-3.8399,-3.8399,-3.8415,-3.8415,-3.8415,-3.8433,-3.8433,-3.8433,-3.8446,-3.8525,-3.8713,-3.8851,-3.8943,-3.8943,-3.8934,-3.8917,-3.8932,-3.885,-3.8723,-3.8723,-3.875,-3.8822,-3.8822,-3.8833,-3.8925,-3.8925,-3.8935,-3.9007,-3.9007,-3.905,-3.9101,-3.9115,-3.8687,-3.8018,-3.8011,-3.7137,-3.5826,-3.5737,-3.5254,-3.4618,-3.4525,-3.4539,-3.4612,-3.4612,-3.4645,-3.4697,-3.4716,-3.4788,-3.4897,-3.4897,-3.4898,-3.4927,-3.5012,-3.5059,-3.5134,-3.522,-3.5191,-3.5133,-3.5183,-3.52,-3.5198,-3.5201,-3.5261,-3.5293,-3.5319,-3.5312,-3.5315,-3.5315,-3.5372,-3.5412,-3.542,-3.5467,-3.5507,-3.5514,-3.5509,-3.5515,-3.5515,-3.556,-3.5598,-3.5604,-3.5604,-3.5604,-3.5604,-3.5614,-3.5606,-3.5606,-3.5673,-3.5704,-3.5704,-3.5704,-3.5673,-3.5606,-3.5596,-3.5566,-3.5515,-3.5508,-3.5507,-3.55,-3.55,-3.542,-3.5442,-3.7186,-3.7808,-3.7865,-3.9623,-4.0225,-4.0106,-4.0106,-4.0015,-3.9878,-3.8352,-3.8368,-3.8385,-3.8385,-3.8382,-3.8399,-3.8399,-3.8446,-3.8478,-3.8478,-3.8578,-3.8627,-3.8627,-3.8627,-3.8655,-3.8728,-3.9393,-4.0084,-4.0782,-4.0803,-4.0523,-3.9856,-3.9819,-3.9527,-3.887,-3.8851,-3.8866,-3.8881,-3.8881,-3.8906,-3.8983,-3.8983,-3.9007,-3.9073,-3.9073,-3.9087,-3.9101,-3.9156,-3.909,-3.8867,-3.8307,-3.7866,-3.743,-3.6239,-3.5663,-3.5443,-3.4794,-3.4602,-3.4612,-3.4612,-3.4645,-3.4697,-3.4768,-3.4819,-3.4897,-3.4898,-3.4898,-3.5069,-3.579,-3.5999,-3.6179,-3.6937,-3.6603,-3.5936,-3.5344,-3.5206,-3.5201,-3.5269,-3.5285,-3.5327,-3.5369,-3.5391,-3.5405,-3.5453,-3.5467,-3.5481,-3.5476,-3.5489,-3.5522,-3.5573,-3.5579,-3.5585,-3.5585,-3.5591,-3.561,-3.5595,-3.5595,-3.5626,-3.5687,-3.5673,-3.5679,-3.5679,-3.5684,-3.5704,-3.5704,-3.5704,-3.5684,-3.5679,-3.5626,-3.5596,-3.5585,-3.5509,-3.5495,-3.55,-3.55,-3.542,-3.5442,-3.7186,-3.7808,-3.7865,-3.9623,-4.0225,-4.0106,-4.0106,-4.0015,-3.9878,-3.8399,-3.843,-3.8446,-3.8446,-3.8496,-3.8544,-3.859,-3.8621,-3.8649,-3.8698,-3.8762,-3.8795,-3.8795,-3.8795,-3.8973,-3.9386,-3.9837,-4.0477,-4.1345,-4.14,-4.1028,-4.0174,-4.0137,-3.9797,-3.9007,-3.9036,-3.9007,-3.8954,-3.8954,-3.8979,-3.905,-3.905,-3.9073,-3.9142,-3.9142,-3.917,-3.9248,-3.9288,-3.9301,-3.9264,-3.8913,-3.8521,-3.8053,-3.7291,-3.6527,-3.5796,-3.536,-3.494,-3.4594,-3.4645,-3.4687,-3.4758,-3.4838,-3.4868,-3.4974,-3.5401,-3.5514,-3.5723,-3.6625,-3.6901,-3.7053,-3.7574,-3.7362,-3.6818,-3.5989,-3.5515,-3.5261,-3.5285,-3.5343,-3.5361,-3.5398,-3.542,-3.5467,-3.5489,-3.5495,-3.5509,-3.5547,-3.5554,-3.556,-3.5598,-3.559,-3.5608,-3.5639,-3.5639,-3.5645,-3.5643,-3.5643,-3.5648,-3.5704,-3.5704,-3.5704,-3.5704,-3.5704,-3.5704,-3.5704,-3.5704,-3.5704,-3.5704,-3.5637,-3.5608,-3.5598,-3.5522,-3.5502,-3.55,-3.55,-3.542,-3.5404,-3.6734,-3.7453,-3.7827,-3.9164,-3.9843,-4.0106,-4.0106,-3.9965,-3.9781,-3.8462,-3.8525,-3.8572,-3.8572,-3.867,-3.875,-3.8807,-3.8822,-3.8837,-3.8877,-3.891,-3.891,-3.891,-3.8925,-3.9294,-4.0255,-4.0344,-4.0784,-4.1779,-4.1853,-4.1425,-4.047,-4.0448,-4.0047,-3.9133,-3.9183,-3.9175,-3.9036,-3.9068,-3.9092,-3.9142,-3.9142,-3.917,-3.9224,-3.9224,-3.9301,-3.9405,-3.9418,-3.9418,-3.9431,-3.9495,-3.9089,-3.8434,-3.8332,-3.7474,-3.6273,-3.601,-3.5345,-3.4634,-3.4687,-3.4768,-3.4838,-3.4877,-3.5002,-3.5249,-3.5998,-3.6301,-3.6605,-3.7489,-3.7766,-3.788,-3.8088,-3.8029,-3.775,-3.709,-3.6198,-3.5503,-3.553,-3.5457,-3.5405,-3.5412,-3.5467,-3.5508,-3.5502,-3.5515,-3.5547,-3.5584,-3.5604,-3.561,-3.5616,-3.5614,-3.5643,-3.5684,-3.5704,-3.5709,-3.5695,-3.5695,-3.5695,-3.5701,-3.5701,-3.5701,-3.5701,-3.5701,-3.5701,-3.5695,-3.5695,-3.569,-3.5704,-3.5643,-3.5614,-3.5604,-3.5534,-3.5515,-3.5494,-3.55,-3.542,-3.5373,-3.6255,-3.7031,-3.7797,-3.8667,-3.9443,-4.0106,-4.0067,-3.9911,-3.9701,-3.8762,-3.8788,-3.8848,-3.8848,-3.8848,-3.8881,-3.8896,-3.8896,-3.8896,-3.891,-3.891,-3.891,-3.891,-3.895,-3.9608,-4.1178,-4.1349,-4.2043,-4.3547,-4.3658,-4.2971,-4.1482,-4.1467,-4.077,-3.9221,-3.9301,-3.9301,-3.917,-3.9288,-3.9346,-3.936,-3.936,-3.936,-3.9373,-3.9373,-3.9373,-3.9405,-3.9457,-3.9482,-3.9495,-3.9571,-3.9521,-3.9333,-3.8582,-3.8169,-3.7793,-3.6404,-3.5386,-3.4706,-3.4768,-3.4838,-3.4887,-3.4887,-3.5418,-3.6055,-3.6168,-3.6729,-3.7508,-3.8394,-3.8671,-3.8928,-3.9728,-3.9384,-3.881,-3.8767,-3.7494,-3.6361,-3.6412,-3.5875,-3.5412,-3.5486,-3.5489,-3.5502,-3.5509,-3.5554,-3.5584,-3.5595,-3.5595,-3.5626,-3.5673,-3.5698,-3.5684,-3.5704,-3.5704,-3.5695,-3.5702,-3.5702,-3.5693,-3.5694,-3.5699,-3.5699,-3.5699,-3.5699,-3.5703,-3.5702,-3.5702,-3.5692,-3.5704,-3.5684,-3.5668,-3.5595,-3.5584,-3.5554,-3.5496,-3.5501,-3.546,-3.5456,-3.627,-3.7067,-3.7859,-3.8685,-3.9443,-4.0096,-3.9984,-3.9834,-3.9701,-3.8866,-3.8881,-3.891,-3.891,-3.891,-3.8906,-3.8935,-3.8968,-3.8964,-3.9007,-3.9003,-3.9003,-3.9003,-3.905,-3.9731,-4.1401,-4.1575,-4.2307,-4.4008,-4.4119,-4.339,-4.1777,-4.1749,-4.0999,-3.9352,-3.9418,-3.9444,-3.9367,-3.9386,-3.9405,-3.9405,-3.9405,-3.9418,-3.9457,-3.9457,-3.9482,-3.9502,-3.9527,-3.9558,-3.9558,-3.9596,-3.9589,-3.9552,-3.9212,-3.8792,-3.8153,-3.6531,-3.5735,-3.5371,-3.497,-3.4877,-3.4897,-3.4907,-3.5505,-3.6301,-3.6786,-3.7527,-3.8421,-3.9347,-3.9595,-3.9729,-4.0196,-4.0004,-3.9725,-3.9752,-3.8857,-3.7881,-3.7417,-3.6687,-3.614,-3.622,-3.5843,-3.5502,-3.5559,-3.5577,-3.5614,-3.5643,-3.566,-3.5662,-3.5707,-3.5693,-3.5693,-3.5693,-3.5693,-3.5698,-3.5708,-3.5708,-3.5694,-3.5704,-3.5708,-3.5708,-3.5708,-3.5708,-3.5699,-3.5708,-3.5708,-3.5698,-3.5711,-3.5711,-3.5665,-3.5601,-3.559,-3.556,-3.5509,-3.5501,-3.546,-3.5424,-3.5733,-3.6626,-3.783,-3.815,-3.9023,-4.0096,-3.9986,-3.9856,-3.9701]},{"header":{"parameterUnit":"m.s-1","parameterCategory":1,"la1":30.6,"la2":28.766,"lo1":-90.7593,"lo2":-88.6598,"dy":0.0162,"dx":0.0183,"nx":116,"ny":114,"refTime":"2023-06-30T00:00:00:Z","depth":0,"parameterNumber":3,"parameterNumberName":"V-component_of_WINDS"},"data":[0.0,0.0,0.0,0.0,0.0,0.0,0.0,0.0,0.0,0.0,0.0,0.0,0.0,0.0,0.0,0.0,0.0,0.0,0.0,0.0,0.0,0.0,0.0,0.0,0.0,0.0,0.0,0.0,0.0,0.0,0.0,0.0,0.0,0.0,0.0,0.0,0.0,0.0,0.0,0.0,0.0,0.0,0.0,0.0,0.0,0.0,0.0,0.0,0.0,0.0,0.0,0.0,0.0,0.0,0.0,0.0,0.0,0.0,0.0,0.0,0.0,0.0,0.0,0.0,0.0,0.0,0.0,0.0,0.0,0.0,0.0,0.0,0.0,0.0,0.0,0.0,0.0,0.0,0.0,0.0,0.0,0.0,0.0,0.0,0.0,0.0,0.0,0.0,0.0,0.0,0.0,0.0,0.0,0.0,0.0,0.0,0.0,0.0,0.0,0.0,0.0,0.0,0.0,0.0,0.0,0.0,0.0,0.0,0.0,0.0,0.0,0.0,0.0,0.0,0.0,0.0,0.0,0.0,0.0,0.0,0.0,0.0,0.0,0.0,0.0,0.0,0.0,0.0,0.0,0.0,0.0,0.0,0.0,0.0,0.0,0.0,0.0,0.0,0.0,0.0,0.0,0.0,0.0,0.0,0.0,0.0,0.0,0.0,0.0,0.0,0.0,0.0,0.0,0.0,0.0,0.0,0.0,0.0,0.0,0.0,0.0,0.0,0.0,0.0,0.0,0.0,0.0,0.0,0.0,0.0,0.0,0.0,0.0,0.0,0.0,0.0,0.0,0.0,0.0,0.0,0.0,0.0,0.0,0.0,0.0,0.0,0.0,0.0,0.0,0.0,0.0,0.0,0.0,0.0,0.0,0.0,0.0,0.0,0.0,0.0,0.0,0.0,0.0,0.0,0.0,0.0,0.0,0.0,0.0,0.0,0.0,0.0,0.0,0.0,0.0,0.0,0.0,0.0,0.0,0.0,0.0,0.0,0.0,0.0,0.0,0.0,0.0,0.0,0.0,0.0,0.0,0.0,0.0,0.0,0.0,0.0,0.0,0.0,0.0,0.0,0.0,0.0,0.0,0.0,0.0,0.0,0.0,0.0,0.0,0.0,0.0,0.0,0.0,0.0,0.0,0.0,0.0,0.0,0.0,0.0,0.0,0.0,0.0,0.0,0.0,0.0,0.0,0.0,0.0,0.0,0.0,0.0,0.0,0.0,0.0,0.0,0.0,0.0,0.0,0.0,0.0,0.0,0.0,0.0,0.0,0.0,0.0,0.0,0.0,0.0,0.0,0.0,0.0,0.0,0.0,0.0,0.0,0.0,0.0,0.0,0.0,0.0,0.0,0.0,0.0,0.0,0.0,0.0,0.0,0.0,0.0,0.0,0.0,0.0,0.0,0.0,0.0,0.0,0.0,0.0,0.0,0.0,0.0,0.0,0.0,0.0,0.0,0.0,0.0,0.0,0.0,0.0,0.0,0.0,0.0,0.0,0.0,0.0,0.0,0.0,0.0,0.0,0.0,0.0,0.0,0.0,0.0,0.0,0.0,0.0,0.0,0.0,0.0,0.0,0.0,0.0,0.0,0.0,0.0,0.0,0.0,0.0,0.0,0.0,0.0,0.0,0.0,0.0,0.0,0.0,0.0,0.0,0.0,0.0,0.0,0.0,0.0,0.0,0.0,0.0,0.0,0.0,0.0,0.0,0.0,0.0,0.0,0.0,0.0,0.0,0.0,0.0,0.0,0.0,0.0,0.0,0.0,0.0,0.0,0.0,0.0,0.0,0.0,0.0,0.0,0.0,0.0,0.0,0.0,0.0,0.0,0.0,0.0,0.0,0.0,0.0,0.0,0.0,0.0,0.0,0.0,0.0,0.0,0.0,0.0,0.0,0.0,0.0,0.0,0.0,0.0,0.0,0.0,0.0,0.0,0.0,0.0,0.0,0.0,0.0,0.0,0.0,0.0,0.0,0.0,0.0,0.0,0.0,0.0,0.0,0.0,0.0,0.0,0.0,0.0,0.0,0.0,0.0,0.0,0.0,0.0,0.0,0.0,0.0,0.0,0.0,0.0,0.0,0.0,0.0,0.0,0.0,0.0,0.0,0.0,0.0,0.0,0.0,0.0,0.0,0.0,0.0,0.0,0.0,0.0,0.0,0.0,0.0,0.0,0.0,0.0,0.0,0.0,0.0,0.0,0.0,0.0,0.0,0.0,0.0,0.0,0.0,0.0,0.0,0.0,0.0,0.0,0.0,0.0,0.0,0.0,0.0,0.0,0.0,0.0,0.0,0.0,0.0,0.0,0.0,0.0,0.0,0.0,0.0,0.0,0.0,0.0,0.0,0.0,0.0,0.0,0.0,0.0,0.0,0.0,0.0,0.0,0.0,0.0,0.0,0.0,0.0,0.0,0.0,0.0,0.0,0.0,0.0,0.0,0.0,0.0,0.0,0.0,0.0,0.0,0.0,0.0,0.0,0.0,0.0,0.0,0.0,0.0,0.0,0.0,0.0,0.0,0.0,0.0,0.0,0.0,0.0,0.0,0.0,0.0,0.0,0.0,0.0,0.0,0.0,0.0,0.0,0.0,0.0,0.0,0.0,0.0,0.0,0.0,0.0,0.0,0.0,0.0,0.0,0.0,0.0,0.0,0.0,0.0,0.0,0.0,0.0,0.0,0.0,0.0,0.0,0.0,0.0,0.0,0.0,0.0,0.0,0.0,0.0,0.0,0.0,0.0,0.0,0.0,0.0,0.0,0.0,0.0,0.0,0.0,0.0,0.0,0.0,0.0,0.0,0.0,0.0,0.0,0.0,0.0,0.0,0.0,0.0,0.0,0.0,0.0,0.0,0.0,0.0,0.0,0.0,0.0,0.0,0.0,0.0,0.0,0.0,0.0,0.0,0.0,0.0,0.0,0.0,0.0,0.0,0.0,0.0,0.0,0.0,0.0,0.0,0.0,0.0,0.0,0.0,0.0,0.0,0.0,0.0,0.0,0.0,0.0,0.0,0.0,0.0,0.0,0.0,0.0,0.0,0.0,0.0,0.0,0.0,0.0,0.0,0.0,0.0,0.0,0.0,0.0,0.0,0.0,0.0,0.0,0.0,0.0,0.0,0.0,0.0,0.0,0.0,0.0,0.0,0.0,0.0,0.0,0.0,0.0,0.0,0.0,0.0,0.0,0.0,0.0,0.0,0.0,0.0,0.0,0.0,0.0,0.0,0.0,0.0,0.0,0.0,0.0,0.0,0.0,0.0,0.0,0.0,0.0,0.0,0.0,0.0,0.0,0.0,0.0,0.0,0.0,0.0,0.0,0.0,0.0,0.0,0.0,0.0,0.0,0.0,0.0,0.0,0.0,0.0,0.0,0.0,0.0,0.0,0.0,0.0,0.0,0.0,0.0,0.0,0.0,0.0,0.0,0.0,0.0,0.0,0.0,0.0,0.0,0.0,0.0,0.0,0.0,0.0,0.0,0.0,0.0,0.0,0.0,0.0,0.0,0.0,0.0,0.0,0.0,0.0,0.0,0.0,0.0,0.0,0.0,0.0,0.0,0.0,0.0,0.0,0.0,0.0,0.0,0.0,0.0,0.0,0.0,0.0,0.0,0.0,0.0,0.0,0.0,0.0,0.0,0.0,0.0,0.0,0.0,0.0,0.0,0.0,0.0,0.0,0.0,0.0,0.0,0.0,0.0,0.0,0.0,0.0,0.0,0.0,0.0,0.0,0.0,0.0,0.0,0.0,0.0,0.0,0.0,0.0,0.0,0.0,0.0,0.0,0.0,0.0,0.0,0.0,0.0,0.0,0.0,0.0,0.0,0.0,0.0,0.0,0.0,0.0,0.0,0.0,0.0,0.0,0.0,0.0,0.0,0.0,0.0,0.0,0.0,0.0,0.0,0.0,0.0,0.0,0.0,0.0,0.0,0.0,0.0,0.0,0.0,0.0,0.0,0.0,0.0,0.0,0.0,0.0,0.0,0.0,0.0,0.0,0.0,0.0,0.0,0.0,0.0,0.0,0.0,0.0,0.0,0.0,0.0,0.0,0.0,0.0,0.0,0.0,0.0,0.0,0.0,0.0,0.0,0.0,0.0,0.0,0.0,0.0,0.0,0.0,0.0,0.0,0.0,0.0,0.0,0.0,0.0,0.0,0.0,0.0,0.0,0.0,0.0,0.0,0.0,0.0,0.0,0.0,0.0,0.0,0.0,0.0,0.0,0.0,0.0,0.0,0.0,0.0,0.0,0.0,0.0,0.0,0.0,0.0,0.0,0.0,0.0,0.0,0.0,0.0,0.0,0.0,0.0,0.0,0.0,0.0,0.0,0.0,0.0,0.0,0.0,0.0,0.0,0.0,0.0,0.0,0.0,0.0,0.0,0.0,0.0,0.0,0.0,0.0,0.0,0.0,0.0,0.0,0.0,0.0,0.0,0.0,0.0,0.0,0.0,0.0,0.0,0.0,0.0,0.0,0.0,0.0,0.0,0.0,0.0,0.0,0.0,0.0,0.0,0.0,0.0,0.0,0.0,0.0,0.0,0.0,0.0,0.0,0.0,0.0,0.0,0.0,0.0,0.0,0.0,0.0,0.0,0.0,0.0,0.0,0.0,0.0,0.0,0.0,0.0,0.0,0.0,0.0,0.0,0.0,0.0,0.0,0.0,0.0,0.0,0.0,0.0,0.0,0.0,0.0,0.0,0.0,0.0,0.0,0.0,0.0,0.0,0.0,0.0,0.0,0.0,0.0,0.0,0.0,0.0,0.0,0.0,0.0,0.0,0.0,0.0,0.0,0.0,0.0,0.0,0.0,0.0,0.0,0.0,0.0,0.0,0.0,0.0,0.0,0.0,0.0,0.0,0.0,0.0,0.0,0.0,0.0,0.0,0.0,0.0,0.0,0.0,0.0,0.0,0.0,0.0,0.0,0.0,0.0,0.0,0.0,0.0,0.0,0.0,0.0,0.0,0.0,0.0,0.0,0.0,0.0,0.0,0.0,0.0,0.0,0.0,0.0,0.0,0.0,0.0,0.0,0.0,0.0,0.0,0.0,0.0,0.0,0.0,0.0,0.0,0.0,0.0,0.0,0.0,0.0,0.0,0.0,0.0,0.0,0.0,0.0,0.0,0.0,0.0,0.0,0.0,0.0,0.0,0.0,0.0,0.0,0.0,0.0,0.0,0.0,0.0,0.0,0.0,0.0,0.0,0.0,0.0,0.0,0.0,0.0,0.0,0.0,0.0,0.0,0.0,0.0,0.0,0.0,0.0,0.0,0.0,0.0,0.0,0.0,0.0,0.0,0.0,0.0,0.0,0.0,0.0,0.0,0.0,0.0,0.0,0.0,0.0,0.0,0.0,0.0,0.0,0.0,0.0,0.0,0.0,0.0,0.0,0.0,0.0,0.0,0.0,0.0,0.0,0.0,0.0,0.0,0.0,0.0,0.0,0.0,0.0,0.0,0.0,0.0,0.0,0.0,0.0,0.0,0.0,0.0,0.0,0.0,0.0,0.0,0.0,0.0,0.0,0.0,0.0,0.0,0.0,0.0,0.0,0.0,0.0,0.0,0.0,0.0,0.0,0.0,0.0,0.0,0.0,0.0,0.0,0.0,0.0,0.0,0.0,0.0,0.0,0.0,0.0,0.0,0.0,0.0,0.0,0.0,0.0,0.0,0.0,0.0,0.0,0.0,0.0,0.0,0.0,0.0,0.0,0.0,0.0,0.0,0.0,0.0,0.0,0.0,0.0,0.0,0.0,0.0,0.0,0.0,0.0,0.0,0.0,0.0,0.0,0.0,0.0,0.0,0.0,0.0,0.0,0.0,0.0,0.0,0.0,0.0,0.0,0.0,0.0,0.0,0.0,0.0,0.0,0.0,0.0,0.0,0.0,0.0,0.0,0.0,0.0,0.0,0.0,0.0,0.0,0.0,0.0,0.0,0.0,0.0,0.0,0.0,0.0,0.0,0.0,0.0,0.0,0.0,0.0,0.0,0.0,0.0,0.0,0.0,0.0,0.0,0.0,0.0,0.0,0.0,0.0,0.0,0.0,0.0,0.0,0.0,0.0,0.0,0.0,0.0,0.0,0.0,0.0,0.0,0.0,0.0,0.0,0.0,0.0,0.0,-1.4535,-1.4428,0.0,0.0,0.0,0.0,0.0,0.0,0.0,0.0,0.0,0.0,0.0,0.0,0.0,0.0,0.0,0.0,0.0,0.0,0.0,0.0,0.0,0.0,0.0,0.0,0.0,0.0,0.0,0.0,0.0,0.0,0.0,0.0,0.0,0.0,0.0,0.0,0.0,0.0,0.0664,-0.0038,-0.0923,-0.177,-0.2544,-0.3231,0.0,0.0,0.0,0.0,0.0,0.0,0.0,0.0,0.0,0.0,0.0,0.0,0.0,0.0,0.0,0.0,0.0,0.0,0.0,0.0,0.0,0.0,0.0,0.0,0.0,0.0,0.0,0.0,0.0,0.0,0.0,0.0,0.0,0.0,0.0,0.0,0.0,0.0,0.0,0.0,0.0,0.0,0.0,0.0,0.0,0.0,0.0,0.0,0.0,0.0,0.0,0.0,0.0,0.0,0.0,0.0,0.0,0.0,0.0,0.0,0.0,0.0,0.0,0.0,0.0,0.0,0.0,0.0,0.0,0.0,-1.5285,-1.503,0.0,0.0,0.0,0.0,0.0,0.0,0.0,0.0,0.0,0.0,0.0,0.0,0.0,0.0,0.0,0.0,0.0,0.0,0.0,0.0,0.0,0.0,0.0,0.0,0.0,0.0,0.0,0.0,0.0,0.0,0.0,0.0,0.0,0.0,0.0,0.0,0.0,0.0,0.1182,0.0315,-0.086,-0.1512,-0.2162,-0.2855,-0.3722,0.0,0.0,0.0,0.0,0.0,0.0,0.0,0.0,0.0,0.0,0.0,0.0,0.0,0.0,0.0,0.0,0.0,0.0,0.0,0.0,0.0,0.0,0.0,0.0,0.0,0.0,0.0,0.0,0.0,0.0,0.0,0.0,0.0,0.0,0.0,0.0,0.0,0.0,0.0,0.0,0.0,0.0,0.0,0.0,0.0,0.0,0.0,0.0,0.0,0.0,0.0,0.0,0.0,0.0,0.0,0.0,0.0,0.0,0.0,0.0,0.0,0.0,0.0,-1.531,-1.561,-1.571,-1.6234,-1.6412,-1.643,-1.6094,-1.5817,-1.5531,-1.5642,0.0,0.0,0.0,0.0,0.0,0.0,0.0,0.0,0.0,0.0,0.0,0.0,0.0,0.0,0.0,0.0,0.0,0.0,0.0,0.0,0.0,0.0,0.4183,0.4234,0.4466,0.0,0.0,0.0,0.0,0.0,0.0,0.0,0.0,0.326,0.2823,0.2445,0.1517,0.0666,-0.0126,-0.0753,-0.1418,-0.2196,-0.3579,-0.4518,-0.5154,0.0,0.0,0.0,0.0,0.0,0.0,0.0,0.0,0.0,0.0,0.0,0.0,0.0,0.0,0.0,0.0,0.0,0.0,0.0,0.0,0.0,0.0,0.0,0.0,0.0,0.0,0.0,0.0,0.0,0.0,0.0,0.0,0.0,0.0,0.0,0.0,0.0,0.0,0.0,0.0,0.0,-0.7959,-0.8008,0.0,0.0,0.0,0.0,0.0,0.0,0.0,0.0,0.0,0.0,0.0,0.0,0.0,-1.3071,-1.3796,-1.4151,-1.455,-1.5028,-1.5603,-1.6064,-1.6565,-1.6842,-1.6977,-1.6983,-1.6979,0.0,-1.6489,-1.6218,0.0,0.0,0.0,0.0,0.0,0.0,0.0,0.0,0.0,0.0,0.0,0.0,0.0,0.0,0.0,0.0,0.0,0.0,0.0,0.0,0.0,0.0,0.4574,0.4927,0.5192,0.0,0.0,0.0,0.0,0.0,0.0,0.0,0.4592,0.4033,0.3355,0.2653,0.184,0.11,0.0386,-0.0428,-0.125,-0.218,-0.3279,-0.4224,-0.5117,-0.6081,0.0,0.0,0.0,0.0,0.0,0.0,0.0,0.0,0.0,0.0,0.0,0.0,0.0,0.0,0.0,0.0,0.0,0.0,0.0,0.0,0.0,0.0,0.0,0.0,0.0,0.0,0.0,0.0,0.0,0.0,0.0,0.0,0.0,0.0,0.0,0.0,0.0,0.0,0.0,-0.7927,-0.8096,-0.8071,-0.8248,-0.8392,0.0,0.0,0.0,0.0,0.0,0.0,0.0,0.0,0.0,-1.2108,-1.2851,-1.3504,-1.4079,-1.4615,-1.513,-1.5728,-1.5949,-1.6288,-1.6685,-1.6962,-1.7081,-1.7085,-1.733,-1.7318,-1.7154,-1.6666,-1.648,-1.6446,0.0,0.0,0.0,0.0,-1.6218,-1.6218,0.0,0.0,0.0,0.0,0.0,0.0,0.0,0.0,0.0,0.0,0.0,0.0,0.4207,0.4637,0.5047,0.5545,0.0,0.0,0.0,0.0,0.0,0.0,0.0,0.5499,0.5385,0.4673,0.3831,0.2969,0.2345,0.1637,0.0963,0.0088,-0.0927,-0.1973,-0.2866,-0.3931,-0.5113,-0.6168,-0.7204,-0.8253,0.0,0.0,0.0,0.0,0.0,0.0,0.0,0.0,0.0,0.0,0.0,0.0,0.0,0.0,0.0,0.0,0.0,0.0,0.0,0.0,0.0,0.0,0.0,0.0,0.0,0.0,0.0,0.0,0.0,0.0,0.0,0.0,0.0,0.0,0.0,0.0,0.0,-0.8037,-0.8154,-0.8147,-0.8405,-0.8613,0.0,0.0,0.0,0.0,0.0,0.0,-1.0721,-1.1308,-1.1811,-1.2264,-1.3142,-1.3816,-1.4243,-1.4876,-1.5479,-1.605,-1.622,-1.6488,-1.6786,-1.7047,-1.7142,-1.7106,-1.7364,-1.7487,-1.7443,-1.7034,-1.682,-1.6814,-1.6734,-1.6707,-1.6707,-1.6707,-1.6707,-1.6707,0.0,0.0,0.0,0.0,0.0,0.0,0.0,0.0,0.0,0.0,0.0,0.3901,0.4273,0.5167,0.5757,0.5764,0.6442,0.6853,0.0,0.0,0.0,0.656,0.6374,0.613,0.5867,0.495,0.4243,0.373,0.314,0.2458,0.1747,0.0985,0.0,-0.1211,-0.2417,-0.3754,-0.514,-0.5954,-0.7218,-0.8728,-0.9629,0.0,0.0,0.0,0.0,0.0,0.0,0.0,0.0,0.0,0.0,0.0,0.0,0.0,0.0,0.0,0.0,0.0,0.0,0.0,0.0,0.0,0.0,0.0,0.0,0.0,0.0,0.0,0.0,0.0,0.0,0.0,0.0,0.0,0.0,0.0,0.0,0.0,0.0,-0.826,-0.8286,0.0,0.0,0.0,0.0,-0.955,-1.0213,-1.0574,-1.0595,-1.1469,-1.2118,-1.2363,-1.3099,-1.3776,-1.4354,-1.4705,-1.5107,-1.574,-1.631,-1.6733,-1.6973,-1.735,-1.7365,-1.7092,-1.7119,-1.7178,-1.7206,-1.7203,-1.7179,-1.7146,-1.6814,-1.6707,-1.6707,-1.6707,-1.6707,-1.6707,0.0,0.0,0.0,0.0,0.0,0.0,0.0,0.0,0.0,0.3123,0.3597,0.4108,0.4756,0.5399,0.5949,0.6273,0.6779,0.7219,0.745,0.0,0.0,0.7176,0.7086,0.679,0.638,0.5662,0.5,0.4387,0.3707,0.2914,0.2019,0.1121,0.0045,-0.1166,-0.2195,-0.352,-0.5127,-0.6306,-0.7688,-0.9095,-1.0139,-1.1363,0.0,0.0,0.0,0.0,0.0,0.0,0.0,0.0,0.0,0.0,0.0,0.0,0.0,0.0,0.0,0.0,0.0,0.0,0.0,0.0,0.0,0.0,0.0,0.0,0.0,0.0,0.0,0.0,0.0,0.0,0.0,0.0,0.0,0.0,0.0,0.0,0.0,-0.7999,-0.8204,0.0,-0.8658,-0.9122,-0.9489,-0.9654,-1.0156,-1.0604,-1.0923,-1.1588,-1.2125,-1.2501,-1.3346,-1.3958,-1.431,-1.4797,-1.5322,-1.5948,-1.6177,-1.6522,-1.702,-1.7096,-1.7156,-1.7123,-1.7086,-1.7005,-1.6889,-1.6891,-1.7115,-1.7467,-1.7315,-1.7268,-1.7268,-1.7268,-1.7268,-1.7268,0.0,0.0,0.0,0.0,0.0,0.0,0.0,0.0,0.0,0.3266,0.3656,0.4202,0.5027,0.5605,0.6118,0.6574,0.7083,0.7531,0.7765,0.0,0.0,0.7802,0.7721,0.7379,0.6705,0.6189,0.5589,0.4928,0.4094,0.3238,0.2396,0.1286,0.0177,-0.1065,-0.2144,-0.3623,-0.5317,-0.682,-0.8249,-0.9554,-1.0868,-1.2153,-1.3366,0.0,0.0,0.0,0.0,0.0,0.0,0.0,0.0,0.0,0.0,0.0,0.0,0.0,0.0,0.0,0.0,0.0,0.0,0.0,0.0,0.0,0.0,0.0,0.0,0.0,0.0,0.0,0.0,0.0,0.0,0.0,0.0,0.0,0.0,-0.7791,-0.7862,-0.7868,-0.817,-0.8456,-0.8663,-0.9127,-0.9495,-0.9764,-1.0166,-1.0554,-1.1049,-1.1543,-1.2078,-1.2529,-1.325,-1.3829,-1.4246,-1.4687,-1.518,-1.5779,-1.5963,-1.6377,-1.6844,-1.6961,-1.697,-1.6968,-1.6968,-1.682,-1.6577,-1.6577,-1.6842,-1.7318,-1.743,-1.7536,-1.7582,-1.7582,-1.7582,-1.7582,0.0,0.0,0.0,0.0,0.0,0.0,0.0,0.0,0.0,0.3325,0.3705,0.4211,0.5036,0.5754,0.631,0.6585,0.7315,0.7804,0.7804,0.7991,0.0,0.8423,0.8346,0.7866,0.6979,0.6587,0.6077,0.5416,0.4387,0.3518,0.2777,0.1561,0.0347,-0.0913,-0.2306,-0.3976,-0.5838,-0.7559,-0.8965,-1.0188,-1.1735,-1.336,-1.4824,0.0,0.0,0.0,0.0,0.0,0.0,0.0,0.0,0.0,0.0,0.0,0.0,0.0,0.0,0.0,0.0,0.0,0.0,0.0,0.0,0.0,0.0,0.0,0.0,0.0,0.0,0.0,0.0,0.0,0.0,0.0,0.0,0.0,-0.783,-0.7862,-0.7868,-0.7971,-0.8177,-0.8425,-0.8681,-0.9011,-0.9409,-0.9942,-1.0159,-1.0501,-1.0968,-1.142,-1.1951,-1.2447,-1.293,-1.3509,-1.4172,-1.4476,-1.4764,-1.5116,-1.5779,-1.6188,-1.6467,-1.6832,-1.6842,-1.6688,-1.6688,-1.6551,-1.6271,-1.6271,-1.6424,-1.673,-1.7067,-1.7384,-1.7582,-1.7582,-1.7582,-1.7582,0.0,0.0,0.0,0.0,0.0,0.0,0.0,0.0,0.0,0.3311,0.3736,0.4302,0.5142,0.5636,0.6164,0.6775,0.7302,0.7718,0.7991,0.0,0.0,0.8824,0.8501,0.8135,0.7869,0.7078,0.6346,0.5633,0.46,0.3602,0.2563,0.1367,-0.0043,-0.1605,-0.2966,-0.4708,-0.6854,-0.8813,-1.097,-1.3126,-1.3719,-1.5067,-1.6822,0.0,0.0,0.0,0.0,0.0,0.0,0.0,0.0,0.0,0.0,0.0,0.0,0.0,0.0,0.0,0.0,0.0,0.0,0.0,0.0,0.0,0.0,0.0,0.0,0.0,0.0,0.0,0.0,0.0,0.0,0.0,-0.7458,-0.7552,-0.7681,-0.7767,-0.7868,-0.7971,-0.8177,-0.8361,-0.8519,-0.897,-0.9295,-0.9519,-1.001,-1.0441,-1.0853,-1.1372,-1.189,-1.2273,-1.2873,-1.3389,-1.3808,-1.4172,-1.4585,-1.5116,-1.5294,-1.5558,-1.5915,-1.6211,-1.6286,-1.6135,-1.6343,-1.626,-1.5998,-1.5998,-1.6158,-1.6477,-1.7014,-1.7232,-1.7331,-1.7536,-1.7582,-1.7582,0.0,0.0,0.0,0.0,0.0,0.0,0.0,0.0,0.0,0.0,0.3623,0.4214,0.4985,0.5444,0.5998,0.6723,0.7288,0.7753,0.8063,0.0,0.8834,0.8991,0.8814,0.8533,0.8197,0.7363,0.6495,0.5651,0.4583,0.345,0.224,0.0875,-0.0625,-0.2194,-0.3904,-0.5904,-0.8147,-1.0401,-1.2961,-1.5682,-1.6811,-1.7827,-1.8742,-1.9494,-1.9793,-1.9736,-1.9438,-1.8873,-1.8165,-1.7705,0.0,0.0,0.0,0.0,0.0,0.0,0.0,0.0,0.0,0.0,0.0,0.0,0.0,0.0,0.0,0.0,0.0,0.0,0.0,0.0,0.0,0.0,0.0,0.0,-0.7351,-0.7382,-0.7349,-0.7476,-0.7592,-0.7677,-0.7871,-0.8082,-0.8318,-0.8676,-0.9057,-0.9372,-0.971,-1.0181,-1.0747,-1.1109,-1.1562,-1.2165,-1.2719,-1.3103,-1.3383,-1.3857,-1.4281,-1.4659,-1.477,-1.5103,-1.5554,-1.5726,-1.5739,-1.5693,-1.6016,-1.5976,-1.5737,-1.5838,-1.5998,0.0,0.0,0.0,0.0,0.0,-1.7582,-1.7582,0.0,0.0,0.0,0.0,0.0,0.0,0.0,0.0,0.0,0.0,0.0,0.401,0.4626,0.5234,0.5858,0.6535,0.7288,0.7863,0.0,0.8857,0.9205,0.9046,0.9222,0.8951,0.8245,0.7474,0.6571,0.5551,0.4362,0.3106,0.1828,0.0202,-0.1375,-0.3002,-0.5186,-0.7489,-0.9834,-1.2272,-1.5055,-1.8004,-2.0379,-2.1068,-2.0755,-2.1267,-2.156,-2.1604,-2.1071,-2.0278,-1.9392,-1.8716,0.0,0.0,0.0,0.0,0.0,0.0,0.0,0.0,0.0,0.0,0.0,0.0,0.0,0.0,0.0,0.0,0.0,0.0,0.0,0.0,0.0,0.0,0.0,0.0,-0.7106,-0.7098,-0.7,-0.7066,-0.7138,-0.7188,-0.7416,-0.7685,-0.8013,-0.8307,-0.8692,-0.9265,-0.9379,-0.9786,-1.0601,-1.0751,0.0,0.0,0.0,-1.2656,-1.2822,-1.3455,-1.3828,-1.393,-1.4262,-1.4756,-1.5248,-1.5305,-1.5339,-1.5312,-1.5652,-1.5693,-1.5535,-1.5737,-1.5891,-1.5945,-1.6217,-1.6649,-1.7232,-1.7483,-1.7582,-1.7582,0.0,0.0,0.0,0.0,0.0,0.0,0.0,0.0,0.0,0.2921,0.3328,0.3844,0.4626,0.5087,0.5705,0.6535,0.7022,0.7599,0.8289,0.8936,0.9282,0.9241,0.9264,0.9038,0.8548,0.7537,0.6473,0.5376,0.4043,0.2567,0.1014,-0.0596,-0.254,-0.4804,-0.7015,-0.943,-1.2081,-1.4876,-1.77,-2.0516,-2.2968,-2.3699,-2.3391,-2.4095,-2.4179,-2.3773,-2.2806,-2.1652,-2.0444,-1.9442,-1.8813,-1.8254,-1.7617,-1.7489,0.0,0.0,0.0,0.0,0.0,0.0,0.0,0.0,0.0,0.0,0.0,0.0,0.0,0.0,0.0,0.0,0.0,0.0,0.0,-0.7181,-0.694,-0.6754,-0.684,-0.6675,-0.6736,-0.7138,-0.7385,-0.758,-0.7691,-0.8062,-0.8423,-0.8644,-0.9099,-0.9513,-0.9805,-1.0459,-1.0852,-1.1093,-1.1766,-1.2169,-1.2259,-1.2662,-1.3102,-1.3583,0.0,0.0,-1.4378,-1.4833,-1.4971,-1.478,-1.5056,-1.5302,-1.5482,-1.5535,-1.5684,-1.5945,-1.6217,-1.6649,-1.7232,-1.7279,-1.743,-1.7549,0.0,0.0,0.0,0.0,0.0,0.0,0.0,0.0,0.0,0.0,0.3125,0.3585,0.4225,0.4792,0.5417,0.6156,0.7007,0.0,0.8365,0.8976,0.9282,0.9282,0.9303,0.9039,0.8465,0.7386,0.6205,0.4944,0.3442,0.1812,0.004,-0.1805,-0.3954,-0.64,-0.8972,-1.1677,-1.4484,-1.7448,-2.0207,-2.2794,-2.4989,-2.6275,-2.6809,-2.657,-2.617,-2.5642,-2.4336,-2.2774,-2.124,-2.0139,-1.9203,-1.8408,-1.7909,-1.7837,-1.7847,0.0,0.0,0.0,0.0,0.0,0.0,0.0,0.0,0.0,0.0,0.0,0.0,0.0,0.0,-0.7629,-0.7361,0.0,-0.6934,-0.6905,-0.6608,-0.6404,-0.6376,-0.6189,-0.6187,-0.6736,-0.6952,-0.7133,-0.7369,-0.766,-0.7956,-0.8254,-0.8709,-0.9106,-0.937,-0.9905,-1.0387,-1.0763,-1.1371,-1.1682,-1.1724,-1.223,-1.2632,-1.2976,-1.3315,-1.3538,-1.3701,-1.4145,-1.4293,-1.4175,-1.4606,-1.4874,-1.5095,-1.5374,-1.5636,-1.5891,-1.6051,-1.6377,-1.6808,-1.7073,-1.7279,-1.7391,0.0,0.0,0.0,0.0,0.0,0.0,0.0,0.0,0.0,0.0,0.2956,0.3328,0.38,0.4504,0.5216,0.0,0.0,0.7902,0.8246,0.886,0.9185,0.9185,0.917,0.8858,0.8155,0.7102,0.5835,0.4369,0.266,0.0836,-0.1093,-0.3193,-0.5541,-0.8074,-1.1068,-1.3976,-1.6879,-1.9987,-2.2611,-2.4908,-2.6898,-2.8607,-2.9818,-2.8712,-2.7944,-2.7215,-2.5633,-2.3774,-2.1869,-2.0643,-1.9469,-1.8458,-1.8106,-1.804,-1.8012,-1.7742,-1.7656,0.0,0.0,0.0,0.0,0.0,0.0,0.0,0.0,-0.9317,-0.8631,-0.8002,-0.7606,-0.7276,-0.7004,-0.6805,-0.6628,-0.6489,-0.6233,-0.6038,-0.5929,-0.5737,-0.5734,-0.6187,-0.6342,-0.6613,-0.6995,-0.7229,-0.7466,-0.787,-0.8211,-0.8592,-0.9047,-0.9359,-0.9816,-1.049,-1.093,-1.1204,-1.1251,-1.181,-1.2114,-1.2278,-1.2604,-1.2935,-1.3152,-1.3478,-1.364,-1.3753,-1.4337,-1.4606,-1.4659,-1.5208,-1.5583,-1.5838,-1.5838,-1.6004,-1.6271,-1.6802,-1.712,-1.718,0.0,0.0,0.0,0.0,0.0,0.0,0.0,0.0,0.0,0.0,0.0,0.0,0.0,0.0,0.0,0.0,0.7049,0.7633,0.7859,0.8421,0.8785,0.8785,0.8756,0.8358,0.7503,0.6505,0.5165,0.3522,0.1664,-0.0391,-0.2614,-0.4848,-0.7327,-0.9953,-1.3324,-1.6259,-1.8904,-2.2338,-2.4918,-2.6868,-2.8917,-3.0188,-3.0729,-3.0479,-2.9637,-2.8384,-2.6591,-2.45,-2.2392,-2.0809,-1.967,-1.8774,-1.8183,-1.8161,-1.8345,-1.8301,-1.8132,-1.7883,-1.7631,-1.6424,-1.4905,-1.369,-1.2342,-1.1075,0.0,-0.9015,-0.8237,-0.7517,-0.7237,-0.6976,-0.6552,-0.6342,-0.6201,-0.5917,-0.5755,-0.5672,-0.5634,-0.5636,-0.5636,-0.5687,-0.5831,-0.6044,-0.6466,-0.6802,-0.7199,-0.7598,-0.7881,-0.8217,-0.8562,-0.9023,-0.9325,-0.9547,-1.0242,-1.0631,-1.078,-1.1105,-1.1371,-1.1678,-1.2223,-1.2491,-1.2495,-1.3098,-1.3478,-1.3753,-1.4337,-1.4606,-1.46,-1.4928,-1.5256,-1.5535,-1.5535,-1.569,-1.5998,-1.6271,-1.6749,-1.7101,0.0,0.0,0.0,0.0,0.0,0.0,0.0,0.0,0.0,0.0,0.0,0.0,0.0,0.0,0.0,0.5916,0.6583,0.7176,0.7595,0.8086,0.8392,0.8506,0.841,0.7967,0.713,0.5975,0.4503,0.2698,0.0588,-0.1635,-0.3966,-0.6565,-0.9379,-1.2401,-1.5646,-1.8768,-2.1745,-2.4733,-2.7083,-2.886,-3.0209,-3.118,-3.1757,-3.119,-3.0192,-2.8766,-2.6669,-2.4547,0.0,-2.0666,-1.9426,-1.849,-1.7848,-1.7716,-1.7838,-1.7838,-1.7676,-1.7294,-1.655,-1.547,-1.4216,-1.2899,-1.1809,-1.0735,-0.9371,-0.8572,-0.787,-0.7127,-0.6768,-0.6475,-0.6136,-0.594,-0.582,-0.5721,-0.5511,-0.5388,-0.5388,-0.5236,-0.5157,-0.5264,-0.5356,-0.5591,-0.6107,-0.6376,-0.665,-0.7041,-0.7379,-0.7657,-0.7937,-0.8487,-0.8883,-0.9096,-0.9606,-0.9942,-1.0143,-1.0637,-1.0966,-1.1076,-1.1678,-1.2005,-1.2164,-1.2604,-1.3044,-1.3478,-1.391,-1.4175,-1.4385,-1.4659,-1.4934,-1.5208,-1.5428,-1.5589,-1.5743,-1.6164,-1.6483,-1.662,0.0,0.0,0.0,0.0,0.0,0.0,0.0,0.0,0.0,0.0,0.0,0.0,0.0,0.0,0.4736,0.5492,0.601,0.6598,0.7215,0.7567,0.7872,0.8068,0.7881,0.7364,0.6486,0.5209,0.3618,0.168,-0.0662,-0.3068,-0.5505,-0.8378,-1.1453,-1.4667,-1.7896,-2.1047,-2.4098,-2.6738,-2.8864,-3.0437,-3.1232,-3.1909,-3.2375,-3.1404,-3.0178,-2.8639,-2.6566,-2.4422,-2.2278,-2.0389,-1.9098,-1.8201,-1.7514,-1.731,-1.731,-1.7229,-1.6935,-1.6386,-1.5352,-1.4384,-1.3398,-1.2143,-1.1196,-1.0258,-0.8877,-0.8098,-0.7462,-0.6706,-0.6279,-0.5969,-0.5672,-0.5537,-0.5436,-0.5286,-0.509,-0.4939,-0.4889,-0.4706,-0.4643,-0.4757,-0.4812,-0.504,-0.5465,-0.5825,-0.6189,-0.6543,-0.6879,-0.7213,-0.7493,-0.7989,-0.8374,-0.8647,-0.904,-0.9375,-0.9537,-1.0143,-1.0472,-1.0472,-1.1076,-1.1459,-1.1678,-1.2169,-1.2659,-1.3098,-1.3423,-1.3748,-1.3954,-1.4229,-1.4498,-1.4821,-1.5148,-1.5315,-1.5422,-1.5903,-1.617,-1.6302,0.0,0.0,0.0,0.0,0.0,0.0,0.0,0.0,0.0,0.0,0.0,0.0,0.0,0.0,0.4115,0.4862,0.5357,0.5896,0.6602,0.6834,0.7026,0.7227,0.7034,0.6451,0.5365,0.4107,0.2422,0.0351,-0.2138,-0.4686,-0.7377,-1.0404,-1.3419,-1.6454,-1.9951,-2.29,-2.5431,-2.818,-3.0109,-3.1419,-3.2102,-3.237,-3.2274,-3.1146,-2.9662,-2.792,-2.6365,-2.4192,-2.1752,-1.9923,-1.8763,-1.7919,-1.7302,-1.7098,-1.7057,-1.6812,-1.6105,-1.5269,-1.4391,-1.3464,-1.2508,-1.1579,-1.0562,-0.9578,-0.8525,-0.7644,-0.6882,-0.6309,-0.5906,-0.5532,-0.5286,-0.5238,-0.5039,-0.4539,-0.4438,-0.4338,-0.4085,-0.4096,-0.4145,-0.4147,-0.4226,-0.4317,-0.437,-0.521,-0.5931,-0.6274,-0.6548,-0.6879,-0.721,-0.7493,-0.7771,-0.8045,-0.8592,-0.8923,-0.8923,-0.9537,-0.9816,-0.9816,-1.0417,-1.0747,-1.0802,-1.1891,-1.2387,-1.2441,-1.3039,-1.3315,-1.3369,-1.3645,-1.3905,-1.4277,-1.4493,-1.4767,-1.5041,-1.5428,-1.585,-1.6243,0.0,0.0,0.0,0.0,0.0,0.0,0.0,0.0,0.0,0.0,0.0,0.0,0.0,0.0,0.0,0.0,0.4517,0.5035,0.5702,0.5935,0.6047,0.6128,0.5938,0.5431,0.4535,0.3125,0.1405,-0.0702,-0.3223,-0.5873,-0.8656,-1.1987,-1.5276,-1.8526,-2.1838,-2.482,-2.7482,-2.9675,-3.1202,-3.2284,-3.3275,-3.3379,-3.292,-3.2227,-3.0499,-2.8144,0.0,-2.3724,-2.1524,-1.9698,-1.8416,-1.7473,-1.6845,-1.6435,-1.6023,-1.5352,-1.4761,-1.4084,-1.3209,-1.24,-1.1554,-1.0553,-0.9672,-0.8753,-0.7893,-0.7122,-0.6473,-0.5931,-0.5413,-0.4985,-0.4738,-0.4537,-0.4353,-0.4203,-0.4212,-0.4178,-0.4124,-0.4154,-0.4187,-0.4238,-0.4288,-0.4337,-0.4439,-0.4912,-0.5344,-0.5745,-0.6032,-0.6372,-0.665,-0.7107,-0.741,-0.749,-0.7986,-0.8318,-0.8318,-0.8927,-0.9203,-0.9199,-1.0194,-1.0692,-1.0747,-1.1509,-1.1896,-1.1896,-1.2441,-1.2713,-1.2767,-1.3207,-1.3478,-1.3635,-1.4116,-1.4385,-1.453,-1.4858,-1.5217,-1.5525,0.0,0.0,0.0,0.0,0.0,0.0,0.0,0.0,0.0,0.0,0.0,0.0,0.0,0.0,0.0,0.0,0.0,0.4121,0.473,0.4965,0.5079,0.5157,0.4929,0.4382,0.3558,0.2072,0.0273,-0.1869,-0.4421,-0.7133,-1.0043,-1.3498,-1.6855,-2.0128,-2.3304,-2.6143,-2.8743,-3.0467,-3.1721,-3.2609,-3.3638,-3.3665,-3.3055,-3.2434,-3.0573,0.0,-2.544,-2.3086,-2.0923,-1.9225,-1.7974,-1.7025,-1.627,-1.5602,-1.4977,-1.4139,-1.3499,-1.2905,-1.21,-1.1327,-1.0469,-0.966,-0.89,-0.8142,-0.7347,-0.6697,-0.6087,-0.5436,-0.4985,-0.4585,-0.4286,-0.4158,-0.4038,-0.3983,-0.3961,-0.3995,-0.3936,-0.3909,-0.394,-0.3985,-0.4033,-0.4136,-0.4178,-0.4488,-0.4855,-0.5337,-0.5656,-0.5963,-0.6249,-0.6729,-0.6958,-0.6939,-0.7454,-0.7712,-0.7712,-0.8263,-0.8702,-0.8923,-0.9695,-1.0194,-1.0417,-1.0911,-1.1185,-1.1295,-1.1732,-1.2001,-1.2169,-1.2659,-1.2832,-1.293,-1.3457,-1.3725,-1.3847,-1.4179,-1.4429,-1.4688,0.0,0.0,0.0,0.0,0.0,0.0,0.0,0.0,0.0,0.0,0.0,0.0,0.0,0.0,0.0,0.0,0.0,0.0,0.3679,0.3915,0.4107,0.4265,0.3917,0.329,0.2426,0.0939,-0.0899,-0.3152,-0.5624,-0.8397,-1.1384,-1.4795,-1.8069,-2.1233,-2.4222,-2.6857,-2.9083,-3.054,-3.1637,-3.2416,-3.3221,-3.3227,-3.2675,-3.1774,-2.9862,-2.7326,-2.4777,-2.2248,-1.9924,-1.847,-1.7367,-1.6484,-1.5602,-1.4727,-1.3886,-1.313,-1.2443,-1.18,-1.1111,-1.025,-0.9429,-0.8865,-0.8264,-0.7631,-0.6864,-0.6306,-0.5739,-0.4935,-0.4587,-0.4288,-0.4038,-0.4048,-0.3993,-0.3741,-0.3743,-0.368,-0.342,-0.3467,-0.3501,-0.3506,-0.3608,-0.368,-0.3683,-0.3969,-0.4448,-0.5016,-0.5371,-0.571,-0.6066,-0.6258,-0.637,-0.6365,-0.6881,-0.7154,-0.7154,-0.7712,-0.8263,-0.8868,-0.8865,-0.9203,-0.9761,-1.0147,-1.0417,-1.0692,-1.0954,-1.1223,-1.1555,-1.1814,-1.1972,-1.2071,-1.2428,-1.2777,-1.3064,-1.3362,-1.3607,-1.3914,0.0,0.0,0.0,0.0,0.0,0.0,0.0,0.0,0.0,0.0,0.0,0.0,0.0,0.0,0.0,0.0,0.0,0.0,0.2581,0.2784,0.286,0.2782,0.2508,0.1958,0.1096,-0.0352,-0.2071,-0.4087,-0.6353,-0.893,-1.1814,-1.4936,-1.8088,-2.1233,-2.3998,-2.6537,-2.8866,-3.0241,-3.1232,-3.1953,-3.2648,-3.2706,-3.2215,-3.0898,-2.9026,-2.6761,-2.406,-2.1563,-1.9335,-1.8167,-1.6763,-1.5333,-1.4405,-1.3639,-1.2869,-1.2009,-1.1365,-1.0766,-0.9951,-0.9248,-0.8633,-0.8095,-0.7382,-0.6729,-0.648,-0.5713,-0.5035,-0.4834,-0.4286,-0.3802,-0.3799,-0.3618,-0.3506,-0.3543,-0.3571,-0.3544,-0.3537,-0.3555,-0.358,-0.3627,-0.3659,-0.3696,-0.3743,-0.3918,-0.4127,-0.4466,-0.484,-0.5148,-0.5504,-0.5716,-0.5869,-0.6086,-0.6381,-0.655,-0.655,-0.7102,-0.7709,-0.8208,-0.8702,-0.8978,-0.9144,-0.9702,-0.9981,-1.0029,-1.0221,-1.0431,-1.0745,-1.0877,-1.1059,-1.1329,-1.1846,-1.2129,-1.2221,-1.2516,-1.2904,-1.3313,0.0,0.0,0.0,0.0,0.0,0.0,0.0,0.0,0.0,0.0,0.0,0.0,0.0,0.0,0.0,0.0,0.0,0.0,0.0,0.1608,0.1608,0.1491,0.1216,0.0706,-0.0039,-0.1409,-0.3047,-0.4944,-0.7011,-0.9391,-1.2084,-1.4944,-1.7847,-2.0814,-2.3339,-2.5716,-2.7873,-2.9091,-2.994,0.0,0.0,-3.1163,-3.0587,-2.9374,-2.7599,-2.5454,-2.2935,-2.0277,-1.7908,-1.6992,-1.585,-1.4678,-1.3917,-1.3139,-1.236,-1.1445,-1.0695,-0.9972,-0.9056,-0.8372,-0.7731,-0.7155,-0.6599,-0.61,-0.5595,-0.5138,-0.4684,-0.4336,-0.3835,-0.3401,-0.3358,-0.3132,-0.3019,-0.3102,-0.3135,-0.3161,-0.3193,-0.3217,-0.33,-0.3444,-0.3551,-0.3654,-0.3805,-0.3864,-0.396,-0.4141,-0.4443,-0.4747,-0.5111,-0.5215,-0.5369,-0.5633,-0.5825,-0.6036,-0.6274,-0.6771,-0.7213,-0.7654,-0.8097,-0.8374,-0.854,-0.8982,-0.9316,-0.9416,0.0,-0.9777,-1.0083,-1.0181,-1.0371,-1.0553,-1.1019,-1.1378,-1.1635,-1.177,-1.2167,-1.2636,0.0,0.0,0.0,0.0,0.0,0.0,0.0,0.0,0.0,0.0,0.0,0.0,0.0,0.0,0.0,0.0,0.0,0.0,0.0,0.0,0.0,0.0393,0.0,-0.047,-0.1092,-0.2344,-0.3861,-0.5621,-0.7507,-0.9664,-1.2128,-1.4613,-1.7225,-1.992,-2.2175,-2.4267,-2.6176,-2.7294,-2.8029,-2.8506,-2.9084,-2.8946,-2.8276,0.0,0.0,-2.3797,-2.1441,-1.8783,-1.6312,-1.5643,-1.4964,-1.4331,-1.3809,-1.2995,-1.2098,-1.1165,-1.0237,-0.9319,-0.8363,-0.7554,-0.6874,-0.6213,-0.5907,-0.5564,-0.4713,-0.4561,-0.4435,-0.3685,-0.3332,-0.3097,-0.2895,-0.2737,-0.2626,-0.2618,-0.2664,-0.2693,-0.2693,-0.2676,-0.282,-0.3113,-0.3257,-0.3439,-0.381,-0.3859,-0.3889,-0.3889,-0.4195,-0.4501,-0.481,-0.474,-0.4841,-0.5108,-0.5321,-0.5694,-0.6163,-0.6437,-0.6768,-0.7154,-0.7438,-0.766,-0.7934,-0.8263,-0.854,-0.8803,-0.8967,-0.9215,-0.9465,-0.9545,-0.969,-0.9851,-1.0112,-1.0567,-1.1047,-1.1096,-1.1438,-1.1932,0.0,0.0,0.0,0.0,0.0,0.0,0.0,0.0,0.0,0.0,0.0,0.0,0.0,0.0,0.0,0.0,0.0,0.0,0.0,0.0,0.0,0.0,-0.1059,-0.1553,-0.2055,-0.3254,-0.4488,-0.5757,-0.7542,-0.9389,-1.1335,-1.3244,-1.543,-1.7872,-1.9733,-2.1626,-2.3525,-2.4833,-2.5697,-2.6154,-2.6164,-2.621,-2.6033,0.0,0.0,0.0,-1.9485,-1.7628,-1.6312,-1.5643,-1.4986,-1.4319,-1.3454,-1.268,-1.1842,-1.0702,-0.9848,-0.9038,-0.7835,-0.7055,-0.6384,-0.5899,-0.5262,-0.4713,-0.4524,-0.4125,-0.3685,-0.3332,-0.3079,-0.2792,-0.2584,-0.2579,-0.2626,-0.2618,-0.2664,-0.2693,-0.2693,-0.2676,-0.2716,-0.2867,-0.2921,-0.315,-0.356,-0.3574,-0.3642,-0.3889,-0.395,-0.4133,-0.4439,-0.4434,-0.4458,-0.4676,-0.4947,-0.524,-0.5541,-0.5822,-0.6212,-0.6768,-0.7102,-0.7435,-0.7662,-0.7934,-0.81,-0.814,-0.8214,0.0,-0.8601,-0.8631,-0.8899,-0.9329,-0.9627,-0.99,-1.0265,-1.0703,-1.1047,-1.1394,0.0,0.0,0.0,0.0,0.0,0.0,0.0,0.0,0.0,0.0,-0.076,0.0,0.0,0.0,0.0,0.0,0.0,0.0,0.0,0.0,0.0,0.0,0.0,0.0,-0.2708,-0.3784,-0.4894,-0.5946,0.0,-0.8993,-1.0671,-1.2141,-1.3945,-1.6004,-1.7424,-1.9114,-2.0948,-2.1976,-2.2858,-2.3517,-2.3455,-2.3452,0.0,0.0,0.0,0.0,-1.8195,-1.7066,-1.6154,-1.5602,-1.4986,-1.4368,-1.3501,-1.2677,-1.1789,-1.0697,-0.9702,-0.8704,-0.7524,-0.6625,-0.5913,-0.5305,-0.4842,-0.4393,-0.4053,-0.366,-0.3332,-0.3029,-0.2676,-0.2386,-0.2326,-0.221,-0.2143,-0.2181,-0.2219,-0.2244,-0.2244,-0.2237,-0.2337,-0.2589,-0.2646,-0.2814,-0.3206,-0.3271,-0.3394,-0.3642,-0.3703,-0.3826,-0.4133,-0.4252,-0.435,-0.4364,-0.4672,-0.49,-0.5152,-0.5429,-0.5819,-0.6212,-0.6712,-0.699,-0.716,-0.7604,-0.7771,-0.7811,-0.7817,-0.796,-0.8197,-0.8211,-0.8435,-0.8832,-0.9232,-0.9579,-0.9821,-1.0216,-1.0659,-1.1047,0.0,0.0,0.0,0.0,0.0,0.0,0.0,-0.169,-0.1427,-0.1135,-0.1429,-0.1478,-0.0928,-0.0868,0.0,0.0,0.0,0.0,0.0,0.0,0.0,0.0,0.0,0.0,-0.3325,0.0,0.0,-0.612,-0.7229,0.0,0.0,0.0,0.0,0.0,-1.5259,-1.6713,-1.8315,-1.9099,-1.9972,0.0,0.0,-2.0814,-2.071,0.0,0.0,0.0,0.0,-1.6779,-1.6046,-1.5609,-1.5022,-1.4339,-1.3645,-1.2774,-1.1799,-1.066,-0.9584,-0.8448,-0.7201,-0.6258,-0.5475,-0.4811,-0.4532,-0.4186,-0.3569,-0.3236,-0.3027,-0.2675,-0.2272,-0.1928,-0.1903,-0.168,-0.1552,-0.1573,-0.1605,-0.1629,-0.1691,-0.1736,-0.1888,-0.2251,-0.2367,-0.253,-0.2838,-0.29,-0.3023,-0.3394,-0.3394,-0.3517,-0.3889,-0.4086,-0.4208,-0.4142,-0.4365,-0.4582,-0.4732,-0.5104,-0.5429,-0.571,-0.6267,-0.6548,-0.6659,-0.716,-0.7385,-0.7426,-0.7496,-0.7644,0.0,-0.7911,-0.8088,-0.8432,-0.8931,-0.9282,-0.9579,-0.9871,-1.0265,-1.0654,0.0,0.0,0.0,0.0,0.0,0.0,0.0,-0.2145,-0.1908,-0.1731,-0.1814,-0.184,-0.1797,-0.18,0.0,0.0,0.0,0.0,0.0,0.0,0.0,0.0,0.0,0.0,0.0,0.0,0.0,-0.6194,-0.6988,0.0,0.0,0.0,0.0,0.0,0.0,-1.4395,-1.552,-1.653,0.0,0.0,0.0,0.0,0.0,0.0,0.0,0.0,0.0,-1.6697,-1.6046,-1.5782,-1.5131,-1.4276,-1.3617,-1.2759,-1.1717,-1.0297,-0.9246,-0.8227,-0.683,-0.5977,-0.5368,-0.4678,-0.424,-0.3814,-0.3284,-0.2987,-0.2675,-0.2172,-0.1819,-0.1567,-0.1317,-0.1094,-0.0961,-0.0962,-0.0989,-0.1071,-0.1374,-0.1457,-0.16,-0.1924,-0.2017,-0.2161,-0.2529,-0.2529,-0.2714,-0.3023,-0.3023,-0.3271,-0.3889,-0.3946,-0.3914,-0.3913,-0.4145,-0.4194,-0.4187,-0.4687,-0.5094,-0.5427,-0.5764,-0.6047,-0.633,-0.6659,-0.6771,-0.6813,-0.7116,-0.7381,0.0,-0.7661,-0.7942,-0.8432,-0.8726,-0.8981,-0.9286,-0.9826,-1.0019,-1.0167,0.0,0.0,0.0,0.0,0.0,0.0,0.0,-0.2831,-0.2648,-0.2377,-0.2514,-0.2592,-0.2473,-0.2553,0.0,0.0,0.0,0.0,0.0,0.0,0.0,0.0,0.0,0.0,0.0,0.0,-0.5609,-0.6208,-0.6944,0.0,0.0,0.0,0.0,0.0,0.0,-1.2598,-1.3828,-1.4506,0.0,0.0,0.0,0.0,0.0,0.0,0.0,0.0,0.0,0.0,-1.6237,-1.5816,-1.5193,-1.4461,-1.3647,-1.2673,-1.1577,-1.0398,-0.9225,-0.8079,-0.6939,-0.5947,-0.5118,-0.452,-0.3997,-0.3541,-0.3036,-0.2611,-0.2223,-0.1819,-0.1566,-0.1263,-0.101,-0.0937,-0.0907,-0.0907,-0.0878,-0.0959,-0.109,-0.1108,-0.1126,-0.1265,-0.153,-0.1729,-0.1913,-0.2099,-0.2345,-0.2652,-0.29,-0.3085,-0.3332,-0.358,-0.3739,-0.3923,-0.3918,-0.403,-0.4083,-0.4297,-0.4596,-0.5094,-0.5429,-0.571,-0.5991,-0.6328,-0.655,-0.6705,-0.6761,-0.7023,0.0,-0.744,-0.767,-0.7942,-0.8382,-0.873,-0.9027,-0.9381,-0.9727,-1.0068,0.0,0.0,0.0,0.0,0.0,0.0,-0.3659,-0.3509,-0.3308,-0.3015,-0.3168,-0.3256,-0.3098,-0.3256,-0.3295,-0.2981,0.0,0.0,0.0,0.0,0.0,0.0,0.0,0.0,0.0,0.0,-0.593,-0.6422,-0.6971,-0.7605,0.0,0.0,-0.9266,-1.0062,0.0,0.0,0.0,0.0,0.0,0.0,0.0,0.0,0.0,0.0,0.0,0.0,0.0,0.0,0.0,0.0,0.0,-1.4657,-1.3773,-1.2705,-1.1565,-1.0436,-0.9149,-0.7869,-0.6876,-0.5851,-0.4884,-0.4326,-0.3792,-0.3278,-0.2818,-0.2272,-0.1819,-0.1516,-0.1212,-0.0911,-0.0712,-0.0679,-0.0641,-0.0645,-0.0661,-0.0678,-0.0751,-0.076,-0.0831,-0.0909,-0.1166,-0.1359,-0.1359,-0.1667,-0.1976,-0.2345,-0.2591,-0.2776,-0.2837,-0.3085,-0.3377,-0.3766,-0.369,-0.3749,-0.3996,-0.4024,-0.4204,-0.4651,-0.5039,-0.5373,-0.5543,-0.5938,-0.6328,-0.6599,-0.6538,-0.6746,0.0,-0.724,-0.7417,-0.7646,-0.8088,-0.8432,-0.873,-0.9084,-0.943,-0.9826,0.0,0.0,0.0,0.0,0.0,0.0,0.0,-0.4148,-0.3891,-0.3616,-0.3705,-0.3802,-0.3802,-0.396,-0.4079,-0.4079,0.0,0.0,0.0,0.0,0.0,0.0,0.0,0.0,0.0,0.0,-0.6201,-0.6994,-0.6994,-0.7384,-0.8102,-0.8327,-0.8855,-0.9724,0.0,0.0,0.0,0.0,0.0,0.0,0.0,0.0,0.0,0.0,0.0,0.0,0.0,0.0,0.0,0.0,0.0,0.0,0.0,-1.2918,-1.1714,-1.0337,-0.8894,-0.7561,-0.65,-0.5565,-0.4728,-0.4094,-0.3532,-0.3078,-0.2522,-0.1969,-0.1516,-0.1263,-0.0758,-0.0406,-0.0414,-0.0211,0.0,0.0,0.0,-0.0113,-0.0469,-0.053,-0.0656,-0.0984,-0.0988,-0.0988,-0.0988,-0.1297,-0.1667,-0.1977,-0.2038,-0.216,-0.2467,-0.2529,-0.2837,-0.3455,-0.3352,-0.3473,-0.3827,-0.3935,-0.3982,-0.4038,-0.4596,-0.4929,-0.4931,-0.5543,-0.5991,-0.6325,-0.6431,-0.6746,0.0,-0.7036,-0.7217,-0.7646,-0.7892,-0.8187,-0.8482,-0.8985,-0.9187,-0.9286,0.0,0.0,0.0,0.0,0.0,0.0,0.0,-0.4757,-0.4531,-0.414,-0.4211,-0.4268,-0.4222,-0.4268,-0.4348,-0.4506,0.0,0.0,0.0,0.0,0.0,0.0,0.0,0.0,0.0,0.0,-0.657,-0.6994,-0.7384,-0.774,-0.8106,-0.8432,-0.888,-0.9458,-0.9892,-1.061,0.0,0.0,0.0,0.0,0.0,0.0,-1.5249,0.0,0.0,0.0,0.0,0.0,0.0,0.0,0.0,0.0,0.0,0.0,0.0,-1.0809,-0.9283,-0.7834,-0.6775,-0.5885,-0.5076,-0.413,-0.3497,-0.298,-0.2515,-0.1868,-0.1263,-0.096,-0.0657,-0.0356,-0.0155,-0.0053,0.0,0.0,0.0,-0.0057,-0.0117,-0.0178,-0.0181,-0.0308,-0.0494,-0.0741,-0.0988,-0.1111,-0.1297,-0.1606,-0.1667,-0.1791,-0.216,-0.216,-0.2457,-0.3098,-0.3214,-0.3337,-0.3417,-0.3627,-0.3813,-0.3982,-0.4204,-0.4484,-0.4929,-0.5096,-0.5487,-0.5989,-0.6236,-0.6448,0.0,-0.7022,-0.7087,-0.7095,-0.7543,-0.7892,-0.8187,-0.873,-0.9031,-0.9286,0.0,0.0,0.0,0.0,0.0,0.0,0.0,-0.5481,-0.5228,-0.4747,-0.4834,-0.4892,-0.4778,-0.4828,-0.4893,-0.5012,0.0,0.0,0.0,0.0,0.0,0.0,0.0,0.0,0.0,-0.6644,-0.6945,-0.7205,-0.7588,-0.7953,-0.8212,-0.8536,-0.899,-0.9585,-0.9927,-1.0564,0.0,0.0,0.0,0.0,0.0,0.0,-1.4866,0.0,0.0,0.0,0.0,0.0,0.0,0.0,0.0,0.0,0.0,0.0,0.0,0.0,-0.9719,-0.8216,-0.6982,-0.6005,-0.5111,-0.4191,-0.3442,-0.2854,-0.244,-0.1657,-0.101,-0.0859,-0.0505,-0.0204,-0.0052,0.0,0.0054,0.011,0.017,0.0231,0.0353,0.0358,0.0303,0.0185,-0.0123,-0.0432,-0.0803,-0.0803,-0.0926,-0.1297,-0.1297,-0.142,-0.1606,-0.172,-0.1945,-0.2332,-0.2723,-0.3038,-0.3218,-0.3335,-0.3531,-0.3868,-0.3924,-0.4204,-0.4596,-0.4817,-0.5152,-0.5652,-0.5991,-0.6229,0.0,-0.6767,-0.6894,-0.6911,-0.7313,-0.7593,-0.7892,-0.8432,-0.8829,-0.913,0.0,0.0,0.0,0.0,0.0,0.0,0.0,0.0,0.0,0.0,0.0,-0.5638,-0.5467,-0.5555,0.0,0.0,0.0,0.0,0.0,0.0,0.0,0.0,0.0,0.0,-0.6903,-0.7103,-0.7296,-0.7484,-0.7735,-0.8022,-0.8423,-0.8661,-0.9194,-0.9986,-1.0206,-1.0704,0.0,0.0,0.0,0.0,0.0,0.0,0.0,0.0,0.0,0.0,0.0,0.0,0.0,0.0,0.0,0.0,0.0,0.0,0.0,0.0,0.0,0.0,0.0,-0.6026,-0.4975,-0.42,-0.3373,-0.2639,-0.2352,-0.1542,0.0,-0.0808,-0.0354,0.0,0.0,0.0053,0.0108,0.0391,0.0513,0.0637,0.0883,0.0957,0.0911,0.0555,0.0247,-0.0062,-0.037,-0.0432,-0.0617,-0.0926,-0.0988,-0.0987,-0.0986,-0.1216,-0.1377,-0.1413,-0.1941,-0.2509,-0.3098,-0.3106,-0.325,-0.3587,-0.3813,-0.398,-0.4038,-0.4596,-0.5041,0.0,-0.5652,0.0,0.0,-0.6429,-0.6631,-0.6973,-0.7092,-0.7341,-0.7643,-0.8184,-0.8528,-0.8825,0.0,0.0,0.0,0.0,0.0,0.0,0.0,0.0,0.0,0.0,0.0,-0.5978,-0.5868,-0.5968,0.0,0.0,0.0,0.0,0.0,0.0,0.0,0.0,0.0,0.0,-0.7142,-0.718,-0.7296,-0.7484,-0.8013,-0.83,-0.8427,-0.906,-0.9512,-0.9738,-1.0276,-1.094,0.0,0.0,0.0,0.0,0.0,0.0,0.0,0.0,0.0,0.0,-1.4727,-1.4938,0.0,0.0,0.0,0.0,0.0,0.0,0.0,0.0,-1.0331,-0.9132,-0.8158,0.0,-0.529,-0.4274,-0.3443,-0.274,0.0,-0.1526,-0.0794,-0.0806,-0.0358,0.0052,0.0266,0.0324,0.0385,0.0739,0.0812,0.0825,0.0958,0.0973,0.0984,0.0864,0.0617,0.037,0.0247,0.0062,-0.0247,-0.0617,-0.0617,-0.0737,-0.0971,-0.1088,-0.1191,-0.1389,-0.1562,-0.1894,-0.2426,-0.2698,-0.2915,-0.3194,-0.3306,-0.3531,-0.3982,-0.4148,-0.4484,-0.5041,-0.5373,0.0,-0.583,-0.6214,-0.637,-0.6408,-0.6743,-0.7042,-0.7338,-0.7889,-0.8283,-0.8581,0.0,0.0,0.0,0.0,0.0,0.0,0.0,0.0,0.0,0.0,0.0,0.0,0.0,0.0,0.0,0.0,0.0,0.0,0.0,0.0,0.0,0.0,0.0,-0.7099,-0.7184,-0.7377,-0.7492,-0.7484,-0.809,-0.8427,-0.8564,-0.9165,-0.9573,-0.979,-1.0375,-1.0987,0.0,0.0,0.0,0.0,-1.3088,0.0,0.0,0.0,0.0,0.0,-1.4224,-1.4433,0.0,-1.4877,-1.4877,-1.4712,0.0,0.0,0.0,0.0,-1.072,-0.9564,-0.8484,-0.7129,-0.578,-0.4718,-0.3878,-0.3109,-0.2552,-0.1669,-0.0948,-0.0806,-0.0256,0.0209,0.0372,0.0541,0.0719,0.1086,0.1107,0.1188,0.1398,0.1351,0.1235,0.1235,0.0926,0.0741,0.0741,0.0556,0.0309,0.0,-0.0061,-0.0183,-0.0543,-0.0655,-0.082,-0.092,-0.1084,-0.1528,-0.2188,-0.2356,-0.2636,-0.2915,-0.3026,-0.325,-0.3587,-0.3868,-0.4204,-0.454,-0.4983,0.0,-0.5509,-0.5862,-0.6085,-0.6328,-0.651,-0.6792,-0.7092,-0.7643,-0.7988,-0.8283,0.0,0.0,0.0,0.0,0.0,0.0,0.0,0.0,0.0,0.0,0.0,0.0,0.0,0.0,0.0,0.0,0.0,0.0,0.0,0.0,0.0,0.0,0.0,-0.73,-0.7334,-0.7684,-0.7761,-0.7561,-0.813,-0.8484,-0.8645,-0.9094,-0.9544,-1.0081,-1.0467,-1.0857,0.0,-1.1516,-1.1989,-1.2583,-1.2662,0.0,0.0,0.0,0.0,0.0,0.0,0.0,0.0,-1.4281,-1.4353,-1.4372,-1.4186,0.0,0.0,0.0,0.0,0.0,-0.873,-0.7523,-0.6357,-0.5272,-0.4328,-0.3509,-0.276,-0.1862,-0.1108,-0.0861,-0.0154,0.0419,0.048,0.076,0.1054,0.1435,0.1524,0.1677,0.2092,0.1914,0.1729,0.1729,0.1358,0.1173,0.1173,0.1047,0.0861,0.0554,0.0546,0.042,0.018,-0.0117,-0.0287,-0.0344,-0.0678,-0.1177,-0.202,-0.202,-0.2244,-0.2637,-0.2859,-0.3026,-0.3137,-0.3643,-0.3924,-0.4038,0.0,0.0,-0.5339,-0.5392,-0.5739,-0.6233,-0.6324,-0.6489,-0.6792,-0.7344,-0.7693,-0.8038,0.0,0.0,0.0,0.0,0.0,0.0,0.0,0.0,0.0,0.0,0.0,0.0,0.0,0.0,0.0,0.0,0.0,0.0,0.0,0.0,0.0,-0.791,-0.7799,-0.7799,-0.7949,-0.8025,-0.7953,-0.7761,-0.8173,-0.8408,-0.8444,-0.9052,-0.9629,-1.025,-1.0337,-1.0603,-1.1046,-1.1251,-1.1553,-1.1909,-1.2454,0.0,0.0,0.0,0.0,0.0,0.0,0.0,0.0,-1.4065,-1.4245,-1.4333,-1.3996,0.0,0.0,0.0,0.0,0.0,-0.9526,-0.8458,-0.7185,-0.5427,-0.4332,-0.35,-0.2751,-0.1891,-0.1145,-0.0874,-0.0157,0.0481,0.076,0.1049,0.1356,0.1752,0.2105,0.2454,0.2774,0.2776,0.2776,0.2776,0.2221,0.185,0.185,0.1281,0.0908,0.0848,0.0835,0.0823,0.0754,0.0461,0.0171,-0.0056,-0.0337,-0.0673,-0.1121,-0.1346,-0.1739,-0.23,-0.23,-0.2579,-0.3081,-0.3194,-0.3531,-0.3982,0.0,-0.4446,-0.4926,-0.5097,-0.5328,-0.5608,-0.5941,-0.6239,-0.6537,-0.7089,-0.7441,-0.7793,0.0,0.0,0.0,0.0,0.0,0.0,0.0,0.0,0.0,0.0,0.0,0.0,0.0,0.0,0.0,0.0,0.0,0.0,0.0,0.0,0.0,-0.8255,-0.8178,-0.8102,-0.8102,-0.8217,-0.8102,-0.7804,-0.8212,-0.8408,-0.8407,-0.9117,-0.9645,-0.9946,-1.0207,-1.0424,-1.0651,-1.0997,-1.1257,-1.151,0.0,0.0,0.0,0.0,0.0,0.0,0.0,0.0,0.0,0.0,-1.4274,-1.4461,-1.4217,0.0,0.0,0.0,0.0,0.0,-0.9897,-0.8866,-0.7675,-0.6304,-0.5129,-0.4047,-0.3041,-0.2096,-0.1305,-0.0878,0.0,0.0697,0.0872,0.1386,0.1928,0.2343,0.2582,0.2811,0.2957,0.3023,0.3023,0.3023,0.2694,0.2497,0.2497,0.1983,0.1609,0.143,0.1233,0.1101,0.092,0.0741,0.0509,0.0224,0.0112,-0.0168,-0.0617,-0.0729,-0.1121,-0.1739,-0.202,-0.2355,-0.2635,-0.297,-0.325,-0.3529,0.0,-0.4073,-0.4361,-0.4671,-0.496,-0.5223,-0.5482,-0.5839,-0.6289,-0.6939,-0.7441,-0.7892,0.0,0.0,0.0,0.0,0.0,0.0,0.0,0.0,0.0,0.0,0.0,0.0,0.0,0.0,0.0,0.0,0.0,0.0,0.0,0.0,-0.8369,-0.8479,-0.8479,-0.8403,-0.8255,-0.8403,-0.8289,-0.788,-0.8169,-0.8365,-0.8407,-0.912,-0.9515,-0.9602,-0.999,-1.0207,-1.0337,-1.0694,-1.0997,-1.1246,0.0,0.0,0.0,0.0,0.0,0.0,0.0,0.0,0.0,0.0,0.0,0.0,0.0,0.0,0.0,-1.2893,-1.2115,-1.1319,-1.0244,-0.9229,-0.8187,-0.7132,-0.5804,-0.4518,-0.3333,-0.2306,-0.1421,-0.0832,0.0158,0.0966,0.1096,0.1785,0.2446,0.2856,0.3026,0.313,0.329,0.3356,0.3417,0.3417,0.3201,0.3057,0.3057,0.2661,0.2286,0.2051,0.1847,0.1544,0.1201,0.113,0.0953,0.0617,0.0561,0.028,-0.0224,-0.028,-0.0617,-0.129,-0.1795,-0.2076,-0.2188,-0.2691,-0.2908,-0.3007,-0.3518,-0.3754,-0.3772,-0.4196,-0.4551,-0.4883,-0.5067,-0.5491,-0.6189,-0.6939,-0.749,-0.7988,0.0,0.0,0.0,0.0,0.0,0.0,0.0,0.0,0.0,0.0,0.0,0.0,0.0,0.0,0.0,0.0,0.0,0.0,0.0,0.0,-0.8865,-0.8703,-0.8665,-0.8665,-0.8665,-0.8665,-0.8475,-0.8068,-0.8115,-0.8199,-0.8411,-0.8781,-0.917,-0.9602,-0.9646,-0.9907,-1.0294,-1.0337,-1.0603,-1.1046,-1.1246,0.0,0.0,0.0,0.0,0.0,0.0,0.0,0.0,0.0,0.0,0.0,0.0,0.0,-1.3912,-1.3112,-1.2429,-1.174,-1.0737,-0.9821,-0.8815,-0.7414,-0.5944,-0.4518,-0.3525,-0.2405,-0.1375,-0.058,0.0266,0.1078,0.1614,0.2271,0.2758,0.3107,0.3443,0.3775,0.4071,0.4367,0.4604,0.4604,0.4012,0.3657,0.3657,0.3025,0.2651,0.2651,0.2611,0.2473,0.2136,0.1852,0.157,0.1234,0.1009,0.0673,0.0336,0.0112,-0.0449,-0.129,-0.1346,-0.1683,-0.2188,-0.2244,-0.2392,-0.263,-0.3011,-0.3223,-0.3386,-0.3632,-0.4053,-0.4446,-0.4738,-0.5486,-0.6437,-0.6989,-0.7391,-0.7693,0.0,0.0,0.0,0.0,0.0,0.0,0.0,0.0,0.0,0.0,0.0,0.0,0.0,0.0,0.0,0.0,0.0,0.0,0.0,-0.9175,-0.9099,-0.8903,-0.8903,-0.8822,-0.8703,-0.8703,-0.8551,-0.8293,-0.8225,-0.8214,-0.8152,-0.882,-0.9257,-0.9432,-0.9738,-0.9951,-1.0125,-1.0424,-1.0641,-1.0824,-1.117,-1.1564,0.0,0.0,0.0,0.0,0.0,0.0,0.0,0.0,-1.4145,-1.4425,-1.4497,-1.4425,-1.4173,-1.3637,-1.2856,-1.2058,-1.1486,-1.0293,-0.9004,-0.8194,-0.6721,-0.5086,-0.362,-0.2552,-0.158,-0.0581,0.032,0.1186,0.2175,0.2707,0.3123,0.3673,0.3872,0.4075,0.4464,0.4648,0.4707,0.4707,0.4432,0.4232,0.4232,0.3657,0.3284,0.3284,0.2928,0.2637,0.2525,0.2413,0.2188,0.1851,0.1627,0.129,0.0953,0.0673,0.0223,-0.0497,-0.0893,-0.1234,-0.1626,-0.1831,-0.2091,-0.2349,-0.2619,-0.2838,-0.3059,-0.3279,-0.3606,-0.3987,-0.4585,-0.5233,-0.5984,-0.6487,-0.6989,-0.7441,0.0,0.0,0.0,0.0,0.0,0.0,0.0,0.0,0.0,0.0,0.0,0.0,0.0,0.0,0.0,0.0,0.0,0.0,-0.9295,-0.9362,-0.9322,-0.9099,-0.9022,-0.8946,-0.8784,-0.8742,-0.8589,-0.8403,-0.8408,-0.8353,-0.823,-0.8948,-0.9349,-0.9388,-0.9733,-0.9907,-1.0038,-1.0424,-1.0641,-1.0733,-1.1089,-1.1527,0.0,0.0,0.0,0.0,0.0,0.0,0.0,0.0,-1.4036,-1.4353,-1.4533,-1.4533,-1.4397,-1.3935,-1.3229,-1.2469,-1.1921,-1.0737,-0.9417,-0.8671,-0.736,-0.5795,-0.4043,-0.2796,-0.1681,-0.0581,0.0591,0.1748,0.2571,0.3085,0.3545,0.3986,0.4221,0.4465,0.4744,0.4924,0.504,0.504,0.4933,0.4841,0.4841,0.4286,0.3867,0.3867,0.3475,0.3197,0.2974,0.2974,0.2806,0.2356,0.2188,0.1847,0.1447,0.1224,0.0827,0.0271,-0.0275,-0.0718,-0.1159,-0.1472,-0.1731,-0.1935,-0.2255,-0.2532,-0.2775,-0.2993,-0.3331,-0.3784,-0.4535,-0.5135,-0.5684,-0.6184,-0.6736,-0.7288,0.0,0.0,0.0,0.0,0.0,0.0,0.0,0.0,0.0,0.0,0.0,0.0,0.0,0.0,0.0,0.0,0.0,0.0,-0.9327,-0.9494,-0.9506,-0.9322,-0.9099,-0.8984,-0.8984,-0.8822,-0.8589,-0.8403,-0.8609,-0.8682,-0.869,-0.912,-0.9432,-0.9602,-0.9602,-0.9777,-1.0038,-1.0207,-1.0467,-1.0727,-1.0916,-1.1397,-1.2,0.0,0.0,0.0,0.0,0.0,0.0,0.0,-1.3928,-1.4165,-1.4489,-1.4605,-1.4497,-1.3971,-1.3528,-1.2996,-1.2039,-1.1186,-1.0162,-0.884,-0.7769,-0.6546,-0.4795,-0.3185,-0.1681,-0.0528,0.1314,0.2692,0.2692,0.3419,0.398,0.398,0.4482,0.4929,0.4929,0.5431,0.5822,0.5822,0.5596,0.5427,0.5425,0.4869,0.4534,0.4534,0.4479,0.4255,0.3642,0.3587,0.3307,0.275,0.2693,0.2393,0.175,0.1694,0.141,0.08,0.0533,-0.0053,-0.0907,-0.1172,-0.1319,-0.135,-0.1867,-0.2206,-0.2422,-0.2674,-0.3278,-0.4033,-0.4583,-0.5135,-0.5684,-0.6187,-0.6736,-0.7238,0.0,0.0,0.0,0.0,0.0,0.0,0.0,0.0,0.0,0.0,0.0,0.0,0.0,0.0,0.0,0.0,0.0,0.0,-0.967,-0.971,-0.9675,-0.9501,-0.9473,-0.9359,-0.9213,-0.917,-0.8899,-0.8403,-0.8729,-0.8841,-0.8732,-0.9249,-0.9646,-0.9907,-1.0033,-1.025,-1.0516,-1.0694,-1.0829,-1.0959,-1.1354,-1.1699,-1.2043,0.0,0.0,0.0,0.0,0.0,0.0,0.0,0.0,0.0,-1.4489,-1.4605,-1.4533,-1.4137,-1.363,-1.3114,-1.2635,-1.1513,-1.029,-0.9484,-0.8261,-0.6873,-0.5322,-0.3726,-0.2032,-0.0208,0.1332,0.2381,0.2597,0.33,0.3963,0.4234,0.4735,0.5194,0.5479,0.588,0.6161,0.6161,0.6105,0.6019,0.5891,0.5499,0.5198,0.492,0.4699,0.4454,0.4128,0.4076,0.4043,0.3976,0.3491,0.3186,0.295,0.2484,0.1969,0.1412,0.1359,0.0737,-0.0267,-0.0526,-0.0887,-0.1297,-0.1434,-0.1726,-0.2172,-0.2624,-0.3278,-0.4033,-0.4183,-0.4686,-0.5338,-0.5687,-0.6187,-0.6686,0.0,0.0,0.0,0.0,0.0,0.0,0.0,0.0,0.0,0.0,0.0,0.0,0.0,0.0,0.0,0.0,0.0,0.0,0.0,-0.9807,-0.9821,-0.9836,-0.9695,-0.9511,-0.9284,-0.9284,-0.9132,-0.8746,-0.9079,-0.9247,-0.9223,-0.9672,-1.0,-1.0299,-1.0381,-1.0554,-1.0727,-1.0992,-1.1127,-1.117,-1.1607,-1.1952,-1.2149,0.0,0.0,0.0,0.0,0.0,0.0,0.0,0.0,0.0,-1.4489,-1.4605,-1.4533,-1.4201,-1.3739,-1.3225,-1.2876,-1.1794,-1.0571,-0.9876,-0.8619,-0.7039,-0.5041,-0.3342,-0.1688,0.0052,0.1369,0.229,0.2558,0.3356,0.4113,0.4482,0.4976,0.5426,0.5807,0.6148,0.6314,0.6314,0.6314,0.6288,0.6222,0.5941,0.5645,0.543,0.5212,0.4971,0.4649,0.4597,0.4564,0.4392,0.397,0.3666,0.3427,0.3022,0.256,0.2,0.1745,0.1291,0.0626,0.0052,-0.0462,-0.0821,-0.1168,-0.1667,-0.2171,-0.2624,-0.3229,-0.3835,-0.3934,-0.4416,-0.5036,-0.5431,-0.5847,-0.6347,0.0,0.0,0.0,0.0,0.0,0.0,0.0,0.0,0.0,0.0,-1.0807,0.0,0.0,0.0,0.0,0.0,0.0,0.0,0.0,0.0,-0.9941,-1.0207,-0.9846,-0.9549,-0.9359,-0.9359,-0.9397,-0.9397,-0.9539,-0.9717,-0.9969,-1.0186,-1.043,-1.0709,-1.0709,-1.0709,-1.0752,-1.1134,-1.1305,-1.1348,-1.1792,-1.2091,-1.2311,-1.2082,0.0,0.0,0.0,0.0,0.0,0.0,0.0,0.0,-1.4489,-1.4605,-1.4533,-1.4201,-1.3811,-1.3417,-1.2961,-1.1994,-1.0898,-1.0138,-0.8759,-0.6937,-0.429,-0.245,-0.0982,0.0155,0.1311,0.2226,0.2545,0.3498,0.4348,0.4669,0.5149,0.5631,0.5902,0.6275,0.6489,0.6489,0.6489,0.6487,0.6476,0.6205,0.6042,0.5979,0.5977,0.5718,0.5202,0.5202,0.4941,0.4365,0.4307,0.4006,0.3477,0.342,0.3079,0.2472,0.1969,0.1718,0.1617,0.0505,0.0,-0.0152,-0.1111,-0.1868,-0.2422,-0.2674,-0.3075,-0.3626,-0.3874,-0.4276,-0.4744,-0.528,-0.5701,-0.6086,0.0,0.0,0.0,0.0,0.0,0.0,0.0,0.0,0.0,0.0,0.0,0.0,0.0,0.0,0.0,0.0,0.0,0.0,0.0,0.0,-1.002,-1.0196,-0.996,-0.9809,-0.9771,-0.9916,-0.9992,-0.9992,-0.9728,-0.9631,-0.9686,-0.9913,-1.0203,-1.0619,-1.0619,-1.0783,-1.1105,-1.1187,-1.1228,-1.1269,-1.1566,-1.1729,-1.1805,-1.2069,-1.212,0.0,0.0,0.0,0.0,0.0,0.0,0.0,-1.4489,-1.4605,-1.4533,-1.4201,-1.3811,-1.3417,-1.3118,-1.2074,-1.098,-1.0353,-0.8261,-0.595,-0.4541,-0.2981,-0.1471,-0.0203,0.0968,0.1888,0.2348,0.3317,0.4203,0.4571,0.5259,0.586,0.6265,0.6695,0.7009,0.7009,0.7223,0.729,0.7188,0.7125,0.693,0.6628,0.6414,0.6203,0.5985,0.578,0.5607,0.5527,0.5091,0.4784,0.461,0.4087,0.3595,0.0,0.2928,0.2526,0.187,0.0808,-0.0051,-0.0657,-0.1111,-0.1716,-0.2422,-0.2472,-0.2902,-0.3555,-0.3798,-0.4094,-0.4407,-0.5077,-0.5396,-0.5611,0.0,0.0,0.0,0.0,0.0,0.0,0.0,0.0,0.0,0.0,0.0,0.0,0.0,0.0,0.0,0.0,0.0,0.0,0.0,0.0,-1.01,-1.0346,-1.0255,-1.018,-1.018,-1.0293,-1.0331,-1.0331,-1.0117,-1.0081,-1.0204,-1.0327,-1.0565,-1.0875,-1.0875,-1.0996,-1.1197,-1.1358,-1.1399,-1.1399,-1.164,-1.18,-1.1908,-1.1979,-1.2117,-1.2286,-1.2561,0.0,0.0,0.0,0.0,0.0,0.0,0.0,-1.4533,-1.4201,-1.3811,-1.3446,-1.3157,-1.2194,-1.1007,-0.983,-0.7762,-0.5771,-0.4726,-0.3281,-0.1797,-0.0605,0.0555,0.1615,0.227,0.3176,0.3994,0.4591,0.526,0.5894,0.6521,0.6836,0.7038,0.7189,0.7346,0.7373,0.7301,0.7294,0.7214,0.6995,0.6839,0.6718,0.6484,0.623,0.6052,0.5958,0.5493,0.516,0.4906,0.4556,0.4114,0.3533,0.3286,0.2677,0.1722,0.0952,0.0202,-0.0454,-0.085,-0.1445,-0.219,-0.2318,-0.2735,-0.3338,-0.3724,-0.3919,-0.4085,-0.4877,-0.5174,-0.5315,0.0,0.0,0.0,0.0,0.0,0.0,0.0,0.0,0.0,0.0,0.0,0.0,0.0,0.0,0.0,0.0,0.0,0.0,0.0,0.0,0.0,-1.0533,-1.0513,-1.0513,-1.0513,-1.0513,-1.055,-1.055,-1.0588,-1.0703,-1.0921,-1.0844,-1.0952,-1.1141,-1.1141,-1.1141,-1.1181,-1.1425,-1.1504,-1.155,-1.1742,-1.19,-1.2033,-1.1888,-1.2075,-1.2424,-1.2584,-1.29,-1.3331,-1.3816,0.0,0.0,0.0,0.0,-1.4411,-1.4186,-1.3775,-1.3402,-1.3128,-1.2194,-1.0925,-0.9131,-0.7538,-0.6089,-0.4925,-0.3508,-0.2107,-0.1047,0.0201,0.1364,0.217,0.3025,0.388,0.4684,0.5233,0.5887,0.6692,0.6842,0.6992,0.7241,0.7288,0.7338,0.7338,0.7338,0.7338,0.7338,0.7288,0.7188,0.6945,0.6689,0.6439,0.6189,0.5869,0.5511,0.5062,0.4945,0.4603,0.3999,0.3366,0.2615,0.1671,0.1134,0.06,-0.005,-0.059,-0.1222,-0.1855,-0.2162,-0.257,-0.3081,-0.3605,-0.3748,-0.3818,-0.473,-0.5039,-0.5142,0.0,0.0,0.0,0.0,0.0,0.0,0.0,0.0,0.0,0.0,-1.1404,-1.1146,0.0,0.0,0.0,0.0,0.0,0.0,0.0,0.0,0.0,-1.0763,-1.0588,-1.0513,-1.0513,-1.0663,-1.0775,-1.0775,-1.0925,-1.1055,-1.1053,-1.0721,-1.0663,-1.0843,-1.0843,-1.0956,-1.1107,-1.1145,-1.1182,-1.1182,-1.1408,-1.1483,-1.1552,-1.1857,-1.2098,-1.2358,-1.2723,-1.3119,-1.3484,-1.356,-1.3692,0.0,0.0,0.0,-1.3921,-1.4073,-1.3695,-1.3161,-1.2826,-1.1776,-1.042,-0.9031,-0.7902,-0.6755,-0.5218,-0.3869,-0.2537,-0.1296,-0.0049,0.1111,0.1917,0.2924,0.388,0.4684,0.5233,0.5887,0.6692,0.6992,0.7241,0.7494,0.7743,0.7889,0.7889,0.7889,0.7889,0.7889,0.7693,0.7543,0.7497,0.7241,0.7089,0.7039,0.6489,0.6192,0.6095,0.5514,0.4981,0.4397,0.3443,0.2818,0.2429,0.1725,0.0913,-0.0048,-0.0575,-0.1101,-0.1675,-0.2102,-0.2456,-0.2742,-0.3438,-0.367,-0.3737,-0.4674,-0.5022,-0.5142,0.0,0.0,0.0,0.0,0.0,0.0,0.0,0.0,0.0,0.0,0.0,-1.124,0.0,0.0,0.0,0.0,0.0,0.0,0.0,0.0,0.0,-1.1064,-1.1144,-1.1186,-1.1186,-1.126,-1.1298,-1.1298,-1.1409,-1.1446,-1.1446,-1.126,-1.1149,-1.1149,-1.1149,-1.126,-1.1446,-1.1446,-1.1446,-1.1446,-1.1521,-1.1632,-1.1781,-1.2077,-1.2298,-1.2526,-1.2936,-1.3346,-1.3695,-1.379,-1.4021,-1.4261,-1.4332,0.0,0.0,0.0,-1.3666,-1.3043,-1.2247,-1.1232,-1.0191,-0.9221,-0.7983,-0.6723,-0.5657,-0.4352,-0.3008,-0.1948,-0.0821,0.0393,0.1736,0.2731,0.3637,0.4429,0.5135,0.5887,0.6692,0.7039,0.7338,0.7793,0.7942,0.7988,0.7988,0.8137,0.8202,0.8122,0.8161,0.8122,0.7987,0.7594,0.7353,0.7353,0.6864,0.6452,0.6117,0.5826,0.5251,0.4449,0.3704,0.3132,0.2763,0.1982,0.1214,0.0429,-0.0283,-0.0844,-0.1358,-0.1992,-0.234,-0.2593,-0.3182,-0.348,-0.3676,-0.4342,-0.4788,-0.5099,0.0,0.0,0.0,0.0,0.0,0.0,0.0,0.0,0.0,0.0,0.0,0.0,0.0,0.0,0.0,0.0,0.0,0.0,0.0,0.0,0.0,-1.128,-1.149,-1.1636,-1.1706,-1.1706,-1.1706,-1.1706,-1.1706,-1.1675,-1.1605,-1.1605,-1.1487,-1.1321,-1.1421,-1.1558,-1.1706,-1.1706,-1.1706,-1.1706,-1.1744,-1.1892,-1.2114,-1.2305,-1.2526,-1.279,-1.3083,-1.3492,-1.3884,-1.393,-1.4185,-1.447,-1.447,-1.4308,0.0,0.0,0.0,-1.2645,-1.1821,-1.0954,-1.0095,-0.9409,-0.8151,-0.6837,-0.5944,-0.4699,-0.3456,-0.2432,-0.1408,-0.0189,0.1398,0.2388,0.3306,0.4173,0.4987,0.5789,0.6592,0.6989,0.7388,0.7842,0.7942,0.7988,0.7988,0.8202,0.8329,0.8218,0.8409,0.8471,0.8297,0.7919,0.7688,0.7688,0.7229,0.6742,0.6365,0.6054,0.5483,0.4537,0.4017,0.3496,0.2957,0.2287,0.1597,0.0891,0.0046,-0.0551,-0.1054,-0.1716,-0.2154,-0.2469,-0.2959,-0.3317,-0.3676,-0.4121,-0.461,-0.5099,0.0,0.0,0.0,0.0,0.0,0.0,0.0,0.0,0.0,0.0,0.0,0.0,-1.1334,-1.1272,-1.1146,-1.0839,-1.0776,0.0,0.0,0.0,0.0,-1.1268,-1.1306,0.0,-1.17,-1.1706,-1.1706,-1.1706,-1.1706,-1.1573,-1.1312,-1.1312,-1.1243,-1.1145,-1.1507,-1.1706,-1.1706,-1.1706,-1.1706,-1.1706,-1.1892,-1.2114,-1.2305,-1.2526,-1.282,-1.3156,-1.3193,-1.3593,-1.4047,-1.3671,-1.3801,-1.414,-1.414,-1.3679,-1.3229,0.0,0.0,0.0,-1.1802,-1.1018,-1.0061,-0.9447,-0.8568,-0.7425,-0.5855,-0.4856,-0.386,-0.2475,-0.1395,-0.0362,0.0647,0.1722,0.2812,0.387,0.4686,0.5489,0.6287,0.6886,0.7291,0.7596,0.7842,0.7988,0.7988,0.8112,0.8218,0.8211,0.8255,0.8301,0.829,0.829,0.8243,0.8243,0.7685,0.7338,0.7338,0.6248,0.5468,0.4973,0.4478,0.3898,0.3181,0.2691,0.2067,0.1305,0.0404,-0.0269,-0.0763,-0.1256,-0.1749,-0.2243,-0.2734,-0.3183,-0.3676,-0.4121,-0.461,-0.5055,0.0,0.0,0.0,0.0,0.0,0.0,0.0,0.0,0.0,0.0,0.0,0.0,0.0,-1.1365,-1.1216,-1.0996,-1.0807,0.0,0.0,0.0,0.0,-1.1093,-1.1488,-1.1738,-1.1844,-1.1985,-1.2077,-1.2077,-1.1893,-1.1791,-1.1686,-1.146,-1.135,-1.1292,-1.1294,-1.1384,-1.1526,-1.1526,-1.1708,-1.2024,-1.2096,-1.2356,-1.2709,-1.29,-1.3083,-1.3229,-1.3346,-1.3601,-1.3912,-1.3892,-1.406,-1.4273,-1.4273,-1.4053,-1.362,-1.3073,-1.2333,-1.167,-1.1387,-1.0707,-1.0019,-0.9592,-0.8608,-0.7505,-0.6447,-0.5389,-0.4301,-0.3207,-0.2265,-0.1354,-0.0369,0.1228,0.2615,0.3358,0.4301,0.5186,0.5787,0.6337,0.6939,0.7547,0.7696,0.7793,0.7988,0.8297,0.8405,0.8295,0.8505,0.8595,0.8489,0.8342,0.8249,0.8249,0.7748,0.732,0.7004,0.6145,0.563,0.5453,0.4654,0.4074,0.3626,0.3047,0.2332,0.1615,0.1121,0.0448,-0.0314,-0.1076,-0.1525,-0.1749,-0.2377,-0.2915,-0.3361,-0.3719,-0.4342,-0.5055,0.0,0.0,0.0,0.0,0.0,0.0,0.0,0.0,0.0,-1.2096,0.0,0.0,0.0,0.0,-1.131,-1.1122,-1.0839,-1.0656,-1.0593,-1.0774,-1.0928,-1.0989,-1.1456,-1.1764,-1.1899,-1.2151,-1.2258,-1.2158,-1.2,-1.1806,-1.1605,-1.1376,-1.1229,-1.1136,-1.1002,-1.1108,-1.1389,-1.1464,-1.1777,-1.219,-1.2261,-1.2555,-1.3024,-1.3277,-1.3394,-1.3483,-1.374,-1.3933,-1.4104,-1.4168,-1.4306,-1.4436,-1.432,-1.4012,-1.3507,-1.2592,-1.1964,-1.1445,-1.1077,-1.0545,-1.0003,-0.957,-0.8668,-0.7688,-0.6827,-0.5811,-0.4813,-0.3811,-0.2942,-0.2054,-0.1095,0.0465,0.1898,0.276,0.3797,0.469,0.5234,0.5912,0.6587,0.7141,0.7444,0.7677,0.7773,0.8122,0.8346,0.8227,0.8469,0.0,0.8616,0.8428,0.8265,0.8119,0.7675,0.726,0.6784,0.6124,0.5755,0.5618,0.4828,0.4313,0.4028,0.3315,0.2689,0.2153,0.1614,0.0852,-0.0045,-0.0673,-0.1121,-0.148,-0.2019,-0.2602,-0.3136,-0.3497,-0.4166,-0.4924,0.0,0.0,0.0,0.0,0.0,0.0,0.0,0.0,-1.2119,-1.2119,0.0,0.0,0.0,0.0,0.0,-1.1136,-1.0947,-1.0751,-1.0624,-1.0624,-1.072,-1.0969,0.0,0.0,-1.1886,-1.2138,-1.2151,-1.1906,-1.1899,-1.1591,-1.0995,-1.0982,-1.0861,-1.0593,-1.0593,-1.0875,-1.1396,-1.1574,-1.1861,-1.2219,-1.2353,-1.272,-1.3265,-1.3588,-1.3831,-1.4026,-1.4394,-1.4582,-1.4647,-1.441,-1.4441,-1.4545,-1.42,-1.3502,-1.271,-1.2153,-1.1618,-1.1148,0.0,0.0,0.0,-0.9369,-0.8761,-0.8045,-0.6973,-0.6166,-0.5346,-0.4349,-0.3376,-0.2487,-0.1606,-0.0638,0.0558,0.1989,0.3189,0.4112,0.46,0.5614,0.6331,0.6387,0.7089,0.7536,0.7395,0.7675,0.7945,0.8071,0.8168,0.8288,0.856,0.86,0.8384,0.7909,0.7575,0.7157,0.6702,0.6242,0.5849,0.5502,0.5028,0.4603,0.4291,0.3535,0.3089,0.282,0.1837,0.0897,0.0045,0.0,-0.0538,-0.1391,-0.1705,-0.2241,-0.2957,-0.3408,-0.4078,-0.475,0.0,0.0,0.0,0.0,0.0,0.0,-1.3811,-1.3206,-1.2831,0.0,0.0,0.0,-1.2255,-1.2156,-1.197,-1.1636,-1.142,-1.1136,-1.0758,-1.0744,-1.0721,-1.0707,-1.0955,-1.1249,-1.1543,-1.1837,-1.1986,-1.1906,-1.1657,-1.1356,-1.0989,-1.0807,-1.0667,-1.0593,-1.0593,-1.068,-1.0834,-1.0989,-1.1454,-1.2074,-1.2246,-1.2783,-1.3455,-1.3783,-1.3944,-1.4026,-1.4394,-1.4511,-1.4567,-1.4595,-1.4485,-1.4336,-1.4004,-1.3463,-1.2868,-1.2361,-1.1826,-1.1338,-1.1056,0.0,0.0,0.0,0.0,0.0,-0.7632,-0.6817,-0.5931,-0.503,-0.4141,-0.3323,-0.2484,-0.154,-0.0579,0.0454,0.2018,0.328,0.3811,0.4622,0.5351,0.5774,0.6317,0.6744,0.6897,0.7299,0.7552,0.0,0.7986,0.815,0.8115,0.8155,0.7979,0.7564,0.7435,0.7157,0.6702,0.6242,0.5969,0.5838,0.5081,0.4591,0.4276,0.3694,0.3155,0.272,0.2184,0.1615,0.0942,0.0269,-0.0359,-0.0942,-0.157,-0.2154,-0.2691,-0.3363,-0.4078,-0.475,0.0,0.0,0.0,0.0,0.0,-1.4542,-1.4109,-1.3528,-1.3114,0.0,0.0,0.0,-1.2485,-1.2417,-1.2277,-1.203,-1.1909,-1.161,-1.1109,-1.1024,-1.0905,-1.0688,-1.0907,-1.1129,-1.1382,-1.1717,-1.1846,-1.1683,-1.151,-1.1216,-1.0841,-1.0673,-1.0593,-1.0593,-1.0593,-1.0593,-1.0624,-1.0744,-1.1221,-1.1874,-1.2085,-1.2669,-1.3433,-1.389,-1.4141,-1.4284,-1.4706,-1.4867,-1.4885,-1.4786,-1.4517,-1.4118,-1.3785,-1.3344,-1.2937,-1.2616,-1.2032,-1.1416,-1.1087,-1.0643,-1.0238,-1.009,0.0,0.0,-0.8291,-0.748,-0.663,-0.5814,-0.4994,-0.4161,-0.3364,-0.2544,-0.1743,-0.0839,0.0409,0.1683,0.2908,0.3705,0.4371,0.4812,0.5504,0.5979,0.6163,0.6635,0.7028,0.7278,0.7533,0.7681,0.7689,0.7638,0.75,0.7263,0.7156,0.6918,0.6673,0.6112,0.5856,0.5908,0.5046,0.4575,0.445,0.3746,0.3298,0.2959,0.2389,0.1878,0.1442,0.0618,-0.0045,-0.0628,-0.1256,-0.1884,-0.2469,-0.3183,-0.39,-0.4569,0.0,0.0,0.0,-1.5532,-1.5062,-1.4673,-1.4458,-1.3713,-1.3221,0.0,-1.2874,-1.2594,-1.2594,-1.2594,-1.2546,-1.238,-1.238,-1.2135,-1.1617,-1.1471,-1.1255,-1.0948,-1.1065,-1.1243,-1.1538,-1.1807,-1.1814,-1.1511,-1.1477,-1.1209,-1.0703,-1.067,-1.0656,-1.0656,-1.0624,-1.0624,-1.0624,-1.0778,-1.1151,-1.1703,-1.1908,-1.2473,-1.3277,-1.3916,-1.4284,-1.4596,-1.517,-1.5389,-1.533,-1.4973,-1.4509,-1.3975,-1.3609,-1.3294,-1.3017,-1.2883,-1.2258,-1.1546,-1.1214,-1.0858,-1.05,-1.0195,-0.9894,0.0,-0.8927,-0.8169,-0.7413,-0.6655,-0.5845,-0.5038,-0.42,-0.3567,-0.2888,-0.199,-0.1322,-0.018,0.1796,0.2813,0.3416,0.371,0.4606,0.5225,0.5356,0.5834,0.6364,0.6861,0.684,0.6989,0.7308,0.7137,0.7048,0.7048,0.6752,0.6563,0.6521,0.5867,0.5617,0.5725,0.4886,0.4534,0.4626,0.3762,0.339,0.3307,0.2392,0.1892,0.1684,0.0992,0.0264,-0.0447,-0.0896,-0.157,-0.2288,-0.2959,-0.3628,-0.4342,0.0,-1.6202,-1.5921,-1.5346,-1.5182,-1.4991,-1.4609,-1.4198,-1.3902,-1.3902,-1.3545,-1.3301,-1.3301,-1.3301,-1.3199,-1.2901,-1.2844,-1.2671,-1.2183,-1.2128,-1.1999,-1.1767,-1.1789,-1.1963,-1.2277,-1.2339,-1.2339,-1.2284,-1.2033,-1.1686,-1.1326,-1.1114,-1.0996,-1.0996,-1.0839,-1.0776,-1.0758,-1.0899,-1.1142,-1.1491,-1.184,-1.2494,-1.3306,-1.3716,-1.4176,-1.4614,-1.5036,-1.5264,-1.5301,-1.4757,-1.4518,-1.4313,-1.3682,-1.3448,-1.3345,-1.3054,-1.2641,-1.2242,-1.1887,-1.1458,-1.1006,-1.0841,-1.0395,0.0,-0.9502,-0.8818,-0.803,-0.7409,-0.6758,-0.6064,-0.524,-0.4589,-0.3845,-0.3034,-0.241,-0.1327,0.0506,0.1622,0.2336,0.266,0.3471,0.4125,0.434,0.4879,0.5344,0.5803,0.6136,0.6515,0.6892,0.6774,0.6684,0.6684,0.6465,0.6257,0.6057,0.5592,0.5371,0.5397,0.4729,0.4425,0.4449,0.3608,0.3234,0.3195,0.2377,0.1976,0.1895,0.1035,0.0262,-0.0438,-0.0936,-0.157,-0.2288,-0.2959,-0.3539,-0.4072,-1.6193,-1.607,-1.5788,-1.5275,-1.5204,-1.5062,-1.4677,-1.431,-1.4093,-1.4093,-1.3888,-1.3799,-1.396,-1.3982,-1.3916,-1.3748,-1.374,-1.3492,-1.2932,-1.2798,-1.2584,-1.2167,-1.2044,-1.2164,-1.2473,-1.2516,-1.2516,-1.2516,-1.2326,-1.2087,-1.1738,-1.143,-1.129,-1.129,-1.1187,-1.109,-1.1014,-1.1248,-1.1478,-1.1678,-1.1859,-1.2446,-1.3192,-1.3535,-1.3973,-1.4531,-1.4933,-1.5215,-1.5328,-1.4684,-1.4511,-1.4394,-1.3704,-1.3492,-1.3462,-1.3301,-1.2885,-1.2445,-1.2291,-1.1824,-1.1368,-1.119,-1.0858,0.0,0.0,-0.943,-0.8784,-0.8097,-0.7557,-0.6968,-0.6153,-0.5582,-0.4998,-0.4278,-0.3657,-0.2837,-0.1582,-0.0135,0.0913,0.1339,0.2198,0.2899,0.3272,0.3864,0.4426,0.5003,0.5461,0.5805,0.6054,0.598,0.5986,0.6031,0.5989,0.5874,0.5686,0.5324,0.5162,0.5162,0.4543,0.4192,0.4075,0.3455,0.3077,0.2959,0.2265,0.1952,0.1874,0.1001,0.0297,-0.0301,-0.0709,-0.1436,-0.2288,-0.2823,-0.3403,-0.4028,-1.6035,-1.5938,-1.5691,-1.5275,-1.5204,-1.5062,-1.4677,-1.4346,-1.4152,-1.4149,-1.4126,-1.4218,-1.4482,-1.4511,-1.4511,-1.4511,-1.4511,-1.4284,-1.3718,-1.3527,-1.3201,-1.266,-1.2457,-1.248,-1.2671,-1.2678,-1.2678,-1.2678,-1.2615,-1.2459,-1.2197,-1.1852,-1.1704,-1.1704,-1.1671,-1.1539,-1.1354,-1.1662,-1.1824,-1.1906,-1.1966,-1.2382,-1.3002,-1.3308,-1.3773,-1.4321,-1.4843,-1.5137,-1.5165,-1.4623,-1.4428,-1.4313,-1.3682,-1.3492,-1.3492,-1.3492,-1.3057,-1.2571,-1.2571,-1.2172,-1.17,-1.1484,-1.1285,-1.1037,0.0,0.0,0.0,-0.8784,-0.8322,-0.7859,-0.7022,-0.6617,-0.6182,-0.5508,-0.4923,-0.4334,-0.3669,-0.2115,-0.0797,0.0,0.093,0.1671,0.2115,0.2878,0.3582,0.4243,0.4631,0.4941,0.5096,0.509,0.5187,0.5324,0.5348,0.5366,0.532,0.5002,0.4866,0.4888,0.4309,0.396,0.3802,0.3256,0.2943,0.2707,0.2161,0.1848,0.1733,0.0931,0.029,-0.0211,-0.0615,-0.1341,-0.2243,-0.2778,-0.3315,-0.3939,-1.5992,-1.5938,-1.5691,-1.5275,0.0,0.0,-1.4677,-1.4461,-1.4325,-1.4306,-1.4362,-1.4467,-1.4504,-1.4511,-1.4511,-1.4511,-1.4511,-1.4474,-1.4401,-1.4355,-1.4194,-1.3836,-1.3784,-1.366,-1.3375,-1.3404,-1.3404,-1.3404,-1.3077,-1.2917,-1.2873,-1.2546,-1.24,-1.2366,-1.2265,-1.2096,-1.1914,-1.2082,-1.2056,-1.1926,-1.2151,-1.2489,-1.2856,-1.3132,-1.358,-1.4117,-1.458,-1.4731,-1.461,-1.4259,-1.4113,-1.3975,-1.3609,-1.3492,-1.3492,-1.3492,-1.3208,-1.2844,-1.2844,-1.2551,-1.2178,-1.1957,-1.1644,-1.1298,-1.1037,0.0,-0.9992,-0.9544,0.0,-0.8903,-0.8063,0.0,0.0,-0.6546,-0.5921,-0.5404,-0.496,-0.4074,-0.2873,-0.1227,-0.0254,0.0465,0.0927,0.2026,0.2871,0.3229,0.3459,0.385,0.44,0.4432,0.4532,0.4784,0.4611,0.4588,0.4718,0.4473,0.4411,0.4462,0.4036,0.3841,0.3763,0.3139,0.2707,0.2511,0.2082,0.169,0.1341,0.0824,0.021,-0.0422,-0.0864,-0.1544,-0.2288,-0.2914,-0.3361,-0.3765,-1.5817,-1.5867,-1.5691,-1.5275,0.0,0.0,0.0,-1.4866,-1.4812,-1.4884,-1.4774,-1.4889,-1.527,-1.5306,-1.5379,-1.5597,-1.5612,-1.5458,-1.505,-1.5028,-1.4801,-1.4328,-1.4306,-1.424,-1.4062,-1.3879,-1.3777,-1.3777,-1.3448,-1.3294,-1.3287,-1.2958,-1.2804,-1.2804,-1.2735,-1.2527,-1.2263,-1.2499,-1.2415,-1.2131,-1.2251,-1.2378,-1.2538,-1.3026,-1.3608,-1.4248,-1.4283,-1.435,-1.437,-1.3998,-1.3856,-1.381,-1.3565,-1.3492,-1.3492,-1.3492,-1.3229,-1.29,-1.29,-1.2599,-1.2268,-1.204,-1.1855,-1.1632,-1.1186,-1.0887,-1.0556,-1.0067,0.0,0.0,0.0,0.0,0.0,0.0,-0.708,-0.6574,-0.6025,-0.536,-0.4268,-0.2552,-0.1596,0.0,0.0247,0.113,0.1783,0.2195,0.2514,0.2941,0.3517,0.354,0.3653,0.3954,0.3992,0.3969,0.3953,0.388,0.384,0.3798,0.3528,0.3335,0.3215,0.2824,0.2511,0.2314,0.1767,0.1454,0.126,0.053,0.0,-0.0464,-0.1207,-0.1805,-0.2288,-0.2959,-0.3361,-0.3721,-1.5738,-1.5805,-1.5691,-1.5346,-1.5323,0.0,0.0,-1.535,-1.5371,-1.5587,-1.5383,-1.5499,-1.6073,-1.6088,-1.6133,-1.6389,-1.6411,-1.617,-1.5716,-1.5687,-1.5445,-1.4889,-1.4779,-1.4692,-1.4596,-1.4282,-1.4152,-1.4152,-1.3879,-1.3718,-1.3623,-1.3389,-1.3228,-1.314,-1.314,-1.292,-1.2542,-1.2802,-1.2673,-1.2305,-1.2305,-1.2314,-1.2404,-1.2913,-1.3514,-1.4049,-1.3831,-1.3863,-1.3917,-1.3593,-1.3502,0.0,-1.3382,-1.3346,-1.3346,-1.3346,-1.3083,-1.2826,-1.2826,-1.2562,-1.2261,-1.2114,-1.204,-1.1892,-1.1446,-1.126,-1.1037,-1.055,-1.04,0.0,0.0,0.0,-0.8995,-0.8434,0.0,-0.7447,-0.6885,-0.6346,-0.5455,-0.3893,-0.2843,-0.1761,0.0,0.004,0.0628,0.1137,0.0,0.1998,0.2547,0.2631,0.2779,0.3053,0.3222,0.3277,0.3237,0.3268,0.3309,0.3331,0.31,0.2904,0.2707,0.2511,0.2275,0.2,0.1532,0.1178,0.0984,0.0284,-0.0249,-0.076,-0.1518,-0.2036,-0.2467,-0.3093,-0.3452,-0.381,-1.579,-1.5805,-1.5726,-1.5541,-1.561,-1.5671,-1.5687,-1.578,-1.5972,-1.6332,-1.6247,-1.6296,-1.6734,-1.6544,-1.6404,-1.6411,-1.6411,-1.6404,-1.6382,-1.6382,-1.6199,-1.5884,-1.5528,-1.5206,-1.4893,-1.4611,-1.4489,-1.4489,-1.4482,-1.4313,-1.3967,-1.396,-1.3784,-1.3477,-1.3477,-1.3258,-1.2879,-1.2893,-1.2673,-1.2305,-1.2305,-1.2373,-1.2529,-1.2721,-1.2998,-1.324,-1.3227,0.0,0.0,-1.3013,-1.2965,0.0,0.0,0.0,0.0,-1.2936,-1.2783,-1.2599,-1.2599,0.0,-1.2305,-1.2298,-1.215,-1.2003,-1.1966,-1.1669,-1.1335,-1.1111,-1.0925,-1.0663,-1.0255,-0.985,-0.9442,-0.903,-0.8406,0.0,0.0,-0.7179,-0.6528,-0.5115,-0.3843,-0.2746,0.0,-0.1217,-0.0589,0.0,0.0422,0.0,0.1425,0.1638,0.1907,0.2227,0.2253,0.2382,0.262,0.2691,0.2836,0.3102,0.2904,0.2707,0.2511,0.2314,0.2002,0.1611,0.1375,0.0943,0.0315,0.0083,-0.0546,-0.1392,-0.1675,-0.224,-0.2957,-0.3406,-0.3723,-0.3991,-1.579,-1.5805,-1.5726,-1.5541,-1.5618,-1.5769,-1.6014,-1.6329,-1.6612,-1.6721,-1.6776,-1.6946,-1.7287,-1.7101,-1.701,-1.7233,-1.7103,-1.6916,-1.6749,-1.6734,-1.6595,-1.6228,-1.6111,-1.5994,-1.5891,-1.5372,-1.5175,-1.529,-1.4749,-1.4523,-1.452,-1.4374,-1.4166,-1.3814,-1.3814,-1.3467,-1.29,-1.29,-1.2673,-1.2298,-1.2157,-1.2068,-1.2029,-1.2444,-1.2784,-1.2982,-1.2934,-1.2916,0.0,-1.2781,-1.2718,-1.2709,-1.2856,-1.29,-1.29,-1.29,-1.2753,0.0,0.0,0.0,-1.2305,-1.2305,0.0,-1.2157,-1.204,-1.1892,-1.1706,-1.1372,-1.1223,-1.1074,-1.0663,-1.035,-1.0002,-0.9603,-0.9112,-0.8644,0.0,-0.7789,-0.7154,-0.617,-0.4801,-0.3759,-0.3214,0.0,0.0,0.0,-0.0718,0.0,0.0,0.0734,0.1027,0.1278,0.1561,0.1785,0.1869,0.207,0.2221,0.2318,0.2239,0.2161,0.2082,0.1885,0.1649,0.1375,0.0864,0.0436,0.004,-0.0623,-0.1102,-0.1464,-0.2217,-0.2778,-0.3136,-0.3497,-0.3723,-0.3991,-1.5816,-1.5908,-1.5949,-1.5806,-1.6063,-1.6378,-1.6653,-1.698,-1.7263,-1.7388,-1.7381,-1.7518,-1.7864,-1.7675,-1.762,-1.7839,-1.7621,-1.7385,-1.7185,-1.7117,-1.693,-1.6718,-1.6698,-1.6677,-1.6677,-1.6247,-1.5998,-1.6004,-1.5509,-1.5133,-1.4973,-1.487,-1.4582,-1.4188,-1.4033,-1.3697,-1.3215,-1.2991,-1.2735,-1.2452,-1.2042,-1.1781,-1.1614,-1.1985,-1.2286,-1.2589,0.0,-1.2548,-1.2596,-1.2513,-1.2489,-1.2526,-1.2636,-1.2673,-1.2673,-1.2673,-1.2599,-1.2489,-1.2489,-1.2415,0.0,-1.2305,-1.2305,0.0,-1.215,0.0,-1.1892,-1.1558,-1.1446,-1.1298,-1.0962,-1.0567,-1.0195,-0.9944,-0.9482,-0.9019,0.0,-0.8222,-0.7728,-0.7175,-0.5886,-0.4849,-0.4387,-0.3565,-0.2899,0.0,0.0,0.0,0.0,0.0,0.0174,0.0385,0.0834,0.1117,0.1173,0.1436,0.1611,0.1807,0.1729,0.169,0.169,0.1454,0.1218,0.0904,0.0393,0.0,-0.0408,-0.1124,-0.1618,-0.1959,-0.2623,-0.3136,-0.3452,-0.3631,-0.3944,-0.4346,-1.5893,-1.6095,-1.6359,-1.6376,-1.6877,-1.7376,-1.7577,-1.7736,-1.7958,-1.8255,-1.8094,-1.8099,-1.8488,-1.828,-1.8133,-1.8133,-1.7854,-1.7729,-1.7751,-1.7503,-1.7347,-1.7347,-1.73,-1.7266,-1.7251,-1.7189,-1.6985,-1.6621,-1.6606,-1.6171,-1.5358,-1.5318,-1.5018,-1.4496,-1.4181,-1.3921,-1.3733,-1.3145,-1.2845,-1.2699,-1.1964,-1.1558,-1.1409,-1.1409,-1.1632,-1.1966,-1.2003,-1.2114,-1.2298,-1.2305,-1.2305,-1.2305,-1.2305,-1.2305,-1.2305,-1.2305,-1.2305,-1.2305,-1.2305,-1.2305,-1.2305,-1.2305,0.0,0.0,0.0,0.0,-1.1966,-1.1744,-1.1558,-1.1335,-1.1149,-1.0545,-1.0095,-1.0095,-0.9481,-0.8972,-0.8807,-0.8537,-0.8272,-0.8034,-0.6984,-0.6047,-0.5434,-0.4654,-0.399,-0.3524,0.0,-0.2058,-0.1609,0.0,-0.0649,-0.0352,0.0037,0.0341,0.0569,0.0777,0.11,0.1533,0.1335,0.1257,0.1257,0.0982,0.0668,0.0275,0.0079,-0.0398,-0.1021,-0.1333,-0.196,-0.2793,-0.2891,-0.3361,-0.3948,-0.3948,-0.4391,-0.501,-1.6235,-1.6721,-1.7269,-1.7513,-1.7435,-1.7376,-1.7577,-1.7945,-1.82,-1.8287,-1.8443,-1.8594,-1.8735,-1.852,-1.8388,-1.8388,-1.8141,-1.81,-1.835,-1.8318,-1.8271,-1.8271,-1.8235,-1.8123,-1.7872,-1.7621,-1.7374,-1.7175,-1.6799,-1.6377,-1.5875,-1.5696,-1.5194,-1.4504,-1.4416,-1.3923,-1.3124,-1.297,-1.253,-1.1958,-1.1775,-1.1484,-1.1186,0.0,-1.1335,-1.1595,-1.1892,-1.204,-1.2114,-1.2268,-1.2305,-1.2305,-1.2305,-1.2305,-1.2305,-1.2305,-1.2305,-1.2305,-1.2305,-1.2305,-1.2305,-1.2305,-1.2305,-1.2305,0.0,0.0,0.0,0.0,0.0,0.0,0.0,-1.0611,-1.0263,-1.0263,-0.9681,-0.9072,-0.8625,-0.8816,-0.8735,-0.8079,-0.7886,-0.7476,-0.6591,-0.5699,-0.504,-0.4616,-0.3789,-0.3129,-0.27,0.0,0.0,-0.1188,-0.0639,-0.0267,-0.0078,0.0274,0.051,0.0628,0.0746,0.0786,0.0786,0.055,0.0314,0.0039,-0.0275,-0.0763,-0.1335,-0.1761,-0.2279,-0.2892,-0.3266,-0.3855,-0.4482,-0.4482,-0.4701,-0.501,-1.663,-1.7201,-1.7834,-1.8211,-1.8254,-1.821,-1.8202,-1.8406,-1.8526,-1.8526,-1.8654,-1.8781,-1.8781,-1.8697,-1.8612,-1.8612,-1.8419,-1.8426,-1.8758,-1.8686,-1.8659,-1.8812,-1.881,-1.8689,-1.8496,-1.8249,-1.8043,-1.7788,-1.7356,-1.685,-1.6308,-1.6024,-1.5431,-1.467,-1.4531,-1.4067,-1.3254,-1.2972,-1.2418,-1.1706,-1.1706,-1.1446,0.0,-1.1111,-1.1186,-1.1298,-1.1632,-1.1781,-1.1892,-1.2114,-1.215,-1.2187,-1.2268,-1.2305,-1.2305,-1.2305,-1.2305,-1.2305,-1.2305,-1.2305,-1.2305,-1.2305,-1.2305,-1.2305,-1.2305,-1.2224,-1.2077,0.0,0.0,0.0,0.0,0.0,-1.022,-0.9991,-0.9598,-0.9177,-0.8765,-0.9085,-0.9106,-0.8468,-0.8559,-0.8394,-0.7744,-0.6668,-0.5857,-0.5431,-0.4599,0.0,0.0,0.0,0.0,-0.1892,-0.1415,-0.1045,-0.0746,-0.0393,-0.0118,0.0039,0.0079,0.0118,0.0196,0.0,-0.0275,-0.0589,-0.0825,-0.125,-0.185,-0.2228,-0.2675,-0.3272,-0.3855,-0.4346,-0.4705,-0.4928,-0.506,-0.5191,-1.7192,-1.7666,-1.8264,-1.8674,-1.9117,-1.9345,-1.9128,-1.8956,-1.8827,-1.8781,-1.8781,-1.8781,-1.8781,-1.8781,-1.8781,-1.8781,-1.8658,-1.8715,-1.9043,-1.8875,-1.8885,-1.9184,-1.9149,-1.9106,-1.9067,-1.8909,-1.8653,-1.8295,-1.7946,-1.7388,-1.6591,-1.6247,-1.5666,-1.4893,-1.4655,-1.4259,-1.3757,-1.3065,-1.2372,-1.1764,-1.1688,-1.1446,-1.1111,-1.1111,-1.1111,-1.1111,-1.1298,-1.1484,-1.1706,-1.1892,-1.1966,-1.2003,-1.2187,-1.2261,-1.2268,-1.2298,-1.2305,-1.2305,-1.2305,-1.2305,-1.2305,-1.2305,-1.2268,-1.2261,-1.2261,-1.2114,-1.1892,-1.1706,-1.1521,-1.1335,0.0,0.0,-1.0124,-0.96,-0.9408,-0.9242,-0.9017,-0.9293,-0.9362,-0.8966,-0.9002,0.0,-0.8737,-0.748,-0.6521,-0.6054,-0.5321,0.0,0.0,0.0,0.0,-0.2547,-0.221,-0.1844,-0.1414,0.0,-0.0825,-0.0471,-0.0628,-0.0589,-0.0432,-0.0628,-0.0943,-0.1335,-0.1375,-0.1775,-0.2439,-0.2608,-0.3108,-0.3765,-0.4435,-0.475,-0.4839,-0.5238,-0.5416,-0.5416,-1.8258,-1.8665,-1.9093,-1.9435,-1.9465,-1.9438,-1.9484,-1.9301,-1.905,-1.8827,-1.8781,-1.8781,-1.8781,-1.8781,-1.8781,-1.8781,-1.8781,-1.8893,-1.9296,-1.9526,-1.9707,-1.9763,-1.9756,-1.9598,-1.9328,-1.8964,-1.8653,-1.8295,-1.7946,-1.7388,-1.6591,-1.6247,-1.5666,-1.49,-1.4842,-1.4468,-1.3757,-1.2924,-1.2395,-1.2056,-1.1621,-1.1298,-1.1111,-1.1111,-1.1111,-1.1111,-1.1149,-1.1298,-1.1484,-1.1669,-1.1744,-1.1781,-1.2003,-1.204,-1.2077,-1.2268,-1.2305,-1.2305,-1.2305,-1.2305,-1.2305,-1.2305,-1.2187,-1.204,-1.204,-1.1892,-1.1706,-1.1484,-1.1409,-1.1335,-1.1149,0.0,0.0,-0.96,-0.9484,-0.935,-0.9049,-0.9389,-0.9462,-0.8966,-0.9117,-0.9089,-0.8742,-0.7863,-0.7173,-0.6749,-0.6093,0.0,0.0,0.0,0.0,0.0,-0.2856,0.0,0.0,0.0,-0.1608,-0.1375,-0.1257,-0.1178,-0.1139,-0.1335,-0.1454,-0.1572,-0.1729,-0.2139,-0.265,-0.2692,-0.3278,-0.421,-0.4569,-0.4928,-0.5282,-0.5371,-0.5508,-0.5644,-1.8869,-1.9204,-1.9521,-1.9665,-1.9809,-1.9853,-1.9774,-1.9571,-1.925,-1.8827,-1.8781,-1.8781,-1.8781,-1.8781,-1.8781,-1.8781,-1.8781,-1.8978,-1.9352,-1.9566,-1.9734,-1.9901,-1.975,-1.9582,-1.9376,-1.9018,-1.8694,-1.8573,-1.8033,-1.7474,-1.6827,-1.6331,-1.5666,-1.4893,-1.4485,-1.4076,-1.36,0.0,0.0,-1.2132,-1.1602,-1.1298,-1.1111,-1.1111,-1.1111,-1.1111,-1.1111,-1.1058,-1.1077,-1.1434,-1.1558,-1.1595,-1.1781,-1.1855,-1.1855,-1.1966,-1.2003,-1.197,-1.1827,-1.1788,-1.1748,-1.1605,-1.1495,-1.1423,-1.1423,-1.1389,-1.1308,-1.1199,-1.1095,-1.0931,-1.0556,-1.0262,0.0,0.0,0.0,-0.9359,-0.9221,-0.944,-0.9512,-0.9276,-0.9268,-0.9208,-0.9013,-0.8289,-0.7638,-0.7249,-0.6521,-0.5902,0.0,0.0,0.0,0.0,0.0,0.0,0.0,0.0,0.0,-0.1923,-0.1689,-0.1611,-0.1611,-0.1729,-0.1807,-0.1923,-0.212,-0.2443,-0.2857,-0.3303,-0.3875,-0.4525,-0.4926,-0.5193,-0.5416,-0.5683,-0.5819,-0.5908,-1.9282,-1.9598,-1.9811,-1.9811,-2.0095,-2.0201,-1.9928,-1.9716,-1.9442,-1.8966,-1.8827,-1.8781,-1.8781,-1.8781,-1.8781,-1.8781,-1.8781,-1.8947,-1.9233,-1.9328,-1.9535,-1.9797,-1.9558,-1.9423,-1.9423,-1.9018,-1.8781,-1.8781,-1.8147,0.0,0.0,-1.6426,-1.5681,-1.4906,-1.4285,0.0,0.0,0.0,-1.2538,-1.2221,-1.1734,-1.1353,-1.1111,-1.1111,-1.1111,-1.1105,-1.1051,-1.0894,-1.0743,-1.1077,-1.1199,-1.1286,-1.147,-1.1582,-1.162,-1.1636,-1.1617,-1.156,-1.128,-1.1204,-1.1153,-1.0937,-1.088,-1.0845,-1.0845,-1.0841,-1.0855,-1.0855,-1.0748,-1.046,-0.9991,-0.9874,0.0,0.0,0.0,-0.9247,-0.9285,-0.9366,-0.9427,-0.9441,-0.9269,-0.918,-0.918,-0.851,-0.7964,-0.758,-0.6853,-0.6293,-0.6018,0.0,0.0,0.0,0.0,-0.3761,-0.3251,0.0,-0.2628,0.0,-0.2238,-0.2161,-0.2161,-0.2161,-0.2238,-0.2392,-0.255,-0.2832,-0.3205,-0.3972,-0.448,-0.4882,-0.5282,-0.5505,-0.5594,-0.5991,-0.6171,-0.6171,-1.9719,-1.9992,-2.024,-2.024,-2.0266,-2.0201,-1.9928,-1.9716,-1.9487,-1.9196,-1.8958,-1.8781,-1.8781,-1.8781,-1.8781,-1.8781,-1.8781,-1.8843,-1.8829,-1.9193,-1.9431,-1.9463,-1.9439,-1.9423,-1.9423,-1.9018,-1.8781,-1.8781,-1.8175,-1.76,0.0,-1.6483,-1.5806,0.0,0.0,0.0,0.0,-1.3558,-1.2964,-1.2508,-1.2034,-1.1537,-1.1111,-1.1111,-1.1111,-1.1081,-1.0803,-1.0701,-1.0653,-1.0478,-1.0562,-1.0791,-1.1008,-1.1248,-1.1434,-1.1371,-1.1331,-1.1274,-1.0994,-1.0953,-1.0912,-1.0927,-1.0748,-1.0638,-1.0638,-1.0484,-1.0363,-1.0363,-1.0369,-1.0244,-0.9955,-0.9813,-0.9624,0.0,0.0,0.0,-0.8863,-0.9009,-0.9102,-0.8994,-0.8828,-0.8755,-0.8755,-0.8362,-0.8023,-0.7792,-0.7197,0.0,0.0,0.0,0.0,-0.4965,0.0,-0.4348,-0.3724,-0.3684,-0.3452,-0.3023,-0.2984,-0.2984,-0.2984,-0.2984,-0.2984,-0.3023,-0.3023,-0.3423,-0.4032,-0.434,-0.4833,-0.5371,-0.5589,-0.5813,-0.6083,-0.6299,-0.6387,-0.6387,-2.0295,-2.0279,-2.0292,-2.0292,-2.0292,-2.0246,0.0,-1.9853,-1.9541,-1.9442,-1.9066,-1.8781,-1.8781,-1.8781,-1.8781,-1.8781,-1.8781,-1.8781,-1.8781,-1.8962,-1.9042,-1.9042,-1.9042,-1.9042,-1.9042,-1.8899,-1.8743,-1.8612,-1.8123,-1.7549,0.0,0.0,0.0,0.0,0.0,-1.4531,-1.4181,-1.3555,-1.3029,-1.2546,-1.2078,-1.16,-1.1111,-1.1111,-1.1111,-1.1075,-1.0816,-1.0587,-1.0412,-1.0148,-1.0232,-1.0484,-1.0554,-1.0662,-1.0729,-1.0725,-1.0695,-1.0639,-1.0368,-1.0301,-1.0257,-1.0097,-0.9994,-0.9928,-0.9928,-1.0016,-1.0063,-1.0063,-0.9996,-0.9851,-0.9584,-0.94,-0.924,0.0,0.0,0.0,-0.8959,-0.8964,-0.9011,-0.9084,-0.8843,-0.8695,-0.8695,-0.8236,-0.7902,-0.7794,-0.7454,0.0,0.0,0.0,0.0,-0.5359,0.0,-0.4696,-0.4348,-0.3997,-0.3724,-0.353,-0.3219,-0.3102,-0.3102,-0.3102,-0.3258,-0.353,-0.353,-0.3867,-0.4497,-0.4744,-0.5163,-0.5591,-0.5858,-0.608,-0.6302,-0.6567,-0.6697,-0.6874,-2.0391,-2.035,-2.0292,-2.0292,-2.0292,-2.0292,-2.0292,-1.9899,-1.9587,-1.9587,-1.9112,-1.8781,-1.8781,-1.8781,-1.8781,-1.8781,-1.8781,-1.8781,-1.8781,-1.8781,-1.8781,-1.8781,-1.8781,-1.8781,-1.8781,-1.8781,-1.8697,-1.8481,-1.8133,0.0,0.0,0.0,0.0,0.0,-1.4692,-1.4489,-1.4075,-1.3695,-1.3188,-1.2552,-1.2238,-1.1706,-1.1111,-1.1111,-1.1111,-1.1063,-1.0725,-1.0448,-1.0244,-0.9907,-0.9913,-1.0081,-1.0154,-1.0232,-1.028,-1.0202,-1.0178,-1.0124,-0.9865,-0.9793,-0.9745,-0.9558,-0.9516,-0.9516,-0.9516,-0.9622,-0.9721,-0.9655,-0.9556,-0.9437,-0.9245,-0.9049,-0.8958,-0.8958,0.0,0.0,0.0,-0.8859,-0.8818,-0.8911,-0.8663,-0.8462,-0.8428,-0.8031,-0.7761,-0.7706,-0.7638,0.0,0.0,0.0,0.0,0.0,0.0,0.0,0.0,-0.4309,-0.3997,-0.3882,-0.3571,-0.3376,-0.3295,-0.3376,-0.3569,-0.3882,-0.3958,-0.429,-0.4782,-0.5061,-0.54,-0.5805,-0.6157,-0.6435,-0.6653,-0.6925,-0.7146,-0.7363,-1.9788,-2.0043,-2.0292,-2.0292,-2.0292,-2.0292,-2.0292,-1.9899,-1.9587,-1.9587,-1.9112,-1.8781,-1.8781,-1.8781,-1.8781,-1.8781,-1.8781,-1.8781,-1.8781,-1.8781,-1.8781,0.0,-1.8781,-1.8781,-1.8781,-1.8781,-1.8697,-1.8481,-1.8234,0.0,-1.716,0.0,-1.5475,-1.4692,-1.4692,-1.4489,-1.4088,-1.4082,-1.3494,-1.2611,-1.2605,-1.1989,-1.1111,-1.1111,-1.1111,-1.1045,-1.0485,-1.0298,-1.0214,-0.9697,-0.9522,-0.957,-0.9829,-1.0088,-1.0244,-0.9985,-0.9907,-0.9853,-0.9588,-0.9516,-0.9516,-0.9516,-0.9516,-0.9516,-0.9516,-0.9414,-0.9247,-0.9055,-0.9022,-0.9022,-0.9017,-0.8894,-0.8802,-0.8802,0.0,0.0,0.0,-0.8517,-0.842,-0.8242,-0.809,-0.7932,-0.7736,-0.7765,-0.7729,-0.7513,0.0,0.0,0.0,0.0,0.0,-0.5902,-0.5712,0.0,-0.5004,-0.4776,-0.4506,-0.4079,-0.4079,-0.3999,-0.3802,-0.3999,-0.4079,-0.4118,-0.4309,-0.4565,-0.4922,-0.524,-0.5608,-0.5947,-0.6562,-0.6925,-0.7139,-0.7415,-0.768,-0.79,-1.96,-1.9574,-1.953,-1.953,-1.953,-1.953,-1.953,-1.9136,-1.8872,-1.8872,-1.8633,-1.847,-1.847,-1.8684,-1.8781,0.0,-1.8781,-1.8781,0.0,-1.8781,-1.8781,-1.8781,-1.8781,-1.8743,-1.8612,-1.8612,-1.8381,-1.7962,0.0,0.0,0.0,-1.6154,-1.5475,-1.4692,-1.4692,-1.4489,-1.4088,-1.4088,-1.3541,-1.2611,-1.2611,-1.1995,-1.1111,-1.1111,-1.1111,-1.1063,-1.0683,-1.0448,-1.0244,-0.9901,-0.966,-0.9528,-0.9612,-0.9697,-0.9745,-0.9666,-0.9636,-0.9624,-0.954,-0.9446,-0.9376,-0.9376,-0.9247,-0.9151,-0.9151,-0.9119,-0.9081,-0.9017,-0.8926,-0.8867,-0.8867,-0.8705,-0.8582,-0.8582,-0.8549,0.0,-0.8306,-0.8306,-0.8242,-0.8079,-0.7889,-0.7764,-0.7699,-0.7626,0.0,0.0,0.0,0.0,0.0,0.0,0.0,0.0,-0.5944,0.0,-0.5201,-0.5007,-0.4776,-0.4506,-0.4387,-0.4268,-0.4229,-0.4268,-0.4387,-0.4506,-0.4582,-0.4883,-0.5324,-0.5529,-0.5906,-0.6417,-0.6822,-0.7146,-0.7411,-0.768,-0.7896,-0.8113,-1.9193,-1.9195,-1.9213,-1.9213,-1.9213,-1.9213,-1.9213,-1.8818,-1.8516,-1.8516,-1.8269,-1.8152,-1.8287,-1.8494,0.0,-1.8765,-1.8781,-1.8781,-1.8781,-1.8781,-1.8781,-1.8781,-1.8743,-1.8612,-1.8481,-1.8381,0.0,-1.7675,-1.7581,-1.7149,-1.6411,-1.6177,-1.5583,-1.4692,-1.4692,-1.4489,-1.4088,-1.4088,-1.3541,-1.2611,-1.2611,-1.1995,-1.1111,-1.1111,-1.1111,-1.1075,-1.0816,-1.0581,-1.0382,-1.0027,-0.9799,-0.9642,-0.9546,-0.9478,-0.9446,-0.9484,-0.9446,-0.9414,-0.9414,-0.9312,-0.9177,-0.9177,-0.9081,-0.8985,-0.8926,-0.8926,-0.8894,-0.8829,-0.8738,-0.8673,-0.8673,-0.8511,-0.8376,-0.8376,-0.8349,-0.8279,-0.8144,0.0,-0.8079,-0.7922,0.0,0.0,0.0,-0.7542,-0.7489,0.0,0.0,0.0,0.0,0.0,0.0,-0.6412,-0.6099,0.0,-0.5401,-0.5201,-0.4968,-0.4701,-0.4501,-0.4384,-0.4384,-0.4462,-0.4582,-0.4701,-0.4854,-0.5132,-0.5456,-0.5797,-0.6167,-0.6557,-0.7065,-0.7411,-0.768,-0.794,-0.816,-0.838,-1.8595,-1.8845,-1.9136,0.0,-1.9136,0.0,-1.9093,-1.8699,-1.8442,-1.8399,-1.8027,-1.7874,-1.8224,-1.8287,-1.8438,-1.875,0.0,0.0,0.0,-1.8781,-1.8781,-1.8781,-1.8612,-1.8481,-1.8435,-1.8187,-1.7947,-1.7675,-1.7404,-1.6974,-1.6411,-1.6389,-1.5785,-1.4692,-1.4692,-1.4489,-1.4088,-1.4088,-1.3541,-1.2611,-1.2611,-1.1995,-1.1111,-1.1111,-1.1111,-1.1081,-1.0834,-1.0737,-1.0611,-1.0124,-0.9937,-0.9832,-0.9586,-0.9394,-0.9306,-0.9446,-0.9376,-0.9274,-0.9274,-0.9145,-0.8985,-0.8985,-0.8985,-0.8926,-0.8802,-0.877,-0.8738,-0.8511,-0.8479,-0.8479,-0.8484,-0.8312,-0.8172,-0.8172,-0.8095,-0.8007,-0.8007,-0.8022,-0.7934,0.0,0.0,0.0,0.0,-0.7512,-0.7495,0.0,0.0,0.0,0.0,0.0,-0.6826,-0.6602,-0.6173,-0.5825,-0.5598,-0.5401,-0.5126,-0.4701,-0.4543,-0.4423,-0.4462,-0.4621,-0.474,-0.4779,-0.5126,-0.5321,-0.5377,-0.6112,-0.6395,-0.6514,-0.7238,-0.7669,-0.7944,-0.8157,-0.8384,-0.8652,0.0,0.0,-1.8264,-1.8264,-1.8264,-1.8223,-1.8092,-1.7854,-1.7606,-1.7433,-1.7433,-1.7568,-1.7902,-1.8136,-1.8438,-1.875,-1.8781,-1.8781,-1.8781,-1.8781,-1.8743,-1.8574,-1.8527,-1.8295,-1.7916,-1.7815,-1.7667,-1.738,-1.7138,-1.6807,-1.6404,-1.6133,-1.5547,-1.4692,-1.4692,-1.4489,-1.4088,-1.4088,-1.3541,-1.2611,-1.2611,-1.1995,-1.1111,-1.1111,-1.1111,-1.1105,-1.1039,-1.0851,-1.0665,-1.0539,-1.0169,-0.9734,-0.9675,-0.9379,-0.9113,-0.928,-0.921,-0.9081,-0.9081,-0.8958,-0.8835,-0.8835,-0.8738,-0.8608,-0.8576,-0.8582,-0.8511,-0.8306,-0.8274,-0.8242,-0.8149,-0.8084,-0.8047,-0.8047,-0.8167,-0.8178,-0.8033,-0.8147,-0.8186,0.0,-0.7869,-0.7748,-0.7728,-0.7588,-0.7496,0.0,0.0,0.0,0.0,-0.7022,-0.6826,-0.6602,-0.6335,-0.6025,-0.5598,-0.5559,-0.5326,-0.4937,-0.4898,-0.4859,-0.4859,-0.4898,-0.5012,-0.5165,-0.5243,-0.5476,-0.5799,-0.6091,-0.6515,-0.6961,-0.7414,-0.7784,-0.8157,-0.8428,-0.8652,-0.8823,-1.804,-1.8,-1.8,-1.8,-1.791,-1.7829,-1.774,-1.7465,-1.7221,-1.7098,-1.7215,-1.7448,-1.7775,-1.8089,-1.8438,-1.875,-1.8781,-1.8781,-1.8781,-1.8697,-1.8612,-1.8481,-1.8249,-1.8009,-1.7729,-1.7574,-1.7407,-1.7113,-1.6837,-1.6514,-1.6162,-1.5908,-1.539,-1.4692,-1.4608,-1.4405,-1.4088,-1.4088,-1.3541,-1.2611,-1.2611,-1.1995,-1.1111,-1.1111,-1.1111,-1.1111,-1.1111,-1.1021,-1.0845,-1.0653,-1.032,-0.995,-0.9654,-0.9314,-0.9034,-0.9057,-0.899,-0.8894,-0.8894,-0.8797,-0.8679,-0.8679,-0.8576,-0.8479,-0.8376,-0.8376,-0.8312,-0.8144,-0.8112,-0.8079,-0.8014,-0.8002,-0.8001,-0.8001,-0.8122,-0.8161,-0.8048,-0.8154,0.0,-0.7974,-0.7872,-0.7766,-0.7681,-0.7563,-0.7513,-0.7484,-0.7431,0.0,-0.7061,-0.6868,-0.6714,-0.6602,-0.6412,-0.6103,-0.575,-0.5556,-0.5323,-0.5018,-0.5018,-0.5018,-0.5018,-0.5093,-0.5207,-0.5321,-0.5476,-0.5705,-0.5912,-0.6215,-0.6644,-0.7127,-0.7455,-0.7829,-0.8245,-0.8604,-0.8828,-0.8911,-1.7951,-1.7951,-1.7951,-1.7919,-1.7789,-1.7659,-1.761,-1.7335,-1.7098,-1.7057,-1.7125,-1.7342,-1.7775,-1.8041,-1.8383,-1.8796,-1.8781,-1.8735,-1.8735,-1.8566,-1.8481,-1.8388,-1.7962,-1.7675,-1.7628,-1.7382,-1.7121,-1.6903,-1.6529,-1.617,-1.587,-1.5648,-1.5213,-1.4692,-1.4482,-1.4279,-1.4088,-1.4088,-1.3541,-1.2611,-1.2611,-1.1995,-1.1111,-1.1111,-1.1111,-1.1111,-1.1111,-1.1111,-1.1038,-1.0602,-1.043,-1.0253,-0.9656,-0.9293,-0.9053,-0.8854,-0.8826,-0.882,-0.8781,-0.8668,-0.8576,-0.8543,-0.8553,-0.851,-0.8266,-0.8223,-0.8148,-0.7992,-0.798,-0.8005,-0.7972,-0.798,-0.802,-0.802,-0.8095,-0.8127,-0.8091,0.0,-0.8067,-0.7857,-0.7821,-0.7744,-0.7579,-0.7521,-0.7472,-0.7472,-0.7296,-0.7103,-0.6865,-0.665,-0.6528,-0.6528,-0.6363,-0.6141,-0.5864,-0.5476,-0.5207,-0.5018,-0.5015,-0.5054,-0.5054,-0.5246,-0.5359,-0.5398,-0.5744,-0.5941,-0.599,-0.6347,-0.6745,-0.7165,-0.7509,-0.7896,-0.8332,-0.8732,-0.8911,-0.9043,-1.7781,-1.774,-1.77,-1.7514,-1.7473,-1.7392,-1.7212,-1.7131,-1.7017,-1.6771,-1.6786,-1.7064,-1.7743,-1.7862,-1.8112,-1.8772,-1.8651,-1.8574,-1.8574,-1.8527,-1.8295,-1.7822,-1.7721,-1.7581,-1.738,-1.7116,-1.6954,-1.6903,-1.6272,-1.5965,-1.5913,-1.5417,-1.5007,-1.4692,-1.4482,-1.4279,-1.4088,-1.4088,-1.3541,-1.2611,-1.2611,-1.1995,-1.1111,-1.1111,-1.1111,-1.1111,-1.1111,-1.1111,-1.1068,-1.0803,-1.0503,-1.0178,-0.9924,-0.9399,-0.8923,-0.8885,-0.8874,-0.8831,-0.8603,-0.869,-0.8822,-0.8843,-0.8821,-0.8739,-0.8383,-0.8275,-0.8186,-0.7831,-0.7868,-0.7962,-0.7865,-0.7965,-0.8068,-0.8068,-0.8248,-0.8281,-0.8134,0.0,-0.8274,-0.809,-0.7905,-0.7804,-0.7753,-0.76,-0.7417,-0.7257,-0.7219,-0.7026,-0.6676,-0.6469,-0.6286,-0.6102,-0.6231,-0.6106,-0.5637,-0.5398,-0.5207,-0.5018,-0.5168,-0.5243,-0.5246,-0.5479,-0.5634,-0.5822,-0.586,-0.6022,-0.6261,-0.6472,-0.6889,-0.7368,-0.7597,-0.8055,-0.8564,-0.8823,-0.9043,-0.9257,-1.7587,-1.7546,-1.7505,-1.7432,-1.731,-1.7221,-1.7098,-1.6976,-1.6853,-1.673,-1.6905,-1.7151,-1.7469,-1.7703,-1.7969,-1.829,-1.831,-1.8234,-1.8055,-1.8055,-1.7962,-1.7729,-1.7574,-1.7353,-1.7077,-1.6807,-1.6558,-1.6345,-1.5748,-1.5481,-1.5474,-1.4979,-1.465,-1.4524,-1.4321,-1.4208,-1.4088,-1.4088,-1.3541,-1.2611,-1.2611,-1.1995,-1.1111,-1.1111,-1.1111,-1.1111,-1.1111,-1.1037,-1.0925,-1.07,-1.0439,-1.0146,-0.9834,-0.9534,-0.9257,-0.9122,-0.8992,-0.89,-0.8883,-0.8895,-0.8904,-0.8904,-0.8825,-0.8659,-0.8354,-0.83,-0.8231,-0.7957,-0.7975,-0.8007,-0.7838,-0.7975,-0.8074,-0.7956,-0.8097,0.0,0.0,-0.8197,-0.8178,-0.7953,-0.7842,-0.7727,-0.7492,-0.7411,-0.7257,-0.7061,-0.6945,-0.6754,-0.6435,-0.6252,-0.6064,-0.5908,-0.6057,-0.598,-0.5676,-0.552,-0.5404,-0.5329,-0.5321,-0.5359,-0.5479,-0.5673,-0.5825,-0.5902,-0.606,-0.618,-0.63,-0.6525,-0.6911,-0.7409,-0.7612,-0.8074,-0.8656,-0.8999,-0.9174,-0.9345,-1.7392,-1.7351,-1.731,-1.727,-1.7098,-1.7017,-1.7017,-1.6812,-1.6697,-1.6648,-1.6893,-1.7099,-1.7143,-1.7406,-1.7638,-1.7846,-1.7865,-1.7817,-1.7721,-1.7628,-1.7628,-1.7628,-1.7353,-1.7106,-1.6903,-1.6507,-1.6148,-1.5827,-1.5331,-1.509,-1.4999,-1.4608,-1.4398,-1.4398,-1.4208,-1.4088,-1.4088,-1.4046,-1.3452,-1.2611,-1.2531,-1.195,-1.1111,-1.1111,-1.1111,-1.1111,-1.1111,-1.0962,-1.0775,-1.0556,-1.0368,-1.0147,-0.9786,-0.962,-0.9576,-0.9346,-0.9133,-0.9037,-0.9173,-0.9115,-0.8989,-0.8934,-0.8806,-0.8617,-0.8389,-0.8308,-0.8253,-0.8059,-0.8082,-0.8048,-0.7834,-0.797,-0.8031,-0.791,0.0,0.0,0.0,-0.803,-0.7953,-0.7761,-0.7684,-0.7531,-0.7223,-0.7142,-0.7065,-0.6826,-0.6676,-0.6492,-0.6254,-0.6067,-0.5891,-0.5705,-0.5881,-0.5882,-0.5685,-0.5648,-0.5604,-0.5598,-0.5476,-0.5515,-0.5676,-0.5902,-0.598,-0.6018,-0.6219,-0.6338,-0.6374,-0.6602,-0.6987,-0.7492,-0.769,-0.8159,-0.874,-0.913,-0.9345,-0.9476,-1.718,-1.7139,-1.7057,-1.6771,-1.673,-1.6738,-1.6738,-1.6689,-1.6648,-1.6435,-1.6458,-1.6516,-1.6645,-1.6687,-1.6962,-1.7574,-1.7379,-1.7393,-1.766,-1.7481,-1.7326,-1.7326,-1.7094,-1.6925,-1.6903,-1.6257,-1.5849,-1.5605,-1.5289,-1.4957,-1.4734,-1.4482,-1.4398,-1.4398,-1.4208,-1.4088,-1.4088,-1.3828,-1.3287,-1.2571,-1.2412,-1.1834,-1.1111,-1.1111,-1.1111,-1.1111,-1.1111,-1.0962,-1.0775,-1.0556,-1.0368,-1.0175,-0.9938,-0.975,-0.9614,-0.9592,-0.9431,-0.928,-0.9296,-0.9265,-0.9238,-0.9038,-0.8974,-0.8882,-0.8498,-0.8377,-0.8284,-0.7914,-0.7956,-0.8052,-0.7818,-0.7948,-0.808,-0.808,0.0,0.0,-0.7838,-0.7842,-0.7761,-0.7561,-0.7373,-0.7219,-0.7223,-0.7022,-0.6826,-0.6641,-0.6602,-0.6419,-0.6037,-0.5895,-0.5688,-0.5436,-0.5671,-0.5772,-0.5685,-0.5697,-0.5657,-0.5598,-0.5789,-0.5864,-0.5902,-0.6141,-0.6261,-0.6261,-0.63,-0.6412,-0.6602,-0.6791,-0.7181,-0.769,-0.7892,-0.8366,-0.8911,-0.9218,-0.9432,-0.9646,-1.6894,-1.6853,-1.6771,-1.6566,-1.6517,-1.6484,-1.6368,-1.6335,-1.6294,-1.6203,-1.6203,-1.6216,-1.627,-1.6334,-1.6468,-1.6716,-1.6706,-1.6743,-1.6868,-1.665,-1.6646,-1.7026,-1.6961,-1.6674,-1.6103,-1.5857,-1.5505,-1.505,-1.4797,-1.4608,-1.4524,-1.4321,-1.4201,-1.4201,-1.3948,-1.3864,-1.3828,-1.361,-1.3074,-1.2412,-1.2332,-1.184,-1.1111,-1.1111,-1.1111,-1.1074,-1.0962,-1.0775,-1.0588,-1.0368,-1.018,-0.9997,-0.9916,-0.9863,-0.9755,-0.9644,-0.9532,-0.942,-0.9163,-0.913,-0.9108,-0.9003,-0.8903,-0.8765,-0.8604,-0.8477,-0.8346,-0.8189,-0.8127,-0.8034,-0.7841,-0.7867,-0.7876,-0.7753,0.0,-0.7714,-0.7642,-0.7492,-0.7415,-0.7334,-0.7138,-0.6945,-0.6834,-0.6753,-0.6641,-0.6412,-0.6412,-0.6304,-0.6,-0.58,-0.5576,-0.5402,-0.5456,-0.5522,-0.556,-0.5535,-0.561,-0.5789,-0.575,-0.5867,-0.6141,-0.6261,-0.63,-0.63,-0.63,-0.6412,-0.6598,-0.6826,-0.7217,-0.7732,-0.7934,-0.8362,-0.8911,-0.9213,-0.9432,-0.9689,-1.6574,-1.6492,-1.6451,-1.6319,-1.6319,-1.6237,-1.6128,-1.6087,-1.6087,-1.6004,-1.5955,-1.5963,-1.588,-1.5908,-1.5959,-1.6013,-1.6096,-1.6177,-1.619,-1.602,-1.6076,-1.6516,-1.6429,-1.6087,-1.5483,-1.5376,-1.5085,-1.4608,-1.4482,-1.4356,-1.4321,-1.4166,-1.4046,-1.3955,-1.3779,-1.3652,-1.361,-1.3392,-1.2908,-1.2292,-1.2206,-1.1756,-1.1111,-1.1111,-1.1074,-1.0999,-1.085,-1.0625,-1.0368,-1.0255,-1.0067,-0.9884,-0.9884,-0.9841,-0.9771,-0.962,-0.9511,-0.9359,-0.9061,-0.8946,-0.8903,-0.8903,-0.8784,-0.8665,-0.8627,-0.8518,-0.8365,-0.825,-0.8102,-0.7953,-0.7761,-0.7723,-0.7642,-0.7522,-0.7446,-0.7407,-0.7407,-0.7215,-0.7103,-0.7103,-0.6945,-0.6753,-0.6602,-0.6525,-0.6451,-0.63,-0.63,-0.6193,-0.6,-0.5721,-0.554,-0.544,-0.5322,-0.5299,-0.5365,-0.5387,-0.5572,-0.5902,-0.575,-0.5909,-0.63,-0.63,-0.63,-0.63,-0.63,-0.6451,-0.6718,-0.6882,-0.7306,-0.7818,-0.7994,-0.8458,-0.9043,-0.9218,-0.9476,-0.982,-1.6128,-1.6087,-1.6087,-1.6087,-1.6087,-1.6087,-1.6087,-1.6087,-1.6004,-1.5733,-1.5692,-1.5616,-1.5431,-1.5389,-1.5429,-1.5576,-1.5605,-1.5604,-1.5688,-1.5702,-1.5702,-1.5702,-1.5364,-1.5203,-1.5196,-1.4852,-1.4608,-1.4398,-1.4398,-1.4279,-1.4088,-1.4088,-1.3955,-1.3695,-1.3695,-1.3568,-1.3398,-1.3179,-1.2789,-1.2298,-1.2006,-1.16,-1.1111,-1.1111,-1.0962,-1.0812,-1.0812,-1.0556,-1.0218,-1.0218,-1.0067,-0.9884,-0.9884,-0.9771,-0.9582,-0.9582,-0.9322,-0.8984,-0.8984,-0.8861,-0.8703,-0.8703,-0.8703,-0.8627,-0.8437,-0.8403,-0.8289,-0.7876,-0.7804,-0.7723,-0.7522,-0.7484,-0.7484,-0.7484,-0.7334,-0.7184,-0.7184,-0.7022,-0.6903,-0.6903,-0.6714,-0.6602,-0.6602,-0.6412,-0.63,-0.63,-0.63,-0.6193,-0.6,-0.5672,-0.5486,-0.5486,-0.5303,-0.5183,-0.5087,-0.528,-0.5572,-0.5899,-0.5902,-0.6022,-0.63,-0.63,-0.63,-0.63,-0.63,-0.6525,-0.6914,-0.7044,-0.745,-0.8032,-0.8219,-0.8699,-0.9305,-0.9305,-0.9607,-1.0081,-1.6128,-1.6087,-1.6046,-1.5865,-1.5824,-1.5782,-1.5631,-1.5506,-1.5382,-1.5291,-1.5117,-1.4992,-1.4908,-1.4908,-1.4909,-1.4958,-1.4965,-1.4916,-1.4793,-1.48,-1.4715,-1.46,-1.4967,-1.5012,-1.4662,-1.4523,-1.4405,-1.4208,-1.4208,-1.4075,-1.3822,-1.3822,-1.3695,-1.3476,-1.3355,-1.3264,-1.3179,-1.2918,-1.2637,-1.2261,-1.1999,-1.1676,-1.1345,-1.1002,-1.085,-1.0775,-1.0481,-1.0293,-1.018,-1.003,-0.9954,-0.9884,-0.9733,-0.9657,-0.9549,-0.9246,-0.9099,-0.8984,-0.8822,-0.8742,-0.8703,-0.8703,-0.8589,-0.8479,-0.8403,-0.8178,-0.7953,-0.7842,-0.7684,-0.7522,-0.7334,-0.7296,-0.7257,-0.7096,-0.7019,-0.698,-0.698,-0.683,-0.6676,-0.6676,-0.6525,-0.6374,-0.6374,-0.6338,-0.63,-0.63,-0.6138,-0.588,-0.5588,-0.5467,-0.5402,-0.5303,-0.517,-0.5124,-0.5087,-0.5165,-0.5269,-0.5476,-0.5634,-0.5789,-0.6022,-0.6219,-0.63,-0.63,-0.63,-0.6525,-0.6914,-0.7044,-0.745,-0.8032,-0.8219,-0.8699,-0.9305,-0.9305,-0.9607,-1.0081,-1.5839,-1.5756,-1.5665,-1.5492,-1.536,-1.5242,-1.5124,-1.5041,-1.4957,-1.4957,-1.4783,-1.4692,-1.4692,-1.4692,-1.465,-1.4608,-1.4489,-1.4412,-1.4279,-1.4279,-1.4201,-1.3955,-1.437,-1.4504,-1.4286,-1.4279,-1.4159,-1.3955,-1.3955,-1.3822,-1.3568,-1.3568,-1.3483,-1.3264,-1.3137,-1.3052,-1.2924,-1.279,-1.2554,-1.23,-1.2062,-1.174,-1.1361,-1.0965,-1.0723,-1.0513,-1.0293,-1.0143,-1.0067,-0.996,-0.9846,-0.9771,-0.962,-0.9473,-0.9322,-0.9061,-0.8946,-0.8861,-0.8742,-0.8627,-0.8589,-0.8589,-0.8475,-0.8365,-0.8217,-0.7991,-0.7765,-0.7684,-0.7526,-0.7334,-0.7219,-0.7142,-0.7061,-0.6903,-0.6826,-0.6788,-0.6788,-0.6602,-0.649,-0.649,-0.6296,-0.6141,-0.6141,-0.6064,-0.6028,-0.6028,-0.5867,-0.5674,-0.548,-0.5398,-0.5321,-0.5241,-0.5127,-0.5053,-0.5053,-0.5053,-0.5128,-0.5321,-0.5518,-0.5712,-0.5902,-0.618,-0.63,-0.63,-0.63,-0.6525,-0.6918,-0.7118,-0.7516,-0.804,-0.83,-0.8766,-0.9305,-0.9305,-0.9607,-1.0081,-1.5382,-1.5173,-1.5048,-1.5048,-1.4866,-1.4692,-1.4692,-1.4692,-1.465,-1.465,-1.465,-1.4657,-1.4657,-1.4657,-1.4566,-1.4356,-1.4186,-1.4093,-1.4126,-1.4126,-1.3979,-1.3734,-1.3691,-1.3805,-1.4046,-1.4046,-1.3913,-1.3652,-1.3652,-1.3561,-1.3355,-1.3355,-1.3264,-1.3052,-1.3052,-1.2924,-1.2705,-1.2662,-1.2524,-1.2307,-1.2076,-1.1665,-1.121,-1.0969,-1.061,-1.0213,-1.0186,-1.0067,-0.9884,-0.9884,-0.9771,-0.9582,-0.9587,-0.9322,-0.8984,-0.8984,-0.8822,-0.8708,-0.8689,-0.8579,-0.8435,-0.8415,-0.8367,-0.8273,-0.788,-0.7804,-0.7723,-0.7522,-0.7334,-0.718,-0.7146,-0.6984,-0.6865,-0.6865,-0.6676,-0.6563,-0.6525,-0.6374,-0.6261,-0.6222,-0.6022,-0.5864,-0.5864,-0.5712,-0.5598,-0.5559,-0.5559,-0.5559,-0.5559,-0.5362,-0.5282,-0.5282,-0.5093,-0.5018,-0.5018,-0.5018,-0.5093,-0.5282,-0.5479,-0.5673,-0.5864,-0.6141,-0.6261,-0.63,-0.63,-0.6525,-0.6929,-0.727,-0.7649,-0.8048,-0.8422,-0.8872,-0.9305,-0.9305,-0.9607,-1.0081,-1.4866,-1.4824,-1.4783,-1.4783,-1.4734,-1.4692,-1.4692,-1.4566,-1.4482,-1.4482,-1.4328,-1.425,-1.425,-1.425,-1.4117,-1.3857,-1.3853,-1.3949,-1.4142,-1.4199,-1.4052,-1.3772,-1.3759,-1.3707,-1.3574,-1.3568,-1.3525,-1.3483,-1.3483,-1.3349,-1.3185,-1.3185,-1.3052,-1.279,-1.279,-1.2747,-1.2705,-1.2534,-1.2419,-1.2348,-1.1849,-1.1622,-1.1444,-1.0864,-1.0606,-1.0457,-1.01,-0.9922,-0.9884,-0.9884,-0.9771,-0.9582,-0.9397,-0.9208,-0.8984,-0.8822,-0.8742,-0.8703,-0.8716,-0.8684,-0.8602,-0.8358,-0.8241,-0.809,-0.7876,-0.7684,-0.7522,-0.7296,-0.7219,-0.7107,-0.6795,-0.6679,-0.6602,-0.6451,-0.6374,-0.6296,-0.6096,-0.6018,-0.5944,-0.5754,-0.5715,-0.5676,-0.5676,-0.5637,-0.5521,-0.5359,-0.5359,-0.5285,-0.5135,-0.5093,-0.5054,-0.5054,-0.5015,-0.5018,-0.5018,-0.5018,-0.5015,-0.5054,-0.5285,-0.5479,-0.5676,-0.5902,-0.6099,-0.63,-0.63,-0.6525,-0.6929,-0.727,-0.7649,-0.8048,-0.8422,-0.8872,-0.9305,-0.9305,-0.9607,-1.0081,-1.4692,-1.4608,-1.4566,-1.4566,-1.4489,-1.4363,-1.4237,-1.4153,-1.4019,-1.3942,-1.3822,-1.3786,-1.3786,-1.3786,-1.3753,-1.3754,-1.3766,-1.3888,-1.4186,-1.4205,-1.4027,-1.3686,-1.3674,-1.3461,-1.3052,-1.2966,-1.3052,-1.327,-1.327,-1.3137,-1.2924,-1.2924,-1.279,-1.2577,-1.2577,-1.2491,-1.2375,-1.2246,-1.2203,-1.2192,-1.1804,-1.1548,-1.1408,-1.0958,-1.0647,-1.0433,-1.0181,-1.0019,-0.9879,-0.9771,-0.962,-0.9435,-0.9213,-0.9018,-0.8842,-0.8826,-0.8855,-0.8824,-0.8835,-0.8774,-0.864,-0.8373,-0.8155,-0.7994,-0.7855,-0.7549,-0.7334,-0.7219,-0.703,-0.6834,-0.6641,-0.6525,-0.6374,-0.6138,-0.6099,-0.6022,-0.5789,-0.575,-0.5712,-0.5598,-0.5518,-0.5401,-0.5326,-0.5326,-0.5287,-0.5168,-0.5168,-0.5129,-0.5018,-0.5018,-0.5018,-0.5018,-0.5018,-0.5018,-0.5018,-0.5018,-0.5018,-0.5018,-0.5207,-0.5401,-0.5598,-0.5825,-0.606,-0.63,-0.63,-0.6525,-0.6922,-0.714,-0.7535,-0.804,-0.8325,-0.8787,-0.9305,-0.9305,-0.9733,-1.0381,-1.4524,-1.4356,-1.423,-1.423,-1.4075,-1.3913,-1.3695,-1.3652,-1.361,-1.3434,-1.3398,-1.3398,-1.3398,-1.3355,-1.3482,-1.3812,-1.3793,-1.3894,-1.4182,-1.4207,-1.4011,-1.3541,-1.3485,-1.3205,-1.2668,-1.2448,-1.254,-1.2966,-1.293,-1.2796,-1.2577,-1.2577,-1.2491,-1.232,-1.232,-1.2203,-1.2,-1.1957,-1.1957,-1.1914,-1.1699,-1.1486,-1.1293,-1.1082,-1.0746,-1.0401,-1.0326,-1.0093,-0.9809,-0.962,-0.9397,-0.9213,-0.9061,-0.8889,-0.8789,-0.8934,-0.9009,-0.9,-0.9,-0.8849,-0.8615,-0.84,-0.8214,-0.8024,-0.7841,-0.7529,-0.7223,-0.7188,-0.6852,-0.6602,-0.6563,-0.6374,-0.6141,-0.5941,-0.5864,-0.5789,-0.5556,-0.5559,-0.5521,-0.5482,-0.5362,-0.5168,-0.5015,-0.5018,-0.4979,-0.4937,-0.4937,-0.4937,-0.4898,-0.4898,-0.4898,-0.4898,-0.4898,-0.4898,-0.4937,-0.4937,-0.4976,-0.5018,-0.5168,-0.5362,-0.5559,-0.5747,-0.5983,-0.6219,-0.63,-0.6525,-0.6876,-0.7047,-0.745,-0.7991,-0.8219,-0.8699,-0.9305,-0.9388,-0.9951,-1.0684,-1.3822,-1.3688,-1.3519,-1.3519,-1.3519,-1.3483,-1.344,-1.344,-1.344,-1.3398,-1.3398,-1.3398,-1.3398,-1.3222,-1.3349,-1.3828,-1.3685,-1.3762,-1.4254,-1.4291,-1.4066,-1.3529,-1.3323,-1.3002,-1.246,-1.2203,-1.2203,-1.2491,-1.2246,-1.2123,-1.208,-1.208,-1.208,-1.2037,-1.2037,-1.2037,-1.2,-1.1828,-1.1742,-1.1699,-1.144,-1.1332,-1.1278,-1.1063,-1.0945,-1.0837,-1.0439,-1.0021,-0.9625,-0.9397,-0.9213,-0.9022,-0.9022,-0.8995,-0.8948,-0.8976,-0.8987,-0.9005,-0.8908,-0.875,-0.8586,-0.8581,-0.8416,-0.8205,-0.7931,-0.7628,-0.7315,-0.716,-0.6852,-0.6563,-0.6377,-0.6138,-0.5941,-0.5902,-0.575,-0.5556,-0.5359,-0.5359,-0.5285,-0.5093,-0.5057,-0.5015,-0.5018,-0.5018,-0.4937,-0.474,-0.474,-0.4659,-0.4501,-0.4462,-0.4462,-0.4462,-0.4462,-0.4582,-0.474,-0.474,-0.4818,-0.5018,-0.5015,-0.5132,-0.5359,-0.5556,-0.575,-0.598,-0.618,-0.6412,-0.6651,-0.6968,-0.7373,-0.7789,-0.8135,-0.8699,-0.9349,-0.9738,-1.0255,-1.0684,-1.3525,-1.3483,-1.3398,-1.3398,-1.3398,-1.3349,-1.3264,-1.3228,-1.3179,-1.3052,-1.3003,-1.3003,-1.3003,-1.2924,-1.3101,-1.3652,-1.3559,-1.3644,-1.4034,-1.407,-1.3785,-1.3122,-1.3013,-1.273,-1.2172,-1.1957,-1.1871,-1.1989,-1.1995,-1.2,-1.2,-1.2,-1.1957,-1.1828,-1.1828,-1.1742,-1.1607,-1.1521,-1.1483,-1.1483,-1.1354,-1.1305,-1.1295,-1.1059,-1.0895,-1.0715,-1.0131,-0.9784,-0.956,-0.9248,-0.9061,-0.8984,-0.8865,-0.8893,-0.9009,-0.9001,-0.9096,-0.9135,-0.8948,-0.8823,-0.8762,-0.8636,-0.8412,-0.8218,-0.8088,-0.7685,-0.7278,-0.7104,-0.6758,-0.6494,-0.6264,-0.6038,-0.5822,-0.5592,-0.5476,-0.5362,-0.5168,-0.5051,-0.4893,-0.4701,-0.4659,-0.4659,-0.4659,-0.4659,-0.4621,-0.4543,-0.4543,-0.4501,-0.4423,-0.4384,-0.4384,-0.4384,-0.4384,-0.4462,-0.4543,-0.4543,-0.4621,-0.482,-0.482,-0.5012,-0.5321,-0.5518,-0.5712,-0.5902,-0.618,-0.6412,-0.6606,-0.6865,-0.7285,-0.774,-0.8022,-0.8607,-0.9349,-0.9646,-1.0168,-1.0684]}]]